Wetterdaten: Samstag, 16.07.2016
Datum Zeit Temp. A. Feuchte A. Luftdruck Regen Wind Richtung Richtung Sonnenschein ET UV Solar Taupunkt Windchill Windben Empfang
16.07.2016 00:00 12,9 C 83 % 1024,3 hPa 0,0 l/m 8,6 km/h (2 Bft) SW 219 0 min 0,000 mm 0,0 UV-I 0 W/m 10,1 C 11,5 C 12,9 km/h (3 Bft) 100,00 %
16.07.2016 00:02 12,9 C 83 % 1024,3 hPa 0,0 l/m 9,4 km/h (2 Bft) SW 217 0 min 0,000 mm 0,0 UV-I 0 W/m 10,1 C 11,1 C 12,9 km/h (3 Bft) 5,56 %
16.07.2016 00:04 12,8 C 84 % 1024,3 hPa 0,0 l/m 8,8 km/h (2 Bft) W-SW 238 0 min 0,000 mm 0,0 UV-I 0 W/m 10,2 C 11,3 C 12,9 km/h (3 Bft) 91,67 %
16.07.2016 00:06 12,8 C 84 % 1024,2 hPa 0,0 l/m 7,5 km/h (2 Bft) W-SW 255 0 min 0,000 mm 0,0 UV-I 0 W/m 10,2 C 12,1 C 11,3 km/h (2 Bft) 100,00 %
16.07.2016 00:08 12,8 C 84 % 1024,2 hPa 0,0 l/m 8,1 km/h (2 Bft) W-SW 251 0 min 0,000 mm 0,0 UV-I 0 W/m 10,2 C 11,7 C 14,5 km/h (3 Bft) 100,00 %
16.07.2016 00:10 12,8 C 84 % 1024,3 hPa 0,0 l/m 6,4 km/h (2 Bft) SW 220 0 min 0,000 mm 0,0 UV-I 0 W/m 10,2 C 12,8 C 9,7 km/h (2 Bft) 100,00 %
16.07.2016 00:12 12,8 C 84 % 1024,3 hPa 0,0 l/m 8,1 km/h (2 Bft) SW 227 0 min 0,000 mm 0,0 UV-I 0 W/m 10,2 C 11,7 C 11,3 km/h (2 Bft) 97,87 %
16.07.2016 00:14 12,8 C 84 % 1024,3 hPa 0,0 l/m 8,4 km/h (2 Bft) S-SW 213 0 min 0,000 mm 0,0 UV-I 0 W/m 10,2 C 11,6 C 12,9 km/h (3 Bft) 97,87 %
16.07.2016 00:16 12,8 C 84 % 1024,3 hPa 0,0 l/m 8,3 km/h (2 Bft) W-SW 240 0 min 0,000 mm 0,0 UV-I 0 W/m 10,2 C 11,6 C 16,1 km/h (3 Bft) 100,00 %
16.07.2016 00:18 12,8 C 83 % 1024,4 hPa 0,0 l/m 8,3 km/h (2 Bft) SW 220 0 min 0,000 mm 0,0 UV-I 0 W/m 10,0 C 11,6 C 12,9 km/h (3 Bft) 97,87 %
16.07.2016 00:20 12,8 C 83 % 1024,4 hPa 0,0 l/m 8,5 km/h (2 Bft) SW 215 0 min 0,000 mm 0,0 UV-I 0 W/m 10,0 C 11,5 C 12,9 km/h (3 Bft) 97,87 %
16.07.2016 00:22 12,8 C 83 % 1024,4 hPa 0,0 l/m 7,9 km/h (2 Bft) SW 221 0 min 0,000 mm 0,0 UV-I 0 W/m 10,0 C 11,9 C 12,9 km/h (3 Bft) 100,00 %
16.07.2016 00:24 12,8 C 83 % 1024,4 hPa 0,0 l/m 7,6 km/h (2 Bft) SW 219 0 min 0,000 mm 0,0 UV-I 0 W/m 10,0 C 12,0 C 11,3 km/h (2 Bft) 97,87 %
16.07.2016 00:26 12,8 C 83 % 1024,5 hPa 0,0 l/m 6,1 km/h (2 Bft) S-SW 203 0 min 0,000 mm 0,0 UV-I 0 W/m 10,0 C 12,8 C 11,3 km/h (2 Bft) 97,87 %
16.07.2016 00:28 12,8 C 83 % 1024,5 hPa 0,0 l/m 7,2 km/h (2 Bft) SW 232 0 min 0,000 mm 0,0 UV-I 0 W/m 10,0 C 12,3 C 9,7 km/h (2 Bft) 100,00 %
16.07.2016 00:30 12,8 C 83 % 1024,5 hPa 0,0 l/m 6,8 km/h (2 Bft) SW 222 0 min 0,000 mm 0,0 UV-I 0 W/m 10,0 C 12,6 C 9,7 km/h (2 Bft) 100,00 %
16.07.2016 00:34 12,8 C 83 % 1024,6 hPa 0,0 l/m 6,2 km/h (2 Bft) SW 228 0 min 0,000 mm 0,0 UV-I 0 W/m 10,0 C 12,8 C 11,3 km/h (2 Bft) 100,00 %
16.07.2016 00:36 12,8 C 83 % 1024,5 hPa 0,0 l/m 5,4 km/h (1 Bft) W-SW 244 0 min 0,000 mm 0,0 UV-I 0 W/m 10,0 C 12,8 C 8,0 km/h (2 Bft) 100,00 %
16.07.2016 00:38 12,8 C 84 % 1024,6 hPa 0,0 l/m 6,0 km/h (2 Bft) W-SW 238 0 min 0,000 mm 0,0 UV-I 0 W/m 10,2 C 12,8 C 11,3 km/h (2 Bft) 100,00 %
16.07.2016 00:40 12,8 C 84 % 1024,6 hPa 0,0 l/m 5,0 km/h (1 Bft) SW 234 0 min 0,000 mm 0,0 UV-I 0 W/m 10,2 C 12,8 C 8,0 km/h (2 Bft) 100,00 %
16.07.2016 00:42 12,8 C 84 % 1024,6 hPa 0,0 l/m 6,4 km/h (2 Bft) SW 220 0 min 0,000 mm 0,0 UV-I 0 W/m 10,2 C 12,8 C 9,7 km/h (2 Bft) 100,00 %
16.07.2016 00:44 12,8 C 84 % 1024,6 hPa 0,0 l/m 5,7 km/h (1 Bft) SW 216 0 min 0,000 mm 0,0 UV-I 0 W/m 10,2 C 12,8 C 9,7 km/h (2 Bft) 96,23 %
16.07.2016 00:46 12,7 C 84 % 1024,6 hPa 0,0 l/m 5,6 km/h (1 Bft) S-SW 194 0 min 0,000 mm 0,0 UV-I 0 W/m 10,1 C 12,7 C 8,0 km/h (2 Bft) 98,11 %
16.07.2016 00:48 12,8 C 84 % 1024,6 hPa 0,0 l/m 6,3 km/h (2 Bft) S 171 0 min 0,000 mm 0,0 UV-I 0 W/m 10,2 C 12,8 C 11,3 km/h (2 Bft) 100,00 %
16.07.2016 00:50 12,8 C 83 % 1024,6 hPa 0,0 l/m 5,3 km/h (1 Bft) SW 222 0 min 0,000 mm 0,0 UV-I 0 W/m 10,0 C 12,8 C 8,0 km/h (2 Bft) 100,00 %
16.07.2016 00:52 12,8 C 83 % 1024,6 hPa 0,0 l/m 5,9 km/h (2 Bft) S-SW 212 0 min 0,000 mm 0,0 UV-I 0 W/m 10,0 C 12,8 C 9,7 km/h (2 Bft) 98,11 %
16.07.2016 00:54 12,8 C 84 % 1024,6 hPa 0,0 l/m 4,9 km/h (1 Bft) S-SW 213 0 min 0,000 mm 0,0 UV-I 0 W/m 10,2 C 12,8 C 8,0 km/h (2 Bft) 100,00 %
16.07.2016 00:56 12,8 C 83 % 1024,6 hPa 0,0 l/m 5,3 km/h (1 Bft) S-SW 208 0 min 0,000 mm 0,0 UV-I 0 W/m 10,0 C 12,8 C 8,0 km/h (2 Bft) 100,00 %
16.07.2016 00:58 12,8 C 83 % 1024,6 hPa 0,0 l/m 7,4 km/h (2 Bft) SW 218 0 min 0,000 mm 0,0 UV-I 0 W/m 10,0 C 12,2 C 9,7 km/h (2 Bft) 100,00 %
16.07.2016 01:00 12,7 C 83 % 1024,6 hPa 0,0 l/m 7,5 km/h (2 Bft) SW 232 0 min 0,025 mm 0,0 UV-I 0 W/m 9,9 C 12,0 C 11,3 km/h (2 Bft) 100,00 %
16.07.2016 01:02 12,7 C 83 % 1024,7 hPa 0,0 l/m 5,5 km/h (1 Bft) S-SW 205 0 min 0,000 mm 0,0 UV-I 0 W/m 9,9 C 12,7 C 9,7 km/h (2 Bft) 100,00 %
16.07.2016 01:04 12,7 C 84 % 1024,6 hPa 0,0 l/m 6,5 km/h (2 Bft) S 177 0 min 0,000 mm 0,0 UV-I 0 W/m 10,1 C 12,7 C 9,7 km/h (2 Bft) 100,00 %
16.07.2016 01:06 12,7 C 84 % 1024,6 hPa 0,0 l/m 6,6 km/h (2 Bft) SW 217 0 min 0,000 mm 0,0 UV-I 0 W/m 10,1 C 12,6 C 9,7 km/h (2 Bft) 98,00 %
16.07.2016 01:08 12,7 C 84 % 1024,6 hPa 0,0 l/m 7,6 km/h (2 Bft) S-SW 211 0 min 0,000 mm 0,0 UV-I 0 W/m 10,1 C 11,9 C 14,5 km/h (3 Bft) 100,00 %
16.07.2016 01:10 12,7 C 84 % 1024,6 hPa 0,0 l/m 9,0 km/h (2 Bft) S-SW 209 0 min 0,000 mm 0,0 UV-I 0 W/m 10,1 C 11,1 C 12,9 km/h (3 Bft) 100,00 %
16.07.2016 01:12 12,7 C 83 % 1024,6 hPa 0,0 l/m 7,8 km/h (2 Bft) SW 223 0 min 0,000 mm 0,0 UV-I 0 W/m 9,9 C 11,8 C 11,3 km/h (2 Bft) 100,00 %
16.07.2016 01:14 12,7 C 83 % 1024,7 hPa 0,0 l/m 7,9 km/h (2 Bft) S-SW 202 0 min 0,000 mm 0,0 UV-I 0 W/m 9,9 C 11,7 C 9,7 km/h (2 Bft) 96,23 %
16.07.2016 01:16 12,7 C 84 % 1024,7 hPa 0,0 l/m 6,7 km/h (2 Bft) SW 218 0 min 0,000 mm 0,0 UV-I 0 W/m 10,1 C 12,5 C 9,7 km/h (2 Bft) 100,00 %
16.07.2016 01:18 12,7 C 84 % 1024,7 hPa 0,0 l/m 7,1 km/h (2 Bft) S-SW 213 0 min 0,000 mm 0,0 UV-I 0 W/m 10,1 C 12,3 C 9,7 km/h (2 Bft) 98,00 %
16.07.2016 01:20 12,7 C 83 % 1024,7 hPa 0,0 l/m 5,7 km/h (1 Bft) SW 219 0 min 0,000 mm 0,0 UV-I 0 W/m 9,9 C 12,7 C 8,0 km/h (2 Bft) 98,11 %
16.07.2016 01:22 12,7 C 83 % 1024,7 hPa 0,0 l/m 6,2 km/h (2 Bft) W-SW 240 0 min 0,000 mm 0,0 UV-I 0 W/m 9,9 C 12,7 C 9,7 km/h (2 Bft) 95,12 %
16.07.2016 01:24 12,7 C 83 % 1024,7 hPa 0,0 l/m 6,3 km/h (2 Bft) W-SW 242 0 min 0,000 mm 0,0 UV-I 0 W/m 9,9 C 12,7 C 9,7 km/h (2 Bft) 98,00 %
16.07.2016 01:26 12,8 C 84 % 1024,7 hPa 0,0 l/m 5,4 km/h (1 Bft) SW 217 0 min 0,000 mm 0,0 UV-I 0 W/m 10,2 C 12,8 C 9,7 km/h (2 Bft) 94,74 %
16.07.2016 01:28 12,7 C 83 % 1024,7 hPa 0,0 l/m 5,8 km/h (2 Bft) SW 234 0 min 0,000 mm 0,0 UV-I 0 W/m 9,9 C 12,7 C 8,0 km/h (2 Bft) 98,11 %
16.07.2016 01:30 12,7 C 83 % 1024,7 hPa 0,0 l/m 6,6 km/h (2 Bft) SW 222 0 min 0,000 mm 0,0 UV-I 0 W/m 9,9 C 12,6 C 9,7 km/h (2 Bft) 97,56 %
16.07.2016 01:32 12,7 C 83 % 1024,7 hPa 0,0 l/m 6,6 km/h (2 Bft) SW 229 0 min 0,000 mm 0,0 UV-I 0 W/m 9,9 C 12,6 C 11,3 km/h (2 Bft) 94,00 %
16.07.2016 01:34 12,7 C 84 % 1024,7 hPa 0,0 l/m 6,9 km/h (2 Bft) SW 233 0 min 0,000 mm 0,0 UV-I 0 W/m 10,1 C 12,4 C 11,3 km/h (2 Bft) 98,00 %
16.07.2016 01:36 12,7 C 83 % 1024,7 hPa 0,0 l/m 6,4 km/h (2 Bft) SW 229 0 min 0,000 mm 0,0 UV-I 0 W/m 9,9 C 12,7 C 9,7 km/h (2 Bft) 98,00 %
16.07.2016 01:38 12,7 C 83 % 1024,7 hPa 0,0 l/m 7,0 km/h (2 Bft) W-SW 241 0 min 0,000 mm 0,0 UV-I 0 W/m 9,9 C 12,3 C 9,7 km/h (2 Bft) 95,12 %
16.07.2016 01:40 12,7 C 83 % 1024,7 hPa 0,0 l/m 5,7 km/h (1 Bft) W-SW 238 0 min 0,000 mm 0,0 UV-I 0 W/m 9,9 C 12,7 C 9,7 km/h (2 Bft) 97,87 %
16.07.2016 01:42 12,7 C 84 % 1024,7 hPa 0,0 l/m 6,4 km/h (2 Bft) SW 217 0 min 0,000 mm 0,0 UV-I 0 W/m 10,1 C 12,7 C 11,3 km/h (2 Bft) 97,56 %
16.07.2016 01:44 12,7 C 84 % 1024,7 hPa 0,0 l/m 6,7 km/h (2 Bft) W-SW 243 0 min 0,000 mm 0,0 UV-I 0 W/m 10,1 C 12,5 C 9,7 km/h (2 Bft) 98,11 %
16.07.2016 01:46 12,7 C 84 % 1024,7 hPa 0,0 l/m 5,2 km/h (1 Bft) S 180 0 min 0,000 mm 0,0 UV-I 0 W/m 10,1 C 12,7 C 8,0 km/h (2 Bft) 96,23 %
16.07.2016 01:48 12,7 C 84 % 1024,6 hPa 0,0 l/m 6,0 km/h (2 Bft) SW 218 0 min 0,000 mm 0,0 UV-I 0 W/m 10,1 C 12,7 C 8,0 km/h (2 Bft) 97,87 %
16.07.2016 01:50 12,7 C 84 % 1024,6 hPa 0,0 l/m 6,1 km/h (2 Bft) SW 234 0 min 0,000 mm 0,0 UV-I 0 W/m 10,1 C 12,7 C 9,7 km/h (2 Bft) 97,22 %
16.07.2016 01:52 12,7 C 84 % 1024,6 hPa 0,0 l/m 5,0 km/h (1 Bft) SW 231 0 min 0,000 mm 0,0 UV-I 0 W/m 10,1 C 12,7 C 8,0 km/h (2 Bft) 95,74 %
16.07.2016 01:54 12,7 C 85 % 1024,5 hPa 0,0 l/m 6,4 km/h (2 Bft) W-SW 242 0 min 0,000 mm 0,0 UV-I 0 W/m 10,2 C 12,7 C 11,3 km/h (2 Bft) 98,11 %
16.07.2016 01:56 12,7 C 85 % 1024,4 hPa 0,0 l/m 6,0 km/h (2 Bft) SW 236 0 min 0,000 mm 0,0 UV-I 0 W/m 10,2 C 12,7 C 8,0 km/h (2 Bft) 100,00 %
16.07.2016 01:58 12,7 C 85 % 1024,4 hPa 0,0 l/m 7,1 km/h (2 Bft) W-SW 247 0 min 0,000 mm 0,0 UV-I 0 W/m 10,2 C 12,3 C 11,3 km/h (2 Bft) 98,59 %
16.07.2016 02:00 12,7 C 85 % 1024,3 hPa 0,0 l/m 8,5 km/h (2 Bft) W 262 0 min 0,026 mm 0,0 UV-I 0 W/m 10,2 C 11,4 C 14,5 km/h (3 Bft) 95,12 %
16.07.2016 02:02 12,7 C 85 % 1024,4 hPa 0,0 l/m 6,9 km/h (2 Bft) W-SW 246 0 min 0,000 mm 0,0 UV-I 0 W/m 10,2 C 12,4 C 11,3 km/h (2 Bft) 100,00 %
16.07.2016 02:04 12,7 C 85 % 1024,4 hPa 0,0 l/m 6,5 km/h (2 Bft) SW 229 0 min 0,000 mm 0,0 UV-I 0 W/m 10,2 C 12,7 C 8,0 km/h (2 Bft) 97,87 %
16.07.2016 02:06 12,7 C 85 % 1024,3 hPa 0,0 l/m 7,1 km/h (2 Bft) W-SW 244 0 min 0,000 mm 0,0 UV-I 0 W/m 10,2 C 12,3 C 11,3 km/h (2 Bft) 100,00 %
16.07.2016 02:08 12,8 C 84 % 1024,3 hPa 0,0 l/m 7,7 km/h (2 Bft) SW 231 0 min 0,000 mm 0,0 UV-I 0 W/m 10,2 C 12,0 C 11,3 km/h (2 Bft) 100,00 %
16.07.2016 02:10 12,8 C 85 % 1024,4 hPa 0,0 l/m 7,0 km/h (2 Bft) W-SW 239 0 min 0,000 mm 0,0 UV-I 0 W/m 10,3 C 12,4 C 11,3 km/h (2 Bft) 98,11 %
16.07.2016 02:12 12,8 C 85 % 1024,4 hPa 0,0 l/m 7,8 km/h (2 Bft) SW 227 0 min 0,000 mm 0,0 UV-I 0 W/m 10,3 C 11,9 C 9,7 km/h (2 Bft) 100,00 %
16.07.2016 02:14 12,8 C 85 % 1024,4 hPa 0,0 l/m 5,9 km/h (2 Bft) SW 233 0 min 0,000 mm 0,0 UV-I 0 W/m 10,3 C 12,8 C 11,3 km/h (2 Bft) 100,00 %
16.07.2016 02:16 12,8 C 85 % 1024,4 hPa 0,0 l/m 8,5 km/h (2 Bft) W-SW 242 0 min 0,000 mm 0,0 UV-I 0 W/m 10,3 C 11,5 C 12,9 km/h (3 Bft) 98,04 %
16.07.2016 02:18 12,8 C 85 % 1024,3 hPa 0,0 l/m 5,9 km/h (2 Bft) W-SW 249 0 min 0,000 mm 0,0 UV-I 0 W/m 10,3 C 12,8 C 9,7 km/h (2 Bft) 100,00 %
16.07.2016 02:20 12,8 C 85 % 1024,4 hPa 0,0 l/m 5,7 km/h (1 Bft) W-SW 242 0 min 0,000 mm 0,0 UV-I 0 W/m 10,3 C 12,8 C 8,0 km/h (2 Bft) 97,14 %
16.07.2016 02:22 12,8 C 85 % 1024,3 hPa 0,0 l/m 4,7 km/h (1 Bft) W-SW 247 0 min 0,000 mm 0,0 UV-I 0 W/m 10,3 C 12,8 C 6,4 km/h (2 Bft) 100,00 %
16.07.2016 02:24 12,8 C 85 % 1024,3 hPa 0,0 l/m 5,2 km/h (1 Bft) W-SW 247 0 min 0,000 mm 0,0 UV-I 0 W/m 10,3 C 12,8 C 8,0 km/h (2 Bft) 100,00 %
16.07.2016 02:26 12,8 C 86 % 1024,3 hPa 0,0 l/m 4,5 km/h (1 Bft) W-SW 238 0 min 0,000 mm 0,0 UV-I 0 W/m 10,5 C 12,8 C 8,0 km/h (2 Bft) 100,00 %
16.07.2016 02:28 12,8 C 86 % 1024,3 hPa 0,0 l/m 4,3 km/h (1 Bft) W-SW 252 0 min 0,000 mm 0,0 UV-I 0 W/m 10,5 C 12,8 C 6,4 km/h (2 Bft) 100,00 %
16.07.2016 02:30 12,8 C 86 % 1024,3 hPa 0,0 l/m 3,1 km/h (1 Bft) W-SW 248 0 min 0,000 mm 0,0 UV-I 0 W/m 10,5 C 12,8 C 4,8 km/h (1 Bft) 100,00 %
16.07.2016 02:32 12,8 C 86 % 1024,3 hPa 0,0 l/m 3,8 km/h (1 Bft) W-SW 239 0 min 0,000 mm 0,0 UV-I 0 W/m 10,5 C 12,8 C 6,4 km/h (2 Bft) 97,87 %
16.07.2016 02:34 12,8 C 86 % 1024,3 hPa 0,0 l/m 4,4 km/h (1 Bft) W-SW 240 0 min 0,000 mm 0,0 UV-I 0 W/m 10,5 C 12,8 C 9,7 km/h (2 Bft) 98,00 %
16.07.2016 02:36 12,8 C 86 % 1024,3 hPa 0,0 l/m 5,2 km/h (1 Bft) SW 227 0 min 0,000 mm 0,0 UV-I 0 W/m 10,5 C 12,8 C 8,0 km/h (2 Bft) 100,00 %
16.07.2016 02:38 12,8 C 86 % 1024,3 hPa 0,0 l/m 6,2 km/h (2 Bft) SW 215 0 min 0,000 mm 0,0 UV-I 0 W/m 10,5 C 12,8 C 11,3 km/h (2 Bft) 100,00 %
16.07.2016 02:40 12,8 C 86 % 1024,3 hPa 0,0 l/m 5,5 km/h (1 Bft) W-SW 252 0 min 0,000 mm 0,0 UV-I 0 W/m 10,5 C 12,8 C 8,0 km/h (2 Bft) 97,56 %
16.07.2016 02:42 12,8 C 86 % 1024,2 hPa 0,0 l/m 5,1 km/h (1 Bft) SW 224 0 min 0,000 mm 0,0 UV-I 0 W/m 10,5 C 12,8 C 6,4 km/h (2 Bft) 100,00 %
16.07.2016 02:44 12,8 C 86 % 1024,2 hPa 0,0 l/m 5,0 km/h (1 Bft) W-SW 248 0 min 0,000 mm 0,0 UV-I 0 W/m 10,5 C 12,8 C 8,0 km/h (2 Bft) 100,00 %
16.07.2016 02:46 12,8 C 87 % 1024,1 hPa 0,0 l/m 6,0 km/h (2 Bft) S-SW 211 0 min 0,000 mm 0,0 UV-I 0 W/m 10,7 C 12,8 C 9,7 km/h (2 Bft) 97,87 %
16.07.2016 02:48 12,8 C 87 % 1024,1 hPa 0,0 l/m 5,6 km/h (1 Bft) W-SW 246 0 min 0,000 mm 0,0 UV-I 0 W/m 10,7 C 12,8 C 9,7 km/h (2 Bft) 100,00 %
16.07.2016 02:50 12,8 C 87 % 1024,1 hPa 0,0 l/m 6,1 km/h (2 Bft) W-SW 250 0 min 0,000 mm 0,0 UV-I 0 W/m 10,7 C 12,8 C 8,0 km/h (2 Bft) 100,00 %
16.07.2016 02:52 12,8 C 87 % 1024,2 hPa 0,0 l/m 5,5 km/h (1 Bft) W-SW 238 0 min 0,000 mm 0,0 UV-I 0 W/m 10,7 C 12,8 C 11,3 km/h (2 Bft) 100,00 %
16.07.2016 02:54 12,8 C 87 % 1024,1 hPa 0,0 l/m 6,0 km/h (2 Bft) W-SW 250 0 min 0,000 mm 0,0 UV-I 0 W/m 10,7 C 12,8 C 8,0 km/h (2 Bft) 100,00 %
16.07.2016 02:56 12,8 C 87 % 1024,1 hPa 0,0 l/m 4,6 km/h (1 Bft) W-SW 252 0 min 0,000 mm 0,0 UV-I 0 W/m 10,7 C 12,8 C 6,4 km/h (2 Bft) 100,00 %
16.07.2016 02:58 12,8 C 87 % 1024,1 hPa 0,0 l/m 6,5 km/h (2 Bft) SW 220 0 min 0,000 mm 0,0 UV-I 0 W/m 10,7 C 12,8 C 11,3 km/h (2 Bft) 97,37 %
16.07.2016 03:00 12,8 C 87 % 1024,1 hPa 0,0 l/m 6,0 km/h (2 Bft) W-SW 245 0 min 0,000 mm 0,0 UV-I 0 W/m 10,7 C 12,8 C 11,3 km/h (2 Bft) 100,00 %
16.07.2016 03:02 12,8 C 87 % 1024,1 hPa 0,0 l/m 6,6 km/h (2 Bft) W-SW 249 0 min 0,000 mm 0,0 UV-I 0 W/m 10,7 C 12,7 C 9,7 km/h (2 Bft) 97,87 %
16.07.2016 03:04 12,8 C 88 % 1024,1 hPa 0,0 l/m 6,8 km/h (2 Bft) W-SW 242 0 min 0,000 mm 0,0 UV-I 0 W/m 10,9 C 12,6 C 11,3 km/h (2 Bft) 98,00 %
16.07.2016 03:06 12,8 C 88 % 1024,0 hPa 0,0 l/m 7,2 km/h (2 Bft) W-SW 241 0 min 0,000 mm 0,0 UV-I 0 W/m 10,9 C 12,3 C 14,5 km/h (3 Bft) 100,00 %
16.07.2016 03:08 12,8 C 88 % 1024,0 hPa 0,0 l/m 6,6 km/h (2 Bft) W-SW 250 0 min 0,000 mm 0,0 UV-I 0 W/m 10,9 C 12,7 C 11,3 km/h (2 Bft) 100,00 %
16.07.2016 03:10 12,8 C 88 % 1024,0 hPa 0,0 l/m 6,5 km/h (2 Bft) SW 225 0 min 0,000 mm 0,0 UV-I 0 W/m 10,9 C 12,8 C 9,7 km/h (2 Bft) 100,00 %
16.07.2016 03:12 12,8 C 88 % 1024,0 hPa 0,0 l/m 6,6 km/h (2 Bft) W-SW 243 0 min 0,000 mm 0,0 UV-I 0 W/m 10,9 C 12,7 C 11,3 km/h (2 Bft) 96,00 %
16.07.2016 03:14 12,8 C 88 % 1024,0 hPa 0,0 l/m 6,8 km/h (2 Bft) SW 224 0 min 0,000 mm 0,0 UV-I 0 W/m 10,9 C 12,6 C 11,3 km/h (2 Bft) 100,00 %
16.07.2016 03:16 12,8 C 88 % 1023,9 hPa 0,0 l/m 6,8 km/h (2 Bft) SW 223 0 min 0,000 mm 0,0 UV-I 0 W/m 10,9 C 12,6 C 11,3 km/h (2 Bft) 100,00 %
16.07.2016 03:18 12,7 C 88 % 1023,9 hPa 0,0 l/m 7,1 km/h (2 Bft) W 269 0 min 0,000 mm 0,0 UV-I 0 W/m 10,8 C 12,3 C 11,3 km/h (2 Bft) 98,11 %
16.07.2016 03:20 12,7 C 88 % 1023,9 hPa 0,0 l/m 6,8 km/h (2 Bft) W-SW 248 0 min 0,000 mm 0,0 UV-I 0 W/m 10,8 C 12,5 C 11,3 km/h (2 Bft) 96,00 %
16.07.2016 03:22 12,7 C 89 % 1023,9 hPa 0,0 l/m 7,0 km/h (2 Bft) W-SW 250 0 min 0,000 mm 0,0 UV-I 0 W/m 10,9 C 12,3 C 9,7 km/h (2 Bft) 97,37 %
16.07.2016 03:24 12,7 C 89 % 1023,9 hPa 0,0 l/m 6,6 km/h (2 Bft) W-SW 244 0 min 0,000 mm 0,0 UV-I 0 W/m 10,9 C 12,6 C 9,7 km/h (2 Bft) 98,21 %
16.07.2016 03:26 12,7 C 89 % 1023,8 hPa 0,0 l/m 6,2 km/h (2 Bft) SW 233 0 min 0,000 mm 0,0 UV-I 0 W/m 10,9 C 12,7 C 11,3 km/h (2 Bft) 97,56 %
16.07.2016 03:28 12,7 C 89 % 1023,7 hPa 0,0 l/m 6,8 km/h (2 Bft) W-SW 239 0 min 0,000 mm 0,0 UV-I 0 W/m 10,9 C 12,5 C 11,3 km/h (2 Bft) 98,00 %
16.07.2016 03:30 12,7 C 89 % 1023,7 hPa 0,0 l/m 8,7 km/h (2 Bft) W 259 0 min 0,000 mm 0,0 UV-I 0 W/m 10,9 C 11,3 C 12,9 km/h (3 Bft) 97,37 %
16.07.2016 03:32 12,7 C 89 % 1023,7 hPa 0,0 l/m 8,1 km/h (2 Bft) W-SW 254 0 min 0,000 mm 0,0 UV-I 0 W/m 10,9 C 11,6 C 12,9 km/h (3 Bft) 96,23 %
16.07.2016 03:34 12,7 C 89 % 1023,7 hPa 0,0 l/m 7,8 km/h (2 Bft) W-SW 237 0 min 0,000 mm 0,0 UV-I 0 W/m 10,9 C 11,8 C 11,3 km/h (2 Bft) 97,87 %
16.07.2016 03:36 12,7 C 89 % 1023,7 hPa 0,0 l/m 5,6 km/h (1 Bft) SW 226 0 min 0,000 mm 0,0 UV-I 0 W/m 10,9 C 12,7 C 8,0 km/h (2 Bft) 98,00 %
16.07.2016 03:38 12,7 C 89 % 1023,7 hPa 0,0 l/m 7,2 km/h (2 Bft) W-SW 241 0 min 0,000 mm 0,0 UV-I 0 W/m 10,9 C 12,2 C 12,9 km/h (3 Bft) 97,73 %
16.07.2016 03:40 12,7 C 89 % 1023,7 hPa 0,0 l/m 6,4 km/h (2 Bft) W-SW 255 0 min 0,000 mm 0,0 UV-I 0 W/m 10,9 C 12,7 C 11,3 km/h (2 Bft) 98,00 %
16.07.2016 03:42 12,7 C 89 % 1023,7 hPa 0,0 l/m 7,4 km/h (2 Bft) SW 226 0 min 0,000 mm 0,0 UV-I 0 W/m 10,9 C 12,1 C 11,3 km/h (2 Bft) 97,56 %
16.07.2016 03:44 12,7 C 89 % 1023,6 hPa 0,0 l/m 6,4 km/h (2 Bft) W-SW 257 0 min 0,000 mm 0,0 UV-I 0 W/m 10,9 C 12,7 C 12,9 km/h (3 Bft) 98,00 %
16.07.2016 03:46 12,7 C 89 % 1023,6 hPa 0,0 l/m 9,8 km/h (2 Bft) W-SW 244 0 min 0,000 mm 0,0 UV-I 0 W/m 10,9 C 10,7 C 16,1 km/h (3 Bft) 97,92 %
16.07.2016 03:48 12,7 C 89 % 1023,6 hPa 0,0 l/m 6,7 km/h (2 Bft) W 271 0 min 0,000 mm 0,0 UV-I 0 W/m 10,9 C 12,5 C 11,3 km/h (2 Bft) 95,92 %
16.07.2016 03:50 12,7 C 90 % 1023,6 hPa 0,0 l/m 8,0 km/h (2 Bft) W-SW 253 0 min 0,000 mm 0,0 UV-I 0 W/m 11,1 C 11,7 C 11,3 km/h (2 Bft) 94,87 %
16.07.2016 03:52 12,7 C 89 % 1023,6 hPa 0,0 l/m 7,8 km/h (2 Bft) W-NW 283 0 min 0,000 mm 0,0 UV-I 0 W/m 10,9 C 11,8 C 11,3 km/h (2 Bft) 97,73 %
16.07.2016 03:54 12,7 C 90 % 1023,6 hPa 0,0 l/m 9,3 km/h (2 Bft) W-SW 244 0 min 0,000 mm 0,0 UV-I 0 W/m 11,1 C 10,9 C 14,5 km/h (3 Bft) 92,86 %
16.07.2016 03:56 12,7 C 90 % 1023,6 hPa 0,0 l/m 8,9 km/h (2 Bft) W-SW 244 0 min 0,000 mm 0,0 UV-I 0 W/m 11,1 C 11,2 C 12,9 km/h (3 Bft) 100,00 %
16.07.2016 03:58 12,7 C 89 % 1023,6 hPa 0,0 l/m 9,2 km/h (2 Bft) W-SW 256 0 min 0,000 mm 0,0 UV-I 0 W/m 10,9 C 11,0 C 12,9 km/h (3 Bft) 100,00 %
16.07.2016 04:00 12,7 C 90 % 1023,6 hPa 0,0 l/m 8,8 km/h (2 Bft) W-SW 251 0 min 0,000 mm 0,0 UV-I 0 W/m 11,1 C 11,2 C 12,9 km/h (3 Bft) 97,37 %
16.07.2016 04:02 12,7 C 90 % 1023,6 hPa 0,0 l/m 7,1 km/h (2 Bft) W 273 0 min 0,000 mm 0,0 UV-I 0 W/m 11,1 C 12,3 C 12,9 km/h (3 Bft) 98,21 %
16.07.2016 04:04 12,7 C 89 % 1023,6 hPa 0,0 l/m 7,3 km/h (2 Bft) W 259 0 min 0,000 mm 0,0 UV-I 0 W/m 10,9 C 12,1 C 11,3 km/h (2 Bft) 97,73 %
16.07.2016 04:06 12,7 C 90 % 1023,6 hPa 0,0 l/m 8,9 km/h (2 Bft) W-SW 244 0 min 0,000 mm 0,0 UV-I 0 W/m 11,1 C 11,2 C 12,9 km/h (3 Bft) 100,00 %
16.07.2016 04:08 12,7 C 90 % 1023,6 hPa 0,0 l/m 6,8 km/h (2 Bft) SW 235 0 min 0,000 mm 0,0 UV-I 0 W/m 11,1 C 12,5 C 9,7 km/h (2 Bft) 100,00 %
16.07.2016 04:10 12,7 C 89 % 1023,6 hPa 0,0 l/m 8,4 km/h (2 Bft) SW 220 0 min 0,000 mm 0,0 UV-I 0 W/m 10,9 C 11,5 C 12,9 km/h (3 Bft) 95,12 %
16.07.2016 04:12 12,7 C 89 % 1023,7 hPa 0,0 l/m 6,1 km/h (2 Bft) SW 215 0 min 0,000 mm 0,0 UV-I 0 W/m 10,9 C 12,7 C 8,0 km/h (2 Bft) 100,00 %
16.07.2016 04:14 12,7 C 90 % 1023,7 hPa 0,0 l/m 7,0 km/h (2 Bft) W-SW 243 0 min 0,000 mm 0,0 UV-I 0 W/m 11,1 C 12,3 C 11,3 km/h (2 Bft) 100,00 %
16.07.2016 04:16 12,6 C 89 % 1023,7 hPa 0,0 l/m 5,5 km/h (1 Bft) S-SW 209 0 min 0,000 mm 0,0 UV-I 0 W/m 10,8 C 12,6 C 9,7 km/h (2 Bft) 100,00 %
16.07.2016 04:18 12,6 C 90 % 1023,7 hPa 0,0 l/m 5,9 km/h (2 Bft) SW 221 0 min 0,000 mm 0,0 UV-I 0 W/m 11,0 C 12,6 C 9,7 km/h (2 Bft) 100,00 %
16.07.2016 04:20 12,6 C 90 % 1023,7 hPa 0,0 l/m 6,1 km/h (2 Bft) SW 218 0 min 0,000 mm 0,0 UV-I 0 W/m 11,0 C 12,6 C 9,7 km/h (2 Bft) 100,00 %
16.07.2016 04:22 12,6 C 90 % 1023,7 hPa 0,0 l/m 7,8 km/h (2 Bft) S-SW 209 0 min 0,000 mm 0,0 UV-I 0 W/m 11,0 C 11,7 C 11,3 km/h (2 Bft) 100,00 %
16.07.2016 04:24 12,6 C 90 % 1023,6 hPa 0,0 l/m 7,9 km/h (2 Bft) SW 217 0 min 0,000 mm 0,0 UV-I 0 W/m 11,0 C 11,6 C 11,3 km/h (2 Bft) 100,00 %
16.07.2016 04:26 12,6 C 90 % 1023,7 hPa 0,0 l/m 6,3 km/h (2 Bft) S-SW 212 0 min 0,000 mm 0,0 UV-I 0 W/m 11,0 C 12,6 C 9,7 km/h (2 Bft) 100,00 %
16.07.2016 04:28 12,6 C 90 % 1023,7 hPa 0,0 l/m 5,6 km/h (1 Bft) SW 231 0 min 0,000 mm 0,0 UV-I 0 W/m 11,0 C 12,6 C 8,0 km/h (2 Bft) 100,00 %
16.07.2016 04:30 12,6 C 90 % 1023,7 hPa 0,0 l/m 5,3 km/h (1 Bft) SW 226 0 min 0,000 mm 0,0 UV-I 0 W/m 11,0 C 12,6 C 8,0 km/h (2 Bft) 97,87 %
16.07.2016 04:32 12,6 C 91 % 1023,7 hPa 0,0 l/m 6,2 km/h (2 Bft) SW 231 0 min 0,000 mm 0,0 UV-I 0 W/m 11,2 C 12,6 C 8,0 km/h (2 Bft) 100,00 %
16.07.2016 04:34 12,5 C 91 % 1023,7 hPa 0,0 l/m 5,5 km/h (1 Bft) SW 227 0 min 0,000 mm 0,0 UV-I 0 W/m 11,1 C 12,5 C 9,7 km/h (2 Bft) 100,00 %
16.07.2016 04:36 12,5 C 91 % 1023,6 hPa 0,0 l/m 6,7 km/h (2 Bft) W-SW 243 0 min 0,000 mm 0,0 UV-I 0 W/m 11,1 C 12,3 C 11,3 km/h (2 Bft) 100,00 %
16.07.2016 04:38 12,4 C 91 % 1023,6 hPa 0,0 l/m 7,0 km/h (2 Bft) SW 221 0 min 0,000 mm 0,0 UV-I 0 W/m 11,0 C 12,0 C 11,3 km/h (2 Bft) 100,00 %
16.07.2016 04:40 12,4 C 91 % 1023,6 hPa 0,0 l/m 5,3 km/h (1 Bft) SW 230 0 min 0,000 mm 0,0 UV-I 0 W/m 11,0 C 12,4 C 8,0 km/h (2 Bft) 100,00 %
16.07.2016 04:42 12,4 C 91 % 1023,6 hPa 0,0 l/m 4,8 km/h (1 Bft) W-SW 255 0 min 0,000 mm 0,0 UV-I 0 W/m 11,0 C 12,4 C 9,7 km/h (2 Bft) 100,00 %
16.07.2016 04:44 12,4 C 91 % 1023,7 hPa 0,0 l/m 4,9 km/h (1 Bft) W-SW 256 0 min 0,000 mm 0,0 UV-I 0 W/m 11,0 C 12,4 C 8,0 km/h (2 Bft) 100,00 %
16.07.2016 04:46 12,4 C 91 % 1023,7 hPa 0,0 l/m 5,2 km/h (1 Bft) W-SW 241 0 min 0,000 mm 0,0 UV-I 0 W/m 11,0 C 12,4 C 8,0 km/h (2 Bft) 100,00 %
16.07.2016 04:48 12,4 C 91 % 1023,6 hPa 0,0 l/m 4,5 km/h (1 Bft) W 266 0 min 0,000 mm 0,0 UV-I 0 W/m 11,0 C 12,4 C 6,4 km/h (2 Bft) 100,00 %
16.07.2016 04:50 12,4 C 90 % 1023,7 hPa 0,0 l/m 5,0 km/h (1 Bft) SW 229 0 min 0,000 mm 0,0 UV-I 0 W/m 10,8 C 12,4 C 9,7 km/h (2 Bft) 100,00 %
16.07.2016 04:52 12,4 C 90 % 1023,7 hPa 0,0 l/m 5,3 km/h (1 Bft) W-SW 240 0 min 0,000 mm 0,0 UV-I 0 W/m 10,8 C 12,4 C 6,4 km/h (2 Bft) 100,00 %
16.07.2016 04:54 12,4 C 90 % 1023,7 hPa 0,0 l/m 4,6 km/h (1 Bft) W-SW 242 0 min 0,000 mm 0,0 UV-I 0 W/m 10,8 C 12,4 C 6,4 km/h (2 Bft) 100,00 %
16.07.2016 04:56 12,4 C 90 % 1023,7 hPa 0,0 l/m 5,4 km/h (1 Bft) W-SW 238 0 min 0,000 mm 0,0 UV-I 0 W/m 10,8 C 12,4 C 8,0 km/h (2 Bft) 100,00 %
16.07.2016 04:58 12,4 C 90 % 1023,7 hPa 0,0 l/m 5,3 km/h (1 Bft) SW 215 0 min 0,000 mm 0,0 UV-I 0 W/m 10,8 C 12,4 C 8,0 km/h (2 Bft) 97,87 %
16.07.2016 05:00 12,4 C 90 % 1023,7 hPa 0,0 l/m 5,2 km/h (1 Bft) W-SW 238 0 min 0,000 mm 0,0 UV-I 0 W/m 10,8 C 12,4 C 9,7 km/h (2 Bft) 100,00 %
16.07.2016 05:02 12,4 C 90 % 1023,7 hPa 0,0 l/m 4,2 km/h (1 Bft) W-SW 250 0 min 0,000 mm 0,0 UV-I 0 W/m 10,8 C 12,4 C 6,4 km/h (2 Bft) 100,00 %
16.07.2016 05:04 12,4 C 91 % 1023,8 hPa 0,0 l/m 5,4 km/h (1 Bft) W-SW 247 0 min 0,000 mm 0,0 UV-I 0 W/m 11,0 C 12,4 C 9,7 km/h (2 Bft) 100,00 %
16.07.2016 05:06 12,4 C 90 % 1023,8 hPa 0,0 l/m 4,2 km/h (1 Bft) SW 221 0 min 0,000 mm 0,0 UV-I 0 W/m 10,8 C 12,4 C 6,4 km/h (2 Bft) 97,62 %
16.07.2016 05:08 12,4 C 90 % 1023,8 hPa 0,0 l/m 4,7 km/h (1 Bft) SW 233 0 min 0,000 mm 0,0 UV-I 0 W/m 10,8 C 12,4 C 8,0 km/h (2 Bft) 98,11 %
16.07.2016 05:10 12,4 C 90 % 1023,8 hPa 0,0 l/m 4,5 km/h (1 Bft) SW 236 0 min 0,000 mm 0,0 UV-I 0 W/m 10,8 C 12,4 C 9,7 km/h (2 Bft) 100,00 %
16.07.2016 05:12 12,4 C 90 % 1023,9 hPa 0,0 l/m 5,4 km/h (1 Bft) SW 224 0 min 0,000 mm 0,0 UV-I 0 W/m 10,8 C 12,4 C 8,0 km/h (2 Bft) 100,00 %
16.07.2016 05:14 12,3 C 90 % 1023,9 hPa 0,0 l/m 5,3 km/h (1 Bft) SW 236 0 min 0,000 mm 0,0 UV-I 0 W/m 10,7 C 12,3 C 8,0 km/h (2 Bft) 100,00 %
16.07.2016 05:16 12,3 C 91 % 1023,9 hPa 0,0 l/m 4,1 km/h (1 Bft) W-SW 249 0 min 0,000 mm 0,0 UV-I 0 W/m 10,9 C 12,3 C 6,4 km/h (2 Bft) 97,87 %
16.07.2016 05:18 12,3 C 91 % 1023,8 hPa 0,0 l/m 5,1 km/h (1 Bft) W-SW 257 0 min 0,000 mm 0,0 UV-I 0 W/m 10,9 C 12,3 C 6,4 km/h (2 Bft) 100,00 %
16.07.2016 05:20 12,3 C 91 % 1023,8 hPa 0,0 l/m 5,3 km/h (1 Bft) W-SW 255 0 min 0,000 mm 0,0 UV-I 0 W/m 10,9 C 12,3 C 9,7 km/h (2 Bft) 97,37 %
16.07.2016 05:22 12,3 C 91 % 1023,8 hPa 0,0 l/m 5,9 km/h (2 Bft) W-SW 253 0 min 0,000 mm 0,0 UV-I 0 W/m 10,9 C 12,3 C 8,0 km/h (2 Bft) 96,23 %
16.07.2016 05:24 12,3 C 91 % 1023,8 hPa 0,0 l/m 5,0 km/h (1 Bft) W-SW 258 0 min 0,000 mm 0,0 UV-I 0 W/m 10,9 C 12,3 C 6,4 km/h (2 Bft) 97,87 %
16.07.2016 05:26 12,3 C 91 % 1023,8 hPa 0,0 l/m 5,3 km/h (1 Bft) W-SW 252 0 min 0,000 mm 0,0 UV-I 0 W/m 10,9 C 12,3 C 6,4 km/h (2 Bft) 98,00 %
16.07.2016 05:28 12,3 C 91 % 1023,8 hPa 0,0 l/m 5,2 km/h (1 Bft) W-SW 254 0 min 0,000 mm 0,0 UV-I 0 W/m 10,9 C 12,3 C 8,0 km/h (2 Bft) 97,87 %
16.07.2016 05:30 12,3 C 91 % 1023,9 hPa 0,0 l/m 6,1 km/h (2 Bft) W 263 0 min 0,000 mm 0,0 UV-I 5 W/m 10,9 C 12,3 C 9,7 km/h (2 Bft) 98,00 %
16.07.2016 05:32 12,3 C 90 % 1023,9 hPa 0,0 l/m 5,4 km/h (1 Bft) W-SW 254 0 min 0,000 mm 0,0 UV-I 5 W/m 10,7 C 12,3 C 8,0 km/h (2 Bft) 95,74 %
16.07.2016 05:34 12,3 C 90 % 1023,9 hPa 0,0 l/m 7,1 km/h (2 Bft) W-SW 250 0 min 0,000 mm 0,0 UV-I 6 W/m 10,7 C 11,8 C 11,3 km/h (2 Bft) 97,56 %
16.07.2016 05:36 12,3 C 90 % 1023,8 hPa 0,0 l/m 6,9 km/h (2 Bft) W 261 0 min 0,000 mm 0,0 UV-I 7 W/m 10,7 C 12,0 C 11,3 km/h (2 Bft) 96,00 %
16.07.2016 05:38 12,3 C 90 % 1023,8 hPa 0,0 l/m 6,8 km/h (2 Bft) W 262 0 min 0,000 mm 0,0 UV-I 7 W/m 10,7 C 12,0 C 11,3 km/h (2 Bft) 95,45 %
16.07.2016 05:40 12,3 C 90 % 1023,9 hPa 0,0 l/m 6,3 km/h (2 Bft) W 263 0 min 0,000 mm 0,0 UV-I 9 W/m 10,7 C 12,3 C 9,7 km/h (2 Bft) 96,23 %
16.07.2016 05:42 12,3 C 90 % 1023,9 hPa 0,0 l/m 6,6 km/h (2 Bft) W-SW 254 0 min 0,000 mm 0,0 UV-I 11 W/m 10,7 C 12,2 C 9,7 km/h (2 Bft) 97,22 %
16.07.2016 05:44 12,3 C 90 % 1023,9 hPa 0,0 l/m 7,3 km/h (2 Bft) W-SW 253 0 min 0,000 mm 0,0 UV-I 13 W/m 10,7 C 11,7 C 11,3 km/h (2 Bft) 98,11 %
16.07.2016 05:46 12,3 C 90 % 1024,0 hPa 0,0 l/m 6,7 km/h (2 Bft) W-SW 248 0 min 0,000 mm 0,0 UV-I 15 W/m 10,7 C 12,1 C 8,0 km/h (2 Bft) 97,96 %
16.07.2016 05:48 12,3 C 90 % 1024,0 hPa 0,0 l/m 6,9 km/h (2 Bft) W-SW 258 0 min 0,000 mm 0,0 UV-I 17 W/m 10,7 C 12,0 C 11,3 km/h (2 Bft) 97,44 %
16.07.2016 05:50 12,3 C 90 % 1024,0 hPa 0,0 l/m 8,4 km/h (2 Bft) W-SW 255 0 min 0,000 mm 0,0 UV-I 19 W/m 10,7 C 11,0 C 12,9 km/h (3 Bft) 97,87 %
16.07.2016 05:52 12,3 C 89 % 1024,0 hPa 0,0 l/m 7,3 km/h (2 Bft) W-SW 248 0 min 0,000 mm 0,0 UV-I 20 W/m 10,5 C 11,7 C 12,9 km/h (3 Bft) 97,73 %
16.07.2016 05:54 12,4 C 89 % 1024,0 hPa 0,0 l/m 7,1 km/h (2 Bft) W-SW 249 0 min 0,000 mm 0,0 UV-I 22 W/m 10,6 C 11,9 C 9,7 km/h (2 Bft) 98,21 %
16.07.2016 05:56 12,4 C 89 % 1024,0 hPa 0,0 l/m 7,5 km/h (2 Bft) W-SW 254 0 min 0,000 mm 0,0 UV-I 23 W/m 10,6 C 11,7 C 12,9 km/h (3 Bft) 97,87 %
16.07.2016 05:58 12,4 C 89 % 1024,0 hPa 0,0 l/m 6,0 km/h (2 Bft) W-SW 247 0 min 0,000 mm 0,0 UV-I 25 W/m 10,6 C 12,4 C 9,7 km/h (2 Bft) 100,00 %
16.07.2016 06:00 12,4 C 89 % 1024,0 hPa 0,0 l/m 6,3 km/h (2 Bft) W-SW 247 0 min 0,000 mm 0,0 UV-I 25 W/m 10,6 C 12,4 C 8,0 km/h (2 Bft) 95,74 %
16.07.2016 06:02 12,4 C 89 % 1024,1 hPa 0,0 l/m 7,5 km/h (2 Bft) W-SW 246 0 min 0,000 mm 0,0 UV-I 26 W/m 10,6 C 11,7 C 11,3 km/h (2 Bft) 100,00 %
16.07.2016 06:04 12,4 C 89 % 1024,1 hPa 0,0 l/m 6,2 km/h (2 Bft) W-SW 254 0 min 0,000 mm 0,0 UV-I 26 W/m 10,6 C 12,4 C 11,3 km/h (2 Bft) 100,00 %
16.07.2016 06:06 12,4 C 89 % 1024,1 hPa 0,0 l/m 6,4 km/h (2 Bft) W 259 0 min 0,000 mm 0,0 UV-I 26 W/m 10,6 C 12,4 C 11,3 km/h (2 Bft) 98,00 %
16.07.2016 06:08 12,4 C 89 % 1024,0 hPa 0,0 l/m 5,9 km/h (2 Bft) W-SW 244 0 min 0,000 mm 0,0 UV-I 28 W/m 10,6 C 12,4 C 9,7 km/h (2 Bft) 100,00 %
16.07.2016 06:10 12,4 C 89 % 1023,9 hPa 0,0 l/m 8,0 km/h (2 Bft) W-SW 257 0 min 0,000 mm 0,0 UV-I 30 W/m 10,6 C 11,4 C 11,3 km/h (2 Bft) 100,00 %
16.07.2016 06:12 12,4 C 89 % 1024,0 hPa 0,0 l/m 8,2 km/h (2 Bft) W 275 0 min 0,000 mm 0,0 UV-I 31 W/m 10,6 C 11,3 C 12,9 km/h (3 Bft) 100,00 %
16.07.2016 06:14 12,4 C 89 % 1023,9 hPa 0,0 l/m 8,4 km/h (2 Bft) W-SW 250 0 min 0,000 mm 0,0 UV-I 33 W/m 10,6 C 11,1 C 11,3 km/h (2 Bft) 100,00 %
16.07.2016 06:16 12,5 C 89 % 1023,9 hPa 0,0 l/m 6,4 km/h (2 Bft) W-SW 254 0 min 0,000 mm 0,0 UV-I 35 W/m 10,7 C 12,5 C 8,0 km/h (2 Bft) 95,45 %
16.07.2016 06:18 12,5 C 89 % 1023,9 hPa 0,0 l/m 8,2 km/h (2 Bft) W-SW 241 0 min 0,000 mm 0,0 UV-I 38 W/m 10,7 C 11,4 C 14,5 km/h (3 Bft) 100,00 %
16.07.2016 06:20 12,6 C 89 % 1023,9 hPa 0,0 l/m 9,4 km/h (2 Bft) W-SW 252 0 min 0,000 mm 0,0 UV-I 39 W/m 10,8 C 10,8 C 12,9 km/h (3 Bft) 100,00 %
16.07.2016 06:22 12,6 C 89 % 1023,8 hPa 0,0 l/m 8,3 km/h (2 Bft) W 266 0 min 0,000 mm 0,0 UV-I 41 W/m 10,8 C 11,4 C 11,3 km/h (2 Bft) 100,00 %
16.07.2016 06:24 12,6 C 89 % 1023,8 hPa 0,0 l/m 8,2 km/h (2 Bft) SW 236 0 min 0,000 mm 0,0 UV-I 44 W/m 10,8 C 11,5 C 12,9 km/h (3 Bft) 100,00 %
16.07.2016 06:26 12,6 C 88 % 1023,8 hPa 0,0 l/m 9,1 km/h (2 Bft) W-SW 256 0 min 0,000 mm 0,0 UV-I 44 W/m 10,7 C 10,9 C 14,5 km/h (3 Bft) 100,00 %
16.07.2016 06:28 12,6 C 88 % 1023,8 hPa 0,0 l/m 8,6 km/h (2 Bft) W-SW 246 0 min 0,000 mm 0,0 UV-I 44 W/m 10,7 C 11,2 C 12,9 km/h (3 Bft) 100,00 %
16.07.2016 06:30 12,7 C 88 % 1023,8 hPa 0,0 l/m 8,9 km/h (2 Bft) W 275 0 min 0,000 mm 0,0 UV-I 44 W/m 10,8 C 11,2 C 12,9 km/h (3 Bft) 100,00 %
16.07.2016 06:32 12,7 C 88 % 1023,8 hPa 0,0 l/m 8,6 km/h (2 Bft) W-SW 257 0 min 0,000 mm 0,0 UV-I 46 W/m 10,8 C 11,3 C 12,9 km/h (3 Bft) 100,00 %
16.07.2016 06:34 12,7 C 87 % 1023,8 hPa 0,0 l/m 10,0 km/h (2 Bft) W-SW 252 0 min 0,000 mm 0,0 UV-I 46 W/m 10,6 C 10,6 C 17,7 km/h (3 Bft) 100,00 %
16.07.2016 06:36 12,7 C 87 % 1023,8 hPa 0,0 l/m 11,2 km/h (2 Bft) W-SW 254 0 min 0,000 mm 0,0 UV-I 46 W/m 10,6 C 10,0 C 16,1 km/h (3 Bft) 100,00 %
16.07.2016 06:38 12,7 C 87 % 1023,7 hPa 0,0 l/m 11,6 km/h (2 Bft) W-SW 255 0 min 0,000 mm 0,0 UV-I 46 W/m 10,6 C 9,8 C 17,7 km/h (3 Bft) 98,11 %
16.07.2016 06:40 12,7 C 87 % 1023,7 hPa 0,0 l/m 8,9 km/h (2 Bft) W-SW 257 0 min 0,000 mm 0,0 UV-I 47 W/m 10,6 C 11,2 C 12,9 km/h (3 Bft) 100,00 %
16.07.2016 06:42 12,8 C 87 % 1023,7 hPa 0,0 l/m 8,1 km/h (2 Bft) W-SW 258 0 min 0,000 mm 0,0 UV-I 51 W/m 10,7 C 11,7 C 11,3 km/h (2 Bft) 100,00 %
16.07.2016 06:44 12,8 C 87 % 1023,6 hPa 0,0 l/m 8,8 km/h (2 Bft) W 264 0 min 0,000 mm 0,0 UV-I 56 W/m 10,7 C 11,3 C 14,5 km/h (3 Bft) 100,00 %
16.07.2016 06:46 12,8 C 87 % 1023,6 hPa 0,0 l/m 8,9 km/h (2 Bft) W-SW 240 0 min 0,000 mm 0,0 UV-I 61 W/m 10,7 C 11,3 C 12,9 km/h (3 Bft) 100,00 %
16.07.2016 06:48 12,8 C 86 % 1023,5 hPa 0,0 l/m 10,1 km/h (2 Bft) W-SW 257 0 min 0,000 mm 0,0 UV-I 65 W/m 10,5 C 10,6 C 16,1 km/h (3 Bft) 100,00 %
16.07.2016 06:50 12,8 C 86 % 1023,5 hPa 0,0 l/m 8,9 km/h (2 Bft) W-SW 254 0 min 0,000 mm 0,0 UV-I 69 W/m 10,5 C 11,3 C 12,9 km/h (3 Bft) 100,00 %
16.07.2016 06:52 12,8 C 86 % 1023,4 hPa 0,0 l/m 11,4 km/h (2 Bft) W-NW 292 0 min 0,000 mm 0,0 UV-I 71 W/m 10,5 C 10,0 C 19,3 km/h (3 Bft) 100,00 %
16.07.2016 06:54 12,8 C 86 % 1023,4 hPa 0,0 l/m 9,5 km/h (2 Bft) W-SW 253 0 min 0,000 mm 0,0 UV-I 76 W/m 10,5 C 10,9 C 14,5 km/h (3 Bft) 100,00 %
16.07.2016 06:56 12,9 C 86 % 1023,5 hPa 0,0 l/m 9,5 km/h (2 Bft) W-SW 252 0 min 0,000 mm 0,0 UV-I 79 W/m 10,6 C 11,1 C 14,5 km/h (3 Bft) 100,00 %
16.07.2016 06:58 12,9 C 86 % 1023,5 hPa 0,0 l/m 7,7 km/h (2 Bft) SW 233 0 min 0,000 mm 0,0 UV-I 81 W/m 10,6 C 12,1 C 12,9 km/h (3 Bft) 100,00 %
16.07.2016 07:00 12,9 C 86 % 1023,5 hPa 0,0 l/m 10,5 km/h (2 Bft) W 279 0 min 0,025 mm 0,0 UV-I 82 W/m 10,6 C 10,5 C 14,5 km/h (3 Bft) 100,00 %
16.07.2016 07:02 12,9 C 86 % 1023,5 hPa 0,0 l/m 9,5 km/h (2 Bft) W-SW 250 0 min 0,000 mm 0,0 UV-I 85 W/m 10,6 C 11,1 C 12,9 km/h (3 Bft) 100,00 %
16.07.2016 07:04 12,9 C 86 % 1023,5 hPa 0,0 l/m 6,0 km/h (2 Bft) W-SW 238 0 min 0,000 mm 0,0 UV-I 89 W/m 10,6 C 12,9 C 8,0 km/h (2 Bft) 100,00 %
16.07.2016 07:06 13,0 C 86 % 1023,5 hPa 0,0 l/m 8,0 km/h (2 Bft) W-SW 248 0 min 0,000 mm 0,0 UV-I 93 W/m 10,7 C 12,0 C 12,9 km/h (3 Bft) 100,00 %
16.07.2016 07:08 13,0 C 86 % 1023,5 hPa 0,0 l/m 9,2 km/h (2 Bft) W-SW 250 0 min 0,000 mm 0,0 UV-I 97 W/m 10,7 C 11,3 C 12,9 km/h (3 Bft) 100,00 %
16.07.2016 07:10 13,1 C 85 % 1023,5 hPa 0,0 l/m 6,7 km/h (2 Bft) W-SW 257 0 min 0,000 mm 0,0 UV-I 97 W/m 10,6 C 12,9 C 14,5 km/h (3 Bft) 100,00 %
16.07.2016 07:12 13,1 C 85 % 1023,5 hPa 0,0 l/m 9,2 km/h (2 Bft) W-SW 251 0 min 0,000 mm 0,0 UV-I 92 W/m 10,6 C 11,4 C 17,7 km/h (3 Bft) 100,00 %
16.07.2016 07:14 13,1 C 85 % 1023,6 hPa 0,0 l/m 9,2 km/h (2 Bft) W-SW 249 0 min 0,000 mm 0,0 UV-I 85 W/m 10,6 C 11,4 C 12,9 km/h (3 Bft) 100,00 %
16.07.2016 07:16 13,1 C 84 % 1023,6 hPa 0,0 l/m 7,7 km/h (2 Bft) W-SW 244 0 min 0,000 mm 0,0 UV-I 79 W/m 10,5 C 12,3 C 14,5 km/h (3 Bft) 100,00 %
16.07.2016 07:18 13,1 C 84 % 1023,6 hPa 0,0 l/m 8,0 km/h (2 Bft) W-SW 241 0 min 0,000 mm 0,0 UV-I 76 W/m 10,5 C 12,1 C 12,9 km/h (3 Bft) 100,00 %
16.07.2016 07:20 13,1 C 83 % 1023,6 hPa 0,0 l/m 8,5 km/h (2 Bft) SW 234 0 min 0,000 mm 0,0 UV-I 76 W/m 10,3 C 11,8 C 12,9 km/h (3 Bft) 98,11 %
16.07.2016 07:22 13,2 C 83 % 1023,6 hPa 0,0 l/m 5,6 km/h (1 Bft) W 269 0 min 0,000 mm 0,0 UV-I 77 W/m 10,4 C 13,2 C 11,3 km/h (2 Bft) 95,45 %
16.07.2016 07:24 13,2 C 83 % 1023,6 hPa 0,0 l/m 5,8 km/h (2 Bft) W-SW 248 0 min 0,000 mm 0,0 UV-I 81 W/m 10,4 C 13,2 C 11,3 km/h (2 Bft) 97,56 %
16.07.2016 07:26 13,2 C 84 % 1023,6 hPa 0,0 l/m 6,4 km/h (2 Bft) W-SW 257 0 min 0,000 mm 0,0 UV-I 85 W/m 10,6 C 13,2 C 9,7 km/h (2 Bft) 97,87 %
16.07.2016 07:28 13,2 C 83 % 1023,7 hPa 0,0 l/m 5,0 km/h (1 Bft) W 278 0 min 0,000 mm 0,0 UV-I 89 W/m 10,4 C 13,2 C 11,3 km/h (2 Bft) 96,00 %
16.07.2016 07:30 13,2 C 83 % 1023,7 hPa 0,0 l/m 4,6 km/h (1 Bft) W-NW 288 0 min 0,000 mm 0,0 UV-I 92 W/m 10,4 C 13,2 C 6,4 km/h (2 Bft) 98,11 %
16.07.2016 07:32 13,2 C 83 % 1023,8 hPa 0,0 l/m 7,0 km/h (2 Bft) W-SW 246 0 min 0,000 mm 0,0 UV-I 95 W/m 10,4 C 12,8 C 12,9 km/h (3 Bft) 94,74 %
16.07.2016 07:34 13,2 C 83 % 1023,7 hPa 0,0 l/m 8,0 km/h (2 Bft) W-SW 258 0 min 0,000 mm 0,0 UV-I 104 W/m 10,4 C 12,2 C 16,1 km/h (3 Bft) 94,64 %
16.07.2016 07:36 13,2 C 83 % 1023,7 hPa 0,0 l/m 7,9 km/h (2 Bft) W-SW 252 0 min 0,000 mm 0,0 UV-I 114 W/m 10,4 C 12,3 C 14,5 km/h (3 Bft) 97,62 %
16.07.2016 07:38 13,3 C 82 % 1023,7 hPa 0,0 l/m 7,4 km/h (2 Bft) W 261 0 min 0,000 mm 0,0 UV-I 123 W/m 10,3 C 12,7 C 16,1 km/h (3 Bft) 98,00 %
16.07.2016 07:40 13,3 C 83 % 1023,7 hPa 0,0 l/m 6,7 km/h (2 Bft) W 268 0 min 0,000 mm 0,0 UV-I 130 W/m 10,5 C 13,1 C 12,9 km/h (3 Bft) 97,22 %
16.07.2016 07:42 13,3 C 83 % 1023,7 hPa 0,0 l/m 8,6 km/h (2 Bft) W-NW 290 0 min 0,000 mm 0,0 UV-I 142 W/m 10,5 C 12,0 C 14,5 km/h (3 Bft) 98,00 %
16.07.2016 07:44 13,4 C 83 % 1023,7 hPa 0,0 l/m 7,0 km/h (2 Bft) W-SW 245 0 min 0,000 mm 0,0 UV-I 148 W/m 10,6 C 13,0 C 12,9 km/h (3 Bft) 98,00 %
16.07.2016 07:46 13,4 C 82 % 1023,6 hPa 0,0 l/m 6,0 km/h (2 Bft) W-SW 252 0 min 0,000 mm 0,5 UV-I 157 W/m 10,4 C 13,4 C 11,3 km/h (2 Bft) 98,11 %
16.07.2016 07:48 13,4 C 82 % 1023,6 hPa 0,0 l/m 11,3 km/h (2 Bft) W-SW 242 0 min 0,000 mm 0,5 UV-I 165 W/m 10,4 C 10,7 C 16,1 km/h (3 Bft) 97,56 %
16.07.2016 07:50 13,5 C 82 % 1023,7 hPa 0,0 l/m 6,2 km/h (2 Bft) W-NW 298 0 min 0,000 mm 0,5 UV-I 170 W/m 10,5 C 13,5 C 11,3 km/h (2 Bft) 97,87 %
16.07.2016 07:52 13,6 C 83 % 1023,8 hPa 0,0 l/m 7,8 km/h (2 Bft) W-SW 248 0 min 0,000 mm 0,5 UV-I 174 W/m 10,8 C 12,7 C 14,5 km/h (3 Bft) 93,62 %
16.07.2016 07:54 13,7 C 82 % 1023,8 hPa 0,0 l/m 6,9 km/h (2 Bft) W-SW 244 0 min 0,000 mm 0,5 UV-I 179 W/m 10,7 C 13,4 C 11,3 km/h (2 Bft) 100,00 %
16.07.2016 07:56 13,7 C 82 % 1023,8 hPa 0,0 l/m 9,0 km/h (2 Bft) W-SW 255 0 min 0,000 mm 0,6 UV-I 182 W/m 10,7 C 12,2 C 14,5 km/h (3 Bft) 97,37 %
16.07.2016 07:58 13,7 C 81 % 1023,8 hPa 0,0 l/m 8,5 km/h (2 Bft) W-SW 246 0 min 0,000 mm 0,6 UV-I 196 W/m 10,5 C 12,5 C 16,1 km/h (3 Bft) 100,00 %
16.07.2016 08:00 13,7 C 82 % 1023,8 hPa 0,0 l/m 4,8 km/h (1 Bft) SW 223 0 min 0,076 mm 0,6 UV-I 201 W/m 10,7 C 13,7 C 11,3 km/h (2 Bft) 100,00 %
16.07.2016 08:02 13,8 C 82 % 1023,8 hPa 0,0 l/m 9,8 km/h (2 Bft) W-NW 286 0 min 0,000 mm 0,6 UV-I 201 W/m 10,8 C 11,9 C 14,5 km/h (3 Bft) 100,00 %
16.07.2016 08:04 13,8 C 82 % 1023,9 hPa 0,0 l/m 6,9 km/h (2 Bft) W 267 0 min 0,000 mm 0,6 UV-I 198 W/m 10,8 C 13,5 C 11,3 km/h (2 Bft) 100,00 %
16.07.2016 08:06 13,9 C 81 % 1023,9 hPa 0,0 l/m 10,3 km/h (2 Bft) W-NW 290 0 min 0,000 mm 0,6 UV-I 189 W/m 10,7 C 11,8 C 14,5 km/h (3 Bft) 98,21 %
16.07.2016 08:08 13,8 C 80 % 1023,9 hPa 0,0 l/m 8,8 km/h (2 Bft) W-SW 248 0 min 0,000 mm 0,6 UV-I 187 W/m 10,4 C 12,4 C 16,1 km/h (3 Bft) 98,00 %
16.07.2016 08:10 13,8 C 81 % 1023,9 hPa 0,0 l/m 6,8 km/h (2 Bft) W-SW 244 0 min 0,000 mm 0,7 UV-I 190 W/m 10,6 C 13,6 C 11,3 km/h (2 Bft) 100,00 %
16.07.2016 08:12 13,9 C 81 % 1023,9 hPa 0,0 l/m 6,5 km/h (2 Bft) W-SW 244 0 min 0,000 mm 0,7 UV-I 192 W/m 10,7 C 13,9 C 14,5 km/h (3 Bft) 100,00 %
16.07.2016 08:14 13,9 C 81 % 1023,9 hPa 0,0 l/m 6,8 km/h (2 Bft) W-SW 250 0 min 0,000 mm 0,7 UV-I 201 W/m 10,7 C 13,7 C 11,3 km/h (2 Bft) 100,00 %
16.07.2016 08:16 14,0 C 81 % 1023,9 hPa 0,0 l/m 5,8 km/h (2 Bft) W-SW 242 0 min 0,000 mm 0,8 UV-I 214 W/m 10,8 C 14,0 C 8,0 km/h (2 Bft) 100,00 %
16.07.2016 08:18 14,1 C 81 % 1023,9 hPa 0,0 l/m 11,4 km/h (2 Bft) W 265 0 min 0,000 mm 0,8 UV-I 219 W/m 10,9 C 11,5 C 19,3 km/h (3 Bft) 100,00 %
16.07.2016 08:20 14,1 C 80 % 1023,9 hPa 0,0 l/m 7,7 km/h (2 Bft) SW 236 0 min 0,000 mm 0,8 UV-I 224 W/m 10,7 C 13,3 C 12,9 km/h (3 Bft) 98,08 %
16.07.2016 08:22 14,1 C 79 % 1023,9 hPa 0,0 l/m 9,2 km/h (2 Bft) W-SW 253 0 min 0,000 mm 0,8 UV-I 224 W/m 10,5 C 12,5 C 17,7 km/h (3 Bft) 100,00 %
16.07.2016 08:24 14,1 C 80 % 1023,9 hPa 0,0 l/m 12,1 km/h (2 Bft) W-SW 242 0 min 0,000 mm 0,8 UV-I 223 W/m 10,7 C 11,2 C 20,9 km/h (4 Bft) 100,00 %
16.07.2016 08:26 14,1 C 80 % 1023,9 hPa 0,0 l/m 13,8 km/h (3 Bft) W-SW 247 0 min 0,000 mm 0,8 UV-I 221 W/m 10,7 C 10,5 C 19,3 km/h (3 Bft) 100,00 %
16.07.2016 08:28 14,1 C 79 % 1023,9 hPa 0,0 l/m 11,5 km/h (2 Bft) W-NW 284 0 min 0,000 mm 0,8 UV-I 207 W/m 10,5 C 11,4 C 19,3 km/h (3 Bft) 100,00 %
16.07.2016 08:30 14,1 C 79 % 1024,0 hPa 0,0 l/m 9,6 km/h (2 Bft) W 281 0 min 0,000 mm 0,8 UV-I 199 W/m 10,5 C 12,3 C 14,5 km/h (3 Bft) 100,00 %
16.07.2016 08:32 14,1 C 79 % 1024,0 hPa 0,0 l/m 6,1 km/h (2 Bft) W-NW 302 0 min 0,000 mm 0,7 UV-I 189 W/m 10,5 C 14,1 C 14,5 km/h (3 Bft) 100,00 %
16.07.2016 08:34 14,1 C 80 % 1024,0 hPa 0,0 l/m 5,7 km/h (1 Bft) W-SW 252 0 min 0,000 mm 0,7 UV-I 179 W/m 10,7 C 14,1 C 11,3 km/h (2 Bft) 98,21 %
16.07.2016 08:36 14,1 C 80 % 1023,9 hPa 0,0 l/m 12,2 km/h (2 Bft) SW 234 0 min 0,000 mm 0,7 UV-I 174 W/m 10,7 C 11,2 C 19,3 km/h (3 Bft) 100,00 %
16.07.2016 08:38 14,1 C 80 % 1023,9 hPa 0,0 l/m 11,4 km/h (2 Bft) W-SW 251 0 min 0,000 mm 0,7 UV-I 176 W/m 10,7 C 11,5 C 17,7 km/h (3 Bft) 100,00 %
16.07.2016 08:40 14,1 C 79 % 1024,0 hPa 0,0 l/m 11,9 km/h (2 Bft) W-SW 257 0 min 0,000 mm 0,7 UV-I 178 W/m 10,5 C 11,3 C 14,5 km/h (3 Bft) 100,00 %
16.07.2016 08:42 14,1 C 80 % 1024,0 hPa 0,0 l/m 7,1 km/h (2 Bft) W-SW 254 0 min 0,000 mm 0,7 UV-I 174 W/m 10,7 C 13,7 C 14,5 km/h (3 Bft) 100,00 %
16.07.2016 08:44 14,1 C 79 % 1024,0 hPa 0,0 l/m 7,7 km/h (2 Bft) W 281 0 min 0,000 mm 0,7 UV-I 165 W/m 10,5 C 13,3 C 12,9 km/h (3 Bft) 100,00 %
16.07.2016 08:46 14,1 C 79 % 1024,1 hPa 0,0 l/m 2,9 km/h (1 Bft) W 267 0 min 0,000 mm 0,6 UV-I 155 W/m 10,5 C 14,1 C 6,4 km/h (2 Bft) 97,56 %
16.07.2016 08:48 14,1 C 80 % 1024,1 hPa 0,0 l/m 4,6 km/h (1 Bft) W-NW 302 0 min 0,000 mm 0,6 UV-I 143 W/m 10,7 C 14,1 C 9,7 km/h (2 Bft) 100,00 %
16.07.2016 08:50 14,1 C 81 % 1024,1 hPa 0,0 l/m 4,0 km/h (1 Bft) W-SW 246 0 min 0,000 mm 0,6 UV-I 136 W/m 10,9 C 14,1 C 9,7 km/h (2 Bft) 100,00 %
16.07.2016 08:52 14,1 C 80 % 1024,1 hPa 0,0 l/m 7,3 km/h (2 Bft) W-NW 284 0 min 0,000 mm 0,6 UV-I 132 W/m 10,7 C 13,6 C 12,9 km/h (3 Bft) 100,00 %
16.07.2016 08:54 14,1 C 80 % 1024,1 hPa 0,0 l/m 3,2 km/h (1 Bft) W 263 0 min 0,000 mm 0,6 UV-I 128 W/m 10,7 C 14,1 C 9,7 km/h (2 Bft) 100,00 %
16.07.2016 08:56 14,1 C 80 % 1024,1 hPa 0,0 l/m 4,2 km/h (1 Bft) W-SW 239 0 min 0,000 mm 0,6 UV-I 133 W/m 10,7 C 14,1 C 9,7 km/h (2 Bft) 100,00 %
16.07.2016 08:58 14,1 C 81 % 1024,0 hPa 0,0 l/m 6,5 km/h (2 Bft) W 268 0 min 0,000 mm 0,6 UV-I 142 W/m 10,9 C 14,1 C 9,7 km/h (2 Bft) 100,00 %
16.07.2016 09:00 14,1 C 80 % 1024,0 hPa 0,0 l/m 7,6 km/h (2 Bft) W 267 0 min 0,000 mm 0,7 UV-I 153 W/m 10,7 C 13,4 C 12,9 km/h (3 Bft) 100,00 %
16.07.2016 09:02 14,1 C 80 % 1024,0 hPa 0,0 l/m 6,0 km/h (2 Bft) W-SW 249 0 min 0,102 mm 0,7 UV-I 162 W/m 10,7 C 14,1 C 11,3 km/h (2 Bft) 100,00 %
16.07.2016 09:04 14,2 C 81 % 1023,9 hPa 0,0 l/m 4,5 km/h (1 Bft) W-SW 248 0 min 0,000 mm 0,8 UV-I 174 W/m 11,0 C 14,2 C 12,9 km/h (3 Bft) 100,00 %
16.07.2016 09:06 14,2 C 80 % 1023,9 hPa 0,0 l/m 5,3 km/h (1 Bft) S-SW 213 0 min 0,000 mm 0,9 UV-I 190 W/m 10,8 C 14,2 C 8,0 km/h (2 Bft) 100,00 %
16.07.2016 09:08 14,2 C 79 % 1023,9 hPa 0,0 l/m 9,6 km/h (2 Bft) NW 305 0 min 0,000 mm 1,0 UV-I 204 W/m 10,6 C 12,4 C 16,1 km/h (3 Bft) 100,00 %
16.07.2016 09:10 14,3 C 80 % 1023,9 hPa 0,0 l/m 4,1 km/h (1 Bft) SW 232 0 min 0,000 mm 1,0 UV-I 217 W/m 10,9 C 14,3 C 8,0 km/h (2 Bft) 100,00 %
16.07.2016 09:12 14,3 C 80 % 1023,8 hPa 0,0 l/m 4,0 km/h (1 Bft) W 279 0 min 0,000 mm 1,1 UV-I 231 W/m 10,9 C 14,3 C 8,0 km/h (2 Bft) 100,00 %
16.07.2016 09:14 14,4 C 80 % 1023,7 hPa 0,0 l/m 5,3 km/h (1 Bft) W-NW 292 0 min 0,000 mm 1,2 UV-I 244 W/m 11,0 C 14,4 C 9,7 km/h (2 Bft) 100,00 %
16.07.2016 09:16 14,4 C 79 % 1023,7 hPa 0,0 l/m 7,4 km/h (2 Bft) W-NW 298 0 min 0,000 mm 1,2 UV-I 254 W/m 10,8 C 13,8 C 16,1 km/h (3 Bft) 100,00 %
16.07.2016 09:18 14,5 C 79 % 1023,7 hPa 0,0 l/m 7,3 km/h (2 Bft) SW 225 0 min 0,000 mm 1,3 UV-I 266 W/m 10,9 C 14,0 C 14,5 km/h (3 Bft) 98,00 %
16.07.2016 09:20 14,6 C 79 % 1023,7 hPa 0,0 l/m 7,5 km/h (2 Bft) SW 229 0 min 0,000 mm 1,3 UV-I 277 W/m 11,0 C 14,0 C 12,9 km/h (3 Bft) 100,00 %
16.07.2016 09:22 14,7 C 79 % 1023,7 hPa 0,0 l/m 12,8 km/h (3 Bft) W 268 0 min 0,000 mm 1,4 UV-I 290 W/m 11,1 C 11,6 C 19,3 km/h (3 Bft) 96,43 %
16.07.2016 09:24 14,7 C 79 % 1023,7 hPa 0,0 l/m 10,5 km/h (2 Bft) W 278 0 min 0,000 mm 1,4 UV-I 294 W/m 11,1 C 12,6 C 16,1 km/h (3 Bft) 97,87 %
16.07.2016 09:26 14,7 C 78 % 1023,7 hPa 0,0 l/m 15,1 km/h (3 Bft) W 279 0 min 0,000 mm 1,4 UV-I 307 W/m 10,9 C 10,8 C 20,9 km/h (4 Bft) 97,37 %
16.07.2016 09:28 14,8 C 78 % 1023,7 hPa 0,0 l/m 11,7 km/h (2 Bft) W 265 0 min 0,000 mm 1,4 UV-I 299 W/m 11,0 C 12,2 C 20,9 km/h (4 Bft) 96,61 %
16.07.2016 09:30 14,7 C 77 % 1023,7 hPa 0,0 l/m 12,2 km/h (2 Bft) W-SW 257 0 min 0,000 mm 1,4 UV-I 294 W/m 10,7 C 11,8 C 19,3 km/h (3 Bft) 94,74 %
16.07.2016 09:32 14,7 C 77 % 1023,7 hPa 0,0 l/m 14,2 km/h (3 Bft) SW 227 0 min 0,000 mm 1,4 UV-I 287 W/m 10,7 C 11,1 C 24,1 km/h (4 Bft) 96,23 %
16.07.2016 09:34 14,7 C 77 % 1023,7 hPa 0,0 l/m 9,5 km/h (2 Bft) W-NW 289 0 min 0,000 mm 1,4 UV-I 296 W/m 10,7 C 13,0 C 16,1 km/h (3 Bft) 97,37 %
16.07.2016 09:36 14,7 C 78 % 1023,7 hPa 0,0 l/m 12,5 km/h (3 Bft) W 277 0 min 0,000 mm 1,6 UV-I 311 W/m 10,9 C 11,7 C 17,7 km/h (3 Bft) 96,23 %
16.07.2016 09:38 14,8 C 78 % 1023,7 hPa 0,0 l/m 12,3 km/h (3 Bft) W-SW 248 0 min 0,000 mm 1,6 UV-I 324 W/m 11,0 C 11,9 C 20,9 km/h (4 Bft) 97,87 %
16.07.2016 09:40 14,8 C 78 % 1023,7 hPa 0,0 l/m 9,9 km/h (2 Bft) W-SW 248 0 min 0,000 mm 1,6 UV-I 323 W/m 11,0 C 12,9 C 17,7 km/h (3 Bft) 97,44 %
16.07.2016 09:42 14,8 C 78 % 1023,6 hPa 0,0 l/m 10,3 km/h (2 Bft) W-SW 239 0 min 0,000 mm 1,6 UV-I 316 W/m 11,0 C 12,8 C 14,5 km/h (3 Bft) 98,00 %
16.07.2016 09:44 14,9 C 78 % 1023,7 hPa 0,0 l/m 7,8 km/h (2 Bft) W 274 0 min 0,000 mm 1,6 UV-I 300 W/m 11,1 C 14,1 C 14,5 km/h (3 Bft) 98,00 %
16.07.2016 09:46 14,9 C 77 % 1023,7 hPa 0,0 l/m 13,4 km/h (3 Bft) W-SW 252 0 min 0,000 mm 1,5 UV-I 287 W/m 10,9 C 11,6 C 20,9 km/h (4 Bft) 100,00 %
16.07.2016 09:48 14,9 C 77 % 1023,7 hPa 0,0 l/m 10,2 km/h (2 Bft) W-SW 240 0 min 0,000 mm 1,5 UV-I 281 W/m 10,9 C 12,9 C 17,7 km/h (3 Bft) 94,74 %
16.07.2016 09:50 14,9 C 77 % 1023,7 hPa 0,0 l/m 8,6 km/h (2 Bft) W-SW 250 0 min 0,000 mm 1,5 UV-I 276 W/m 10,9 C 13,7 C 16,1 km/h (3 Bft) 98,00 %
16.07.2016 09:52 15,0 C 77 % 1023,7 hPa 0,0 l/m 9,7 km/h (2 Bft) SW 235 0 min 0,000 mm 1,5 UV-I 272 W/m 11,0 C 13,3 C 12,9 km/h (3 Bft) 98,00 %
16.07.2016 09:54 15,0 C 77 % 1023,8 hPa 0,0 l/m 11,5 km/h (2 Bft) SW 224 0 min 0,000 mm 1,5 UV-I 269 W/m 11,0 C 12,5 C 17,7 km/h (3 Bft) 100,00 %
16.07.2016 09:56 15,0 C 75 % 1023,8 hPa 0,0 l/m 9,7 km/h (2 Bft) W 271 0 min 0,000 mm 1,4 UV-I 253 W/m 10,6 C 13,3 C 14,5 km/h (3 Bft) 100,00 %
16.07.2016 09:58 14,9 C 75 % 1023,7 hPa 0,0 l/m 10,1 km/h (2 Bft) W 273 0 min 0,000 mm 1,4 UV-I 238 W/m 10,5 C 13,0 C 17,7 km/h (3 Bft) 98,00 %
16.07.2016 10:00 14,9 C 76 % 1023,7 hPa 0,0 l/m 7,1 km/h (2 Bft) S-SW 202 0 min 0,152 mm 1,3 UV-I 231 W/m 10,7 C 14,5 C 11,3 km/h (2 Bft) 100,00 %
16.07.2016 10:02 14,9 C 77 % 1023,8 hPa 0,0 l/m 3,8 km/h (1 Bft) W-SW 246 0 min 0,000 mm 1,3 UV-I 230 W/m 10,9 C 14,9 C 9,7 km/h (2 Bft) 97,73 %
16.07.2016 10:04 15,0 C 77 % 1023,8 hPa 0,0 l/m 5,8 km/h (2 Bft) W-SW 250 0 min 0,000 mm 1,3 UV-I 227 W/m 11,0 C 15,0 C 12,9 km/h (3 Bft) 98,11 %
16.07.2016 10:06 15,1 C 77 % 1023,8 hPa 0,0 l/m 11,2 km/h (2 Bft) W-SW 254 0 min 0,000 mm 1,3 UV-I 225 W/m 11,1 C 12,7 C 16,1 km/h (3 Bft) 100,00 %
16.07.2016 10:08 15,0 C 76 % 1023,8 hPa 0,0 l/m 11,8 km/h (2 Bft) W-SW 254 0 min 0,000 mm 1,3 UV-I 222 W/m 10,8 C 12,4 C 19,3 km/h (3 Bft) 100,00 %
16.07.2016 10:10 14,9 C 76 % 1023,8 hPa 0,0 l/m 12,8 km/h (3 Bft) W 261 0 min 0,000 mm 1,3 UV-I 213 W/m 10,7 C 11,8 C 19,3 km/h (3 Bft) 97,87 %
16.07.2016 10:12 14,9 C 77 % 1023,8 hPa 0,0 l/m 10,1 km/h (2 Bft) W 277 0 min 0,000 mm 1,2 UV-I 207 W/m 10,9 C 13,0 C 16,1 km/h (3 Bft) 100,00 %
16.07.2016 10:14 14,9 C 76 % 1023,9 hPa 0,0 l/m 11,0 km/h (2 Bft) W-SW 244 0 min 0,000 mm 1,3 UV-I 207 W/m 10,7 C 12,6 C 20,9 km/h (4 Bft) 100,00 %
16.07.2016 10:16 14,9 C 76 % 1023,9 hPa 0,0 l/m 9,9 km/h (2 Bft) W-SW 244 0 min 0,000 mm 1,3 UV-I 208 W/m 10,7 C 13,1 C 17,7 km/h (3 Bft) 98,11 %
16.07.2016 10:18 14,9 C 77 % 1023,9 hPa 0,0 l/m 7,1 km/h (2 Bft) W 278 0 min 0,000 mm 1,3 UV-I 213 W/m 10,9 C 14,5 C 12,9 km/h (3 Bft) 100,00 %
16.07.2016 10:20 14,9 C 77 % 1023,9 hPa 0,0 l/m 10,0 km/h (2 Bft) W 268 0 min 0,000 mm 1,3 UV-I 221 W/m 10,9 C 13,0 C 17,7 km/h (3 Bft) 100,00 %
16.07.2016 10:22 14,9 C 76 % 1023,9 hPa 0,0 l/m 8,2 km/h (2 Bft) W 277 0 min 0,000 mm 1,4 UV-I 223 W/m 10,7 C 13,9 C 14,5 km/h (3 Bft) 100,00 %
16.07.2016 10:24 14,9 C 77 % 1023,9 hPa 0,0 l/m 6,2 km/h (2 Bft) W-SW 248 0 min 0,000 mm 1,3 UV-I 217 W/m 10,9 C 14,9 C 12,9 km/h (3 Bft) 97,87 %
16.07.2016 10:26 14,9 C 77 % 1023,9 hPa 0,0 l/m 4,8 km/h (1 Bft) W-SW 252 0 min 0,000 mm 1,3 UV-I 212 W/m 10,9 C 14,9 C 9,7 km/h (2 Bft) 100,00 %
16.07.2016 10:28 15,0 C 78 % 1023,9 hPa 0,0 l/m 6,4 km/h (2 Bft) W 261 0 min 0,000 mm 1,3 UV-I 208 W/m 11,2 C 15,0 C 11,3 km/h (2 Bft) 100,00 %
16.07.2016 10:30 15,1 C 77 % 1023,9 hPa 0,0 l/m 7,5 km/h (2 Bft) W-SW 248 0 min 0,000 mm 1,3 UV-I 205 W/m 11,1 C 14,5 C 12,9 km/h (3 Bft) 100,00 %
16.07.2016 10:32 15,1 C 76 % 1024,0 hPa 0,0 l/m 10,6 km/h (2 Bft) W-SW 251 0 min 0,000 mm 1,3 UV-I 204 W/m 10,9 C 13,0 C 17,7 km/h (3 Bft) 100,00 %
16.07.2016 10:34 15,1 C 76 % 1023,9 hPa 0,0 l/m 7,5 km/h (2 Bft) S-SW 211 0 min 0,000 mm 1,3 UV-I 204 W/m 10,9 C 14,5 C 14,5 km/h (3 Bft) 100,00 %
16.07.2016 10:36 15,1 C 76 % 1023,9 hPa 0,0 l/m 9,7 km/h (2 Bft) W-NW 286 0 min 0,000 mm 1,3 UV-I 202 W/m 10,9 C 13,4 C 16,1 km/h (3 Bft) 100,00 %
16.07.2016 10:38 15,1 C 75 % 1024,0 hPa 0,0 l/m 10,8 km/h (2 Bft) W-SW 251 0 min 0,000 mm 1,3 UV-I 205 W/m 10,7 C 12,9 C 20,9 km/h (4 Bft) 100,00 %
16.07.2016 10:40 15,0 C 76 % 1024,0 hPa 0,0 l/m 6,2 km/h (2 Bft) W-SW 243 0 min 0,000 mm 1,3 UV-I 210 W/m 10,8 C 15,0 C 11,3 km/h (2 Bft) 100,00 %
16.07.2016 10:42 15,1 C 76 % 1024,0 hPa 0,0 l/m 7,7 km/h (2 Bft) W-SW 248 0 min 0,000 mm 1,4 UV-I 222 W/m 10,9 C 14,4 C 16,1 km/h (3 Bft) 97,73 %
16.07.2016 10:44 15,1 C 76 % 1024,0 hPa 0,0 l/m 9,3 km/h (2 Bft) W-SW 240 0 min 0,000 mm 1,6 UV-I 242 W/m 10,9 C 13,6 C 17,7 km/h (3 Bft) 97,56 %
16.07.2016 10:46 15,1 C 75 % 1023,9 hPa 0,0 l/m 12,2 km/h (2 Bft) W 270 0 min 0,000 mm 1,7 UV-I 258 W/m 10,7 C 12,3 C 17,7 km/h (3 Bft) 98,00 %
16.07.2016 10:48 15,2 C 74 % 1024,0 hPa 0,0 l/m 8,1 km/h (2 Bft) W-NW 285 0 min 0,000 mm 1,7 UV-I 268 W/m 10,6 C 14,3 C 14,5 km/h (3 Bft) 97,73 %
16.07.2016 10:50 15,2 C 74 % 1023,9 hPa 0,0 l/m 11,8 km/h (2 Bft) W-SW 242 0 min 0,000 mm 1,8 UV-I 278 W/m 10,6 C 12,6 C 19,3 km/h (3 Bft) 100,00 %
16.07.2016 10:52 15,2 C 74 % 1023,9 hPa 0,0 l/m 10,0 km/h (2 Bft) W 269 0 min 0,000 mm 2,0 UV-I 292 W/m 10,6 C 13,3 C 16,1 km/h (3 Bft) 95,74 %
16.07.2016 10:54 15,2 C 75 % 1023,9 hPa 0,0 l/m 13,2 km/h (3 Bft) N-NW 329 0 min 0,000 mm 2,1 UV-I 309 W/m 10,8 C 12,1 C 17,7 km/h (3 Bft) 100,00 %
16.07.2016 10:56 15,3 C 74 % 1023,9 hPa 0,0 l/m 9,9 km/h (2 Bft) SW 215 0 min 0,000 mm 2,2 UV-I 325 W/m 10,7 C 13,5 C 16,1 km/h (3 Bft) 100,00 %
16.07.2016 10:58 15,4 C 74 % 1023,9 hPa 0,0 l/m 8,5 km/h (2 Bft) W-SW 248 0 min 0,000 mm 2,3 UV-I 337 W/m 10,8 C 14,3 C 17,7 km/h (3 Bft) 100,00 %
16.07.2016 11:00 15,5 C 74 % 1023,9 hPa 0,0 l/m 8,2 km/h (2 Bft) W 271 0 min 0,153 mm 2,4 UV-I 345 W/m 10,9 C 14,5 C 16,1 km/h (3 Bft) 96,43 %
16.07.2016 11:02 15,6 C 73 % 1023,9 hPa 0,0 l/m 10,7 km/h (2 Bft) W 278 0 min 0,000 mm 2,4 UV-I 353 W/m 10,8 C 13,5 C 17,7 km/h (3 Bft) 100,00 %
16.07.2016 11:04 15,6 C 73 % 1023,9 hPa 0,0 l/m 10,4 km/h (2 Bft) SW 225 0 min 0,000 mm 2,6 UV-I 373 W/m 10,8 C 13,6 C 17,7 km/h (3 Bft) 98,21 %
16.07.2016 11:06 15,7 C 73 % 1023,8 hPa 0,0 l/m 9,7 km/h (2 Bft) SW 230 0 min 0,000 mm 2,7 UV-I 392 W/m 10,9 C 14,0 C 14,5 km/h (3 Bft) 100,00 %
16.07.2016 11:08 15,8 C 73 % 1023,9 hPa 0,0 l/m 8,6 km/h (2 Bft) SW 223 0 min 0,000 mm 2,7 UV-I 390 W/m 11,0 C 14,6 C 12,9 km/h (3 Bft) 97,37 %
16.07.2016 11:10 15,8 C 72 % 1023,8 hPa 0,0 l/m 9,1 km/h (2 Bft) W-SW 257 0 min 0,000 mm 2,8 UV-I 407 W/m 10,8 C 14,4 C 16,1 km/h (3 Bft) 100,00 %
16.07.2016 11:12 15,9 C 71 % 1023,8 hPa 0,0 l/m 12,4 km/h (3 Bft) S-SW 198 0 min 0,000 mm 2,9 UV-I 430 W/m 10,6 C 13,2 C 17,7 km/h (3 Bft) 100,00 %
16.07.2016 11:14 16,0 C 72 % 1023,8 hPa 0,0 l/m 6,8 km/h (2 Bft) S-SW 193 2 min 0,000 mm 3,0 UV-I 457 W/m 11,0 C 15,8 C 17,7 km/h (3 Bft) 97,56 %
16.07.2016 11:16 16,2 C 72 % 1023,8 hPa 0,0 l/m 5,9 km/h (2 Bft) W-SW 242 2 min 0,000 mm 3,4 UV-I 496 W/m 11,1 C 16,2 C 14,5 km/h (3 Bft) 98,11 %
16.07.2016 11:18 16,2 C 71 % 1023,7 hPa 0,0 l/m 12,5 km/h (3 Bft) W-SW 248 0 min 0,000 mm 2,8 UV-I 418 W/m 10,9 C 13,5 C 19,3 km/h (3 Bft) 97,37 %
16.07.2016 11:20 16,3 C 72 % 1023,8 hPa 0,0 l/m 9,8 km/h (2 Bft) SW 229 0 min 0,000 mm 2,6 UV-I 377 W/m 11,2 C 14,6 C 20,9 km/h (4 Bft) 96,00 %
16.07.2016 11:22 16,2 C 70 % 1023,7 hPa 0,0 l/m 12,7 km/h (3 Bft) W 270 0 min 0,000 mm 2,4 UV-I 355 W/m 10,7 C 13,4 C 17,7 km/h (3 Bft) 98,00 %
16.07.2016 11:24 16,1 C 70 % 1023,7 hPa 0,0 l/m 9,0 km/h (2 Bft) SW 217 0 min 0,000 mm 2,2 UV-I 306 W/m 10,6 C 14,8 C 16,1 km/h (3 Bft) 97,87 %
16.07.2016 11:26 15,9 C 70 % 1023,8 hPa 0,0 l/m 8,7 km/h (2 Bft) W-SW 242 0 min 0,000 mm 1,9 UV-I 274 W/m 10,4 C 14,7 C 16,1 km/h (3 Bft) 98,00 %
16.07.2016 11:28 15,8 C 71 % 1023,8 hPa 0,0 l/m 7,0 km/h (2 Bft) SW 225 0 min 0,000 mm 1,7 UV-I 241 W/m 10,6 C 15,5 C 12,9 km/h (3 Bft) 95,12 %
16.07.2016 11:30 15,8 C 72 % 1023,7 hPa 0,0 l/m 7,5 km/h (2 Bft) W-SW 240 0 min 0,000 mm 1,6 UV-I 226 W/m 10,8 C 15,2 C 12,9 km/h (3 Bft) 98,00 %
16.07.2016 11:32 15,8 C 73 % 1023,7 hPa 0,0 l/m 7,0 km/h (2 Bft) S-SW 206 0 min 0,000 mm 1,5 UV-I 215 W/m 11,0 C 15,5 C 11,3 km/h (2 Bft) 97,44 %
16.07.2016 11:34 15,8 C 73 % 1023,7 hPa 0,0 l/m 6,7 km/h (2 Bft) W-SW 249 0 min 0,000 mm 1,5 UV-I 205 W/m 11,0 C 15,6 C 14,5 km/h (3 Bft) 94,23 %
16.07.2016 11:36 15,8 C 72 % 1023,7 hPa 0,0 l/m 7,7 km/h (2 Bft) SW 229 0 min 0,000 mm 1,4 UV-I 196 W/m 10,8 C 15,1 C 12,9 km/h (3 Bft) 97,92 %
16.07.2016 11:38 15,8 C 72 % 1023,7 hPa 0,0 l/m 9,7 km/h (2 Bft) W-SW 241 0 min 0,000 mm 1,4 UV-I 189 W/m 10,8 C 14,1 C 14,5 km/h (3 Bft) 95,74 %
16.07.2016 11:40 15,7 C 73 % 1023,7 hPa 0,0 l/m 6,8 km/h (2 Bft) W-NW 290 0 min 0,000 mm 1,4 UV-I 186 W/m 10,9 C 15,5 C 11,3 km/h (2 Bft) 97,56 %
16.07.2016 11:42 15,7 C 72 % 1023,7 hPa 0,0 l/m 7,6 km/h (2 Bft) W 265 0 min 0,000 mm 1,4 UV-I 186 W/m 10,7 C 15,0 C 14,5 km/h (3 Bft) 98,21 %
16.07.2016 11:44 15,7 C 72 % 1023,8 hPa 0,0 l/m 13,0 km/h (3 Bft) W-SW 238 0 min 0,000 mm 1,4 UV-I 186 W/m 10,7 C 12,7 C 19,3 km/h (3 Bft) 97,56 %
16.07.2016 11:46 15,6 C 72 % 1023,7 hPa 0,0 l/m 8,8 km/h (2 Bft) SW 236 0 min 0,000 mm 1,4 UV-I 186 W/m 10,6 C 14,3 C 16,1 km/h (3 Bft) 100,00 %
16.07.2016 11:48 15,6 C 72 % 1023,7 hPa 0,0 l/m 10,9 km/h (2 Bft) W-SW 258 0 min 0,000 mm 1,3 UV-I 182 W/m 10,6 C 13,4 C 16,1 km/h (3 Bft) 96,00 %
16.07.2016 11:50 15,6 C 73 % 1023,8 hPa 0,0 l/m 11,0 km/h (2 Bft) W-SW 254 0 min 0,000 mm 1,3 UV-I 173 W/m 10,8 C 13,4 C 16,1 km/h (3 Bft) 97,87 %
16.07.2016 11:52 15,6 C 73 % 1023,8 hPa 0,0 l/m 8,6 km/h (2 Bft) W-SW 250 0 min 0,000 mm 1,3 UV-I 172 W/m 10,8 C 14,4 C 14,5 km/h (3 Bft) 97,37 %
16.07.2016 11:54 15,5 C 72 % 1023,7 hPa 0,0 l/m 9,1 km/h (2 Bft) W 261 0 min 0,000 mm 1,3 UV-I 178 W/m 10,5 C 14,1 C 16,1 km/h (3 Bft) 100,00 %
16.07.2016 11:56 15,5 C 73 % 1023,7 hPa 0,0 l/m 4,3 km/h (1 Bft) W-SW 240 0 min 0,000 mm 1,4 UV-I 190 W/m 10,7 C 15,5 C 6,4 km/h (2 Bft) 97,87 %
16.07.2016 11:58 15,6 C 74 % 1023,7 hPa 0,0 l/m 6,4 km/h (2 Bft) W-SW 246 0 min 0,000 mm 1,5 UV-I 204 W/m 11,0 C 15,6 C 11,3 km/h (2 Bft) 98,00 %
16.07.2016 12:00 15,6 C 74 % 1023,6 hPa 0,0 l/m 8,3 km/h (2 Bft) W-SW 238 0 min 0,000 mm 1,6 UV-I 222 W/m 11,0 C 14,6 C 12,9 km/h (3 Bft) 100,00 %
16.07.2016 12:02 15,7 C 74 % 1023,6 hPa 0,0 l/m 9,2 km/h (2 Bft) W-SW 257 0 min 0,178 mm 1,9 UV-I 255 W/m 11,1 C 14,3 C 19,3 km/h (3 Bft) 100,00 %
16.07.2016 12:04 15,8 C 73 % 1023,6 hPa 0,0 l/m 7,3 km/h (2 Bft) W 261 0 min 0,000 mm 2,3 UV-I 294 W/m 11,0 C 15,3 C 16,1 km/h (3 Bft) 98,11 %
16.07.2016 12:06 15,9 C 73 % 1023,6 hPa 0,0 l/m 6,8 km/h (2 Bft) W 276 0 min 0,000 mm 2,6 UV-I 322 W/m 11,1 C 15,7 C 12,9 km/h (3 Bft) 100,00 %
16.07.2016 12:08 16,0 C 73 % 1023,6 hPa 0,0 l/m 7,5 km/h (2 Bft) W 271 0 min 0,000 mm 2,9 UV-I 366 W/m 11,2 C 15,4 C 11,3 km/h (2 Bft) 100,00 %
16.07.2016 12:10 16,1 C 70 % 1023,6 hPa 0,0 l/m 9,5 km/h (2 Bft) S-SW 211 0 min 0,000 mm 3,1 UV-I 369 W/m 10,6 C 14,6 C 14,5 km/h (3 Bft) 100,00 %
16.07.2016 12:12 16,2 C 70 % 1023,6 hPa 0,0 l/m 12,9 km/h (3 Bft) W-SW 248 0 min 0,000 mm 3,4 UV-I 410 W/m 10,7 C 13,3 C 17,7 km/h (3 Bft) 97,22 %
16.07.2016 12:14 16,3 C 70 % 1023,6 hPa 0,0 l/m 13,9 km/h (3 Bft) W-SW 253 2 min 0,000 mm 4,0 UV-I 522 W/m 10,8 C 13,1 C 20,9 km/h (4 Bft) 98,18 %
16.07.2016 12:16 16,4 C 68 % 1023,6 hPa 0,0 l/m 17,3 km/h (3 Bft) W 265 2 min 0,000 mm 4,0 UV-I 560 W/m 10,5 C 12,2 C 24,1 km/h (4 Bft) 100,00 %
16.07.2016 12:18 16,4 C 67 % 1023,6 hPa 0,0 l/m 10,4 km/h (2 Bft) W-SW 256 0 min 0,000 mm 3,4 UV-I 473 W/m 10,3 C 14,5 C 17,7 km/h (3 Bft) 98,11 %
16.07.2016 12:20 16,6 C 68 % 1023,6 hPa 0,0 l/m 7,9 km/h (2 Bft) W-SW 244 0 min 0,000 mm 2,7 UV-I 361 W/m 10,7 C 15,8 C 11,3 km/h (2 Bft) 98,11 %
16.07.2016 12:22 16,7 C 69 % 1023,5 hPa 0,0 l/m 7,5 km/h (2 Bft) W-NW 286 0 min 0,000 mm 2,3 UV-I 312 W/m 11,0 C 16,1 C 16,1 km/h (3 Bft) 100,00 %
16.07.2016 12:24 16,6 C 68 % 1023,6 hPa 0,0 l/m 9,4 km/h (2 Bft) W-SW 247 0 min 0,000 mm 2,0 UV-I 269 W/m 10,7 C 15,1 C 17,7 km/h (3 Bft) 100,00 %
16.07.2016 12:26 16,6 C 68 % 1023,5 hPa 0,0 l/m 13,0 km/h (3 Bft) SW 233 0 min 0,000 mm 1,8 UV-I 233 W/m 10,7 C 13,8 C 19,3 km/h (3 Bft) 100,00 %
16.07.2016 12:28 16,6 C 68 % 1023,6 hPa 0,0 l/m 6,8 km/h (2 Bft) NW 322 0 min 0,000 mm 1,7 UV-I 214 W/m 10,7 C 16,4 C 14,5 km/h (3 Bft) 100,00 %
16.07.2016 12:30 16,4 C 67 % 1023,5 hPa 0,0 l/m 2,6 km/h (1 Bft) W 271 0 min 0,000 mm 1,5 UV-I 192 W/m 10,3 C 16,4 C 8,0 km/h (2 Bft) 100,00 %
16.07.2016 12:32 16,3 C 66 % 1023,6 hPa 0,0 l/m 7,6 km/h (2 Bft) W-SW 248 0 min 0,000 mm 1,3 UV-I 165 W/m 9,9 C 15,7 C 14,5 km/h (3 Bft) 100,00 %
16.07.2016 12:34 16,2 C 67 % 1023,6 hPa 0,0 l/m 8,6 km/h (2 Bft) W-NW 282 0 min 0,000 mm 1,1 UV-I 143 W/m 10,1 C 15,1 C 12,9 km/h (3 Bft) 100,00 %
16.07.2016 12:36 16,1 C 68 % 1023,6 hPa 0,0 l/m 7,7 km/h (2 Bft) W 270 0 min 0,000 mm 1,0 UV-I 130 W/m 10,2 C 15,4 C 12,9 km/h (3 Bft) 100,00 %
16.07.2016 12:38 16,1 C 68 % 1023,6 hPa 0,0 l/m 7,9 km/h (2 Bft) NW 313 0 min 0,000 mm 0,9 UV-I 121 W/m 10,2 C 15,3 C 14,5 km/h (3 Bft) 100,00 %
16.07.2016 12:40 15,9 C 69 % 1023,6 hPa 0,0 l/m 4,7 km/h (1 Bft) S-SW 211 0 min 0,000 mm 0,9 UV-I 116 W/m 10,2 C 15,9 C 8,0 km/h (2 Bft) 97,37 %
16.07.2016 12:42 15,9 C 70 % 1023,6 hPa 0,0 l/m 7,5 km/h (2 Bft) W 267 0 min 0,000 mm 0,9 UV-I 115 W/m 10,4 C 15,3 C 12,9 km/h (3 Bft) 100,00 %
16.07.2016 12:44 15,9 C 69 % 1023,6 hPa 0,0 l/m 5,2 km/h (1 Bft) W-SW 252 0 min 0,000 mm 0,9 UV-I 119 W/m 10,2 C 15,9 C 11,3 km/h (2 Bft) 100,00 %
16.07.2016 12:46 15,9 C 70 % 1023,6 hPa 0,0 l/m 3,0 km/h (1 Bft) W-SW 244 0 min 0,000 mm 1,0 UV-I 124 W/m 10,4 C 15,9 C 6,4 km/h (2 Bft) 100,00 %
16.07.2016 12:48 15,9 C 70 % 1023,6 hPa 0,0 l/m 7,7 km/h (2 Bft) S 190 0 min 0,000 mm 1,0 UV-I 130 W/m 10,4 C 15,2 C 17,7 km/h (3 Bft) 100,00 %
16.07.2016 12:50 15,8 C 70 % 1023,6 hPa 0,0 l/m 7,5 km/h (2 Bft) W 266 0 min 0,000 mm 1,1 UV-I 134 W/m 10,3 C 15,2 C 12,9 km/h (3 Bft) 100,00 %
16.07.2016 12:52 15,8 C 69 % 1023,5 hPa 0,0 l/m 9,5 km/h (2 Bft) W 262 0 min 0,000 mm 1,1 UV-I 137 W/m 10,1 C 14,2 C 16,1 km/h (3 Bft) 100,00 %
16.07.2016 12:54 15,8 C 69 % 1023,5 hPa 0,0 l/m 7,5 km/h (2 Bft) SW 234 0 min 0,000 mm 1,1 UV-I 141 W/m 10,1 C 15,2 C 12,9 km/h (3 Bft) 98,57 %
16.07.2016 12:56 15,9 C 70 % 1023,5 hPa 0,0 l/m 6,1 km/h (2 Bft) W-SW 251 0 min 0,000 mm 1,1 UV-I 142 W/m 10,4 C 15,9 C 9,7 km/h (2 Bft) 100,00 %
16.07.2016 12:58 15,8 C 70 % 1023,5 hPa 0,0 l/m 6,1 km/h (2 Bft) W-SW 246 0 min 0,000 mm 1,1 UV-I 144 W/m 10,3 C 15,8 C 11,3 km/h (2 Bft) 100,00 %
16.07.2016 13:00 15,8 C 70 % 1023,6 hPa 0,0 l/m 8,0 km/h (2 Bft) W-SW 238 0 min 0,152 mm 1,2 UV-I 155 W/m 10,3 C 14,9 C 16,1 km/h (3 Bft) 100,00 %
16.07.2016 13:02 15,9 C 71 % 1023,5 hPa 0,0 l/m 6,3 km/h (2 Bft) SW 233 0 min 0,000 mm 1,3 UV-I 169 W/m 10,6 C 15,9 C 12,9 km/h (3 Bft) 100,00 %
16.07.2016 13:04 15,9 C 70 % 1023,5 hPa 0,0 l/m 9,2 km/h (2 Bft) W-SW 257 0 min 0,000 mm 1,4 UV-I 182 W/m 10,4 C 14,5 C 14,5 km/h (3 Bft) 100,00 %
16.07.2016 13:06 15,9 C 70 % 1023,5 hPa 0,0 l/m 6,9 km/h (2 Bft) W 259 0 min 0,000 mm 1,4 UV-I 187 W/m 10,4 C 15,6 C 12,9 km/h (3 Bft) 100,00 %
16.07.2016 13:08 15,9 C 70 % 1023,5 hPa 0,0 l/m 7,4 km/h (2 Bft) W 268 0 min 0,000 mm 1,5 UV-I 192 W/m 10,4 C 15,4 C 16,1 km/h (3 Bft) 97,56 %
16.07.2016 13:10 15,9 C 70 % 1023,5 hPa 0,0 l/m 6,7 km/h (2 Bft) W-SW 247 0 min 0,000 mm 1,5 UV-I 199 W/m 10,4 C 15,7 C 11,3 km/h (2 Bft) 98,11 %
16.07.2016 13:12 15,9 C 70 % 1023,5 hPa 0,0 l/m 4,2 km/h (1 Bft) W-SW 239 0 min 0,000 mm 1,6 UV-I 208 W/m 10,4 C 15,9 C 6,4 km/h (2 Bft) 96,43 %
16.07.2016 13:14 15,9 C 70 % 1023,4 hPa 0,0 l/m 6,1 km/h (2 Bft) W-NW 295 0 min 0,000 mm 1,7 UV-I 215 W/m 10,4 C 15,9 C 12,9 km/h (3 Bft) 97,14 %
16.07.2016 13:16 16,0 C 68 % 1023,5 hPa 0,0 l/m 11,8 km/h (2 Bft) W 264 0 min 0,000 mm 1,7 UV-I 223 W/m 10,1 C 13,5 C 16,1 km/h (3 Bft) 96,43 %
16.07.2016 13:18 16,0 C 69 % 1023,4 hPa 0,0 l/m 6,9 km/h (2 Bft) W-NW 300 0 min 0,000 mm 1,8 UV-I 236 W/m 10,3 C 15,7 C 12,9 km/h (3 Bft) 98,00 %
16.07.2016 13:20 16,1 C 70 % 1023,4 hPa 0,0 l/m 7,2 km/h (2 Bft) W 270 0 min 0,000 mm 2,0 UV-I 257 W/m 10,6 C 15,7 C 12,9 km/h (3 Bft) 95,74 %
16.07.2016 13:22 16,1 C 69 % 1023,3 hPa 0,0 l/m 11,2 km/h (2 Bft) W 260 0 min 0,000 mm 2,2 UV-I 287 W/m 10,4 C 13,8 C 17,7 km/h (3 Bft) 97,87 %
16.07.2016 13:24 16,2 C 68 % 1023,4 hPa 0,0 l/m 9,8 km/h (2 Bft) W-SW 256 0 min 0,000 mm 2,6 UV-I 327 W/m 10,3 C 14,5 C 16,1 km/h (3 Bft) 95,74 %
16.07.2016 13:26 16,3 C 70 % 1023,3 hPa 0,0 l/m 6,9 km/h (2 Bft) W 264 0 min 0,000 mm 3,0 UV-I 373 W/m 10,8 C 16,0 C 11,3 km/h (2 Bft) 97,37 %
16.07.2016 13:28 16,4 C 69 % 1023,2 hPa 0,0 l/m 12,6 km/h (3 Bft) SW 218 0 min 0,000 mm 3,5 UV-I 426 W/m 10,7 C 13,7 C 20,9 km/h (4 Bft) 94,34 %
16.07.2016 13:30 16,6 C 69 % 1023,2 hPa 0,0 l/m 10,2 km/h (2 Bft) W-SW 257 2 min 0,000 mm 4,1 UV-I 485 W/m 10,9 C 14,8 C 19,3 km/h (3 Bft) 97,56 %
16.07.2016 13:32 16,8 C 69 % 1023,2 hPa 0,0 l/m 8,5 km/h (2 Bft) W-SW 252 2 min 0,000 mm 4,7 UV-I 497 W/m 11,1 C 15,8 C 14,5 km/h (3 Bft) 98,11 %
16.07.2016 13:34 17,1 C 67 % 1023,2 hPa 0,0 l/m 10,6 km/h (2 Bft) W-SW 257 2 min 0,000 mm 5,8 UV-I 497 W/m 10,9 C 15,2 C 17,7 km/h (3 Bft) 97,44 %
16.07.2016 13:36 17,4 C 69 % 1023,1 hPa 0,0 l/m 7,7 km/h (2 Bft) W 263 2 min 0,000 mm 6,2 UV-I 497 W/m 11,7 C 16,8 C 17,7 km/h (3 Bft) 95,74 %
16.07.2016 13:38 17,7 C 66 % 1023,1 hPa 0,0 l/m 12,4 km/h (3 Bft) W-SW 237 2 min 0,000 mm 4,4 UV-I 488 W/m 11,3 C 15,2 C 22,5 km/h (4 Bft) 97,87 %
16.07.2016 13:40 17,8 C 67 % 1023,1 hPa 0,0 l/m 11,3 km/h (2 Bft) SW 233 2 min 0,000 mm 4,7 UV-I 593 W/m 11,6 C 15,7 C 19,3 km/h (3 Bft) 98,21 %
16.07.2016 13:42 17,8 C 64 % 1023,0 hPa 0,0 l/m 11,0 km/h (2 Bft) NW 304 2 min 0,000 mm 4,6 UV-I 744 W/m 10,9 C 15,8 C 22,5 km/h (4 Bft) 100,00 %
16.07.2016 13:44 17,8 C 67 % 1023,0 hPa 0,0 l/m 11,5 km/h (2 Bft) W 274 2 min 0,000 mm 3,8 UV-I 643 W/m 11,6 C 15,7 C 19,3 km/h (3 Bft) 100,00 %
16.07.2016 13:46 17,8 C 64 % 1023,0 hPa 0,0 l/m 12,6 km/h (3 Bft) W-SW 240 0 min 0,000 mm 3,1 UV-I 384 W/m 10,9 C 15,3 C 17,7 km/h (3 Bft) 98,00 %
16.07.2016 13:48 17,7 C 66 % 1023,0 hPa 0,0 l/m 9,7 km/h (2 Bft) W 262 0 min 0,000 mm 2,7 UV-I 348 W/m 11,3 C 16,2 C 16,1 km/h (3 Bft) 100,00 %
16.07.2016 13:50 17,6 C 64 % 1023,0 hPa 0,0 l/m 11,9 km/h (2 Bft) W 268 0 min 0,000 mm 2,6 UV-I 329 W/m 10,7 C 15,3 C 19,3 km/h (3 Bft) 100,00 %
16.07.2016 13:52 17,3 C 65 % 1023,0 hPa 0,0 l/m 12,1 km/h (2 Bft) W-SW 240 0 min 0,000 mm 2,5 UV-I 322 W/m 10,7 C 14,9 C 22,5 km/h (4 Bft) 100,00 %
16.07.2016 13:54 17,3 C 67 % 1023,0 hPa 0,0 l/m 9,2 km/h (2 Bft) NW 304 0 min 0,000 mm 2,7 UV-I 326 W/m 11,1 C 16,0 C 14,5 km/h (3 Bft) 100,00 %
16.07.2016 13:56 17,2 C 66 % 1023,0 hPa 0,0 l/m 13,4 km/h (3 Bft) W-SW 257 0 min 0,000 mm 2,9 UV-I 348 W/m 10,8 C 14,3 C 20,9 km/h (4 Bft) 100,00 %
16.07.2016 13:58 17,2 C 67 % 1022,9 hPa 0,0 l/m 12,7 km/h (3 Bft) SW 234 0 min 0,000 mm 3,5 UV-I 408 W/m 11,0 C 14,6 C 19,3 km/h (3 Bft) 98,11 %
16.07.2016 14:00 17,3 C 67 % 1022,9 hPa 0,0 l/m 9,2 km/h (2 Bft) SW 230 2 min 0,000 mm 5,0 UV-I 485 W/m 11,1 C 16,0 C 14,5 km/h (3 Bft) 100,00 %
16.07.2016 14:02 17,7 C 67 % 1022,8 hPa 0,0 l/m 11,8 km/h (2 Bft) W-SW 245 2 min 0,254 mm 5,7 UV-I 485 W/m 11,5 C 15,4 C 17,7 km/h (3 Bft) 98,00 %
16.07.2016 14:04 17,8 C 63 % 1022,8 hPa 0,0 l/m 14,3 km/h (3 Bft) W-SW 243 2 min 0,000 mm 4,9 UV-I 595 W/m 10,7 C 14,8 C 25,7 km/h (4 Bft) 96,00 %
16.07.2016 14:06 17,8 C 63 % 1022,8 hPa 0,0 l/m 17,8 km/h (3 Bft) W-SW 246 2 min 0,000 mm 4,7 UV-I 637 W/m 10,7 C 13,9 C 24,1 km/h (4 Bft) 100,00 %
16.07.2016 14:08 17,8 C 64 % 1022,7 hPa 0,0 l/m 17,2 km/h (3 Bft) W-SW 251 2 min 0,000 mm 4,7 UV-I 663 W/m 10,9 C 14,0 C 24,1 km/h (4 Bft) 97,62 %
16.07.2016 14:10 17,9 C 63 % 1022,7 hPa 0,0 l/m 8,0 km/h (2 Bft) SW 224 2 min 0,000 mm 4,0 UV-I 545 W/m 10,8 C 17,1 C 14,5 km/h (3 Bft) 100,00 %
16.07.2016 14:12 17,9 C 63 % 1022,7 hPa 0,0 l/m 14,5 km/h (3 Bft) W-SW 251 0 min 0,000 mm 3,0 UV-I 375 W/m 10,8 C 14,8 C 24,1 km/h (4 Bft) 100,00 %
16.07.2016 14:14 17,8 C 63 % 1022,6 hPa 0,0 l/m 12,0 km/h (2 Bft) W 268 0 min 0,000 mm 2,3 UV-I 298 W/m 10,7 C 15,5 C 20,9 km/h (4 Bft) 100,00 %
16.07.2016 14:16 17,6 C 63 % 1022,6 hPa 0,0 l/m 14,4 km/h (3 Bft) W 275 0 min 0,000 mm 1,9 UV-I 246 W/m 10,5 C 14,5 C 20,9 km/h (4 Bft) 100,00 %
16.07.2016 14:18 17,4 C 64 % 1022,6 hPa 0,0 l/m 13,4 km/h (3 Bft) W-SW 253 0 min 0,000 mm 1,5 UV-I 205 W/m 10,5 C 14,6 C 20,9 km/h (4 Bft) 100,00 %
16.07.2016 14:20 17,3 C 65 % 1022,6 hPa 0,0 l/m 16,1 km/h (3 Bft) W 263 0 min 0,000 mm 1,3 UV-I 184 W/m 10,7 C 13,7 C 29,0 km/h (5 Bft) 100,00 %
16.07.2016 14:22 17,2 C 66 % 1022,6 hPa 0,0 l/m 9,7 km/h (2 Bft) SW 232 0 min 0,000 mm 1,3 UV-I 177 W/m 10,8 C 15,7 C 20,9 km/h (4 Bft) 97,73 %
16.07.2016 14:24 17,2 C 67 % 1022,6 hPa 0,0 l/m 7,3 km/h (2 Bft) W 277 0 min 0,000 mm 1,5 UV-I 199 W/m 11,0 C 16,8 C 14,5 km/h (3 Bft) 100,00 %
16.07.2016 14:26 17,1 C 67 % 1022,6 hPa 0,0 l/m 7,2 km/h (2 Bft) W 263 0 min 0,000 mm 1,7 UV-I 227 W/m 10,9 C 16,7 C 12,9 km/h (3 Bft) 100,00 %
16.07.2016 14:28 17,2 C 68 % 1022,6 hPa 0,0 l/m 5,8 km/h (2 Bft) W-NW 292 0 min 0,000 mm 2,0 UV-I 260 W/m 11,2 C 17,2 C 12,9 km/h (3 Bft) 97,73 %
16.07.2016 14:30 17,3 C 67 % 1022,6 hPa 0,0 l/m 9,9 km/h (2 Bft) W-SW 254 0 min 0,000 mm 2,2 UV-I 290 W/m 11,1 C 15,7 C 17,7 km/h (3 Bft) 97,56 %
16.07.2016 14:32 17,3 C 67 % 1022,6 hPa 0,0 l/m 8,0 km/h (2 Bft) W-SW 242 0 min 0,000 mm 2,4 UV-I 315 W/m 11,1 C 16,5 C 16,1 km/h (3 Bft) 100,00 %
16.07.2016 14:34 17,5 C 67 % 1022,5 hPa 0,0 l/m 8,3 km/h (2 Bft) SW 229 0 min 0,000 mm 2,6 UV-I 342 W/m 11,3 C 16,6 C 17,7 km/h (3 Bft) 97,87 %
16.07.2016 14:36 17,6 C 61 % 1022,5 hPa 0,0 l/m 9,7 km/h (2 Bft) W 259 0 min 0,000 mm 3,0 UV-I 371 W/m 10,0 C 16,1 C 16,1 km/h (3 Bft) 100,00 %
16.07.2016 14:38 17,6 C 61 % 1022,4 hPa 0,0 l/m 8,3 km/h (2 Bft) S 173 0 min 0,000 mm 3,2 UV-I 394 W/m 10,0 C 16,7 C 14,5 km/h (3 Bft) 100,00 %
16.07.2016 14:40 17,7 C 59 % 1022,4 hPa 0,0 l/m 11,1 km/h (2 Bft) SW 218 0 min 0,000 mm 3,4 UV-I 415 W/m 9,6 C 15,7 C 19,3 km/h (3 Bft) 100,00 %
16.07.2016 14:42 17,7 C 59 % 1022,6 hPa 0,0 l/m 10,7 km/h (2 Bft) W 268 0 min 0,000 mm 3,8 UV-I 436 W/m 9,6 C 15,8 C 17,7 km/h (3 Bft) 100,00 %
16.07.2016 14:44 17,9 C 59 % 1022,5 hPa 0,0 l/m 8,1 km/h (2 Bft) SW 218 2 min 0,000 mm 5,0 UV-I 581 W/m 9,8 C 17,1 C 16,1 km/h (3 Bft) 100,00 %
16.07.2016 14:46 18,3 C 60 % 1022,4 hPa 0,0 l/m 9,1 km/h (2 Bft) SW 217 2 min 0,000 mm 5,0 UV-I 722 W/m 10,4 C 17,1 C 17,7 km/h (3 Bft) 97,44 %
16.07.2016 14:48 18,7 C 57 % 1022,4 hPa 0,0 l/m 14,7 km/h (3 Bft) W-SW 255 2 min 0,000 mm 4,0 UV-I 726 W/m 10,0 C 15,8 C 22,5 km/h (4 Bft) 100,00 %
16.07.2016 14:50 18,7 C 58 % 1022,4 hPa 0,0 l/m 12,7 km/h (3 Bft) W 263 2 min 0,000 mm 3,1 UV-I 468 W/m 10,3 C 16,3 C 24,1 km/h (4 Bft) 100,00 %
16.07.2016 14:52 18,5 C 56 % 1022,4 hPa 0,0 l/m 12,1 km/h (2 Bft) W 264 0 min 0,000 mm 2,8 UV-I 384 W/m 9,6 C 16,3 C 24,1 km/h (4 Bft) 100,00 %
16.07.2016 14:54 18,4 C 58 % 1022,4 hPa 0,0 l/m 7,7 km/h (2 Bft) W-SW 247 0 min 0,000 mm 2,7 UV-I 375 W/m 10,0 C 17,8 C 22,5 km/h (4 Bft) 100,00 %
16.07.2016 14:56 18,4 C 57 % 1022,4 hPa 0,0 l/m 15,2 km/h (3 Bft) W 273 0 min 0,000 mm 2,7 UV-I 379 W/m 9,7 C 15,3 C 25,7 km/h (4 Bft) 100,00 %
16.07.2016 14:58 18,3 C 57 % 1022,3 hPa 0,0 l/m 13,6 km/h (3 Bft) W 265 0 min 0,000 mm 2,5 UV-I 352 W/m 9,6 C 15,6 C 22,5 km/h (4 Bft) 100,00 %
16.07.2016 15:00 18,3 C 57 % 1022,4 hPa 0,0 l/m 14,5 km/h (3 Bft) W 265 0 min 0,000 mm 2,3 UV-I 320 W/m 9,6 C 15,3 C 19,3 km/h (3 Bft) 97,14 %
16.07.2016 15:02 18,2 C 59 % 1022,4 hPa 0,0 l/m 12,0 km/h (2 Bft) W 275 0 min 0,279 mm 2,7 UV-I 370 W/m 10,1 C 16,0 C 19,3 km/h (3 Bft) 98,00 %
16.07.2016 15:04 18,3 C 60 % 1022,2 hPa 0,0 l/m 8,1 km/h (2 Bft) SW 235 0 min 0,000 mm 2,7 UV-I 378 W/m 10,4 C 17,5 C 16,1 km/h (3 Bft) 97,87 %
16.07.2016 15:06 18,3 C 58 % 1022,2 hPa 0,0 l/m 7,0 km/h (2 Bft) W-NW 286 0 min 0,000 mm 2,7 UV-I 367 W/m 9,9 C 18,0 C 12,9 km/h (3 Bft) 97,73 %
16.07.2016 15:08 18,3 C 58 % 1022,2 hPa 0,0 l/m 8,5 km/h (2 Bft) W 266 0 min 0,000 mm 2,9 UV-I 388 W/m 9,9 C 17,4 C 16,1 km/h (3 Bft) 94,00 %
16.07.2016 15:10 18,3 C 60 % 1022,3 hPa 0,0 l/m 10,1 km/h (2 Bft) W 271 2 min 0,000 mm 3,5 UV-I 452 W/m 10,4 C 16,7 C 16,1 km/h (3 Bft) 97,73 %
16.07.2016 15:12 18,5 C 58 % 1022,3 hPa 0,0 l/m 14,4 km/h (3 Bft) SW 236 2 min 0,000 mm 4,2 UV-I 475 W/m 10,1 C 15,6 C 22,5 km/h (4 Bft) 97,56 %
16.07.2016 15:14 18,7 C 58 % 1022,3 hPa 0,0 l/m 10,0 km/h (2 Bft) W-SW 239 2 min 0,000 mm 3,5 UV-I 487 W/m 10,3 C 17,2 C 19,3 km/h (3 Bft) 98,11 %
16.07.2016 15:16 18,8 C 57 % 1022,2 hPa 0,0 l/m 14,0 km/h (3 Bft) SW 236 2 min 0,000 mm 3,4 UV-I 454 W/m 10,1 C 16,1 C 25,7 km/h (4 Bft) 98,11 %
16.07.2016 15:18 18,8 C 55 % 1022,2 hPa 0,0 l/m 10,4 km/h (2 Bft) W-SW 252 2 min 0,000 mm 3,7 UV-I 490 W/m 9,6 C 17,2 C 17,7 km/h (3 Bft) 97,37 %
16.07.2016 15:20 18,7 C 57 % 1022,2 hPa 0,0 l/m 10,2 km/h (2 Bft) W 261 2 min 0,000 mm 3,3 UV-I 455 W/m 10,0 C 17,1 C 17,7 km/h (3 Bft) 96,61 %
16.07.2016 15:22 18,9 C 57 % 1022,2 hPa 0,0 l/m 8,4 km/h (2 Bft) W 274 2 min 0,000 mm 5,1 UV-I 452 W/m 10,2 C 18,0 C 16,1 km/h (3 Bft) 95,12 %
16.07.2016 15:24 19,0 C 56 % 1022,1 hPa 0,0 l/m 10,6 km/h (2 Bft) W-SW 247 2 min 0,000 mm 3,8 UV-I 453 W/m 10,0 C 17,3 C 20,9 km/h (4 Bft) 96,23 %
16.07.2016 15:26 19,1 C 54 % 1022,1 hPa 0,0 l/m 10,5 km/h (2 Bft) W 265 2 min 0,000 mm 3,1 UV-I 433 W/m 9,6 C 17,5 C 17,7 km/h (3 Bft) 97,56 %
16.07.2016 15:28 19,0 C 56 % 1022,1 hPa 0,0 l/m 7,9 km/h (2 Bft) SW 232 2 min 0,000 mm 3,3 UV-I 439 W/m 10,0 C 18,3 C 12,9 km/h (3 Bft) 97,87 %
16.07.2016 15:30 19,0 C 56 % 1022,1 hPa 0,0 l/m 10,2 km/h (2 Bft) W-SW 257 0 min 0,000 mm 2,6 UV-I 374 W/m 10,0 C 17,5 C 19,3 km/h (3 Bft) 97,87 %
16.07.2016 15:32 18,9 C 54 % 1022,0 hPa 0,0 l/m 12,4 km/h (3 Bft) W 277 0 min 0,000 mm 2,5 UV-I 344 W/m 9,4 C 16,6 C 27,4 km/h (4 Bft) 94,00 %
16.07.2016 15:34 18,8 C 57 % 1022,1 hPa 0,0 l/m 5,7 km/h (1 Bft) SW 232 0 min 0,000 mm 2,3 UV-I 325 W/m 10,1 C 18,8 C 11,3 km/h (2 Bft) 97,78 %
16.07.2016 15:36 18,7 C 56 % 1022,1 hPa 0,0 l/m 13,2 km/h (3 Bft) W 273 0 min 0,000 mm 2,1 UV-I 307 W/m 9,7 C 16,2 C 19,3 km/h (3 Bft) 100,00 %
16.07.2016 15:38 18,6 C 55 % 1022,1 hPa 0,0 l/m 12,4 km/h (3 Bft) W 266 0 min 0,000 mm 2,0 UV-I 293 W/m 9,4 C 16,3 C 20,9 km/h (4 Bft) 97,87 %
16.07.2016 15:40 18,6 C 56 % 1022,0 hPa 0,0 l/m 10,8 km/h (2 Bft) W-SW 244 0 min 0,000 mm 2,2 UV-I 314 W/m 9,6 C 16,8 C 16,1 km/h (3 Bft) 100,00 %
16.07.2016 15:42 18,6 C 58 % 1022,0 hPa 0,0 l/m 5,9 km/h (2 Bft) W-NW 301 0 min 0,000 mm 2,4 UV-I 360 W/m 10,2 C 18,6 C 11,3 km/h (2 Bft) 95,12 %
16.07.2016 15:44 18,8 C 58 % 1022,0 hPa 0,0 l/m 8,2 km/h (2 Bft) W-SW 244 0 min 0,000 mm 2,9 UV-I 385 W/m 10,4 C 18,0 C 16,1 km/h (3 Bft) 100,00 %
16.07.2016 15:46 18,9 C 56 % 1021,9 hPa 0,0 l/m 14,4 km/h (3 Bft) W-SW 247 0 min 0,000 mm 2,6 UV-I 380 W/m 9,9 C 16,1 C 24,1 km/h (4 Bft) 100,00 %
16.07.2016 15:48 18,9 C 55 % 1021,9 hPa 0,0 l/m 15,3 km/h (3 Bft) W 271 0 min 0,000 mm 2,9 UV-I 380 W/m 9,7 C 15,8 C 24,1 km/h (4 Bft) 100,00 %
16.07.2016 15:50 19,1 C 57 % 1021,9 hPa 0,0 l/m 13,2 km/h (3 Bft) W-NW 286 0 min 0,000 mm 3,8 UV-I 380 W/m 10,4 C 16,6 C 22,5 km/h (4 Bft) 97,87 %
16.07.2016 15:52 19,4 C 56 % 1021,9 hPa 0,0 l/m 12,2 km/h (2 Bft) W-SW 246 0 min 0,000 mm 3,6 UV-I 380 W/m 10,4 C 17,3 C 20,9 km/h (4 Bft) 97,87 %
16.07.2016 15:54 19,6 C 54 % 1021,8 hPa 0,0 l/m 18,1 km/h (3 Bft) SW 236 0 min 0,000 mm 3,9 UV-I 380 W/m 10,0 C 16,1 C 29,0 km/h (5 Bft) 100,00 %
16.07.2016 15:56 19,6 C 54 % 1021,8 hPa 0,0 l/m 17,2 km/h (3 Bft) W-SW 252 2 min 0,000 mm 2,8 UV-I 461 W/m 10,0 C 16,3 C 29,0 km/h (5 Bft) 100,00 %
16.07.2016 15:58 19,3 C 52 % 1021,8 hPa 0,0 l/m 16,3 km/h (3 Bft) SW 228 2 min 0,000 mm 2,3 UV-I 418 W/m 9,2 C 16,1 C 27,4 km/h (4 Bft) 97,37 %
16.07.2016 16:00 19,2 C 54 % 1021,8 hPa 0,0 l/m 13,5 km/h (3 Bft) W 276 0 min 0,331 mm 2,1 UV-I 336 W/m 9,7 C 16,7 C 20,9 km/h (4 Bft) 100,00 %
16.07.2016 16:02 19,1 C 55 % 1021,8 hPa 0,0 l/m 12,2 km/h (2 Bft) W-SW 247 0 min 0,000 mm 2,0 UV-I 333 W/m 9,8 C 16,9 C 22,5 km/h (4 Bft) 97,87 %
16.07.2016 16:04 18,9 C 57 % 1021,7 hPa 0,0 l/m 12,1 km/h (2 Bft) W-SW 239 0 min 0,000 mm 1,9 UV-I 308 W/m 10,2 C 16,7 C 19,3 km/h (3 Bft) 100,00 %
16.07.2016 16:06 18,9 C 56 % 1021,7 hPa 0,0 l/m 10,7 km/h (2 Bft) W 261 0 min 0,000 mm 1,8 UV-I 305 W/m 9,9 C 17,2 C 17,7 km/h (3 Bft) 100,00 %
16.07.2016 16:08 18,9 C 58 % 1021,7 hPa 0,0 l/m 9,5 km/h (2 Bft) W-SW 243 0 min 0,000 mm 2,4 UV-I 329 W/m 10,5 C 17,6 C 19,3 km/h (3 Bft) 100,00 %
16.07.2016 16:10 19,1 C 57 % 1021,7 hPa 0,0 l/m 6,9 km/h (2 Bft) NW 309 0 min 0,000 mm 2,2 UV-I 360 W/m 10,4 C 18,9 C 14,5 km/h (3 Bft) 100,00 %
16.07.2016 16:12 19,2 C 54 % 1021,8 hPa 0,0 l/m 9,5 km/h (2 Bft) N 9 0 min 0,000 mm 2,3 UV-I 377 W/m 9,7 C 17,9 C 24,1 km/h (4 Bft) 97,87 %
16.07.2016 16:14 19,2 C 54 % 1021,8 hPa 0,0 l/m 10,6 km/h (2 Bft) W-SW 246 0 min 0,000 mm 2,2 UV-I 351 W/m 9,7 C 17,6 C 19,3 km/h (3 Bft) 93,62 %
16.07.2016 16:16 19,1 C 56 % 1021,8 hPa 0,0 l/m 9,1 km/h (2 Bft) N-NW 327 0 min 0,000 mm 2,0 UV-I 347 W/m 10,1 C 18,0 C 22,5 km/h (4 Bft) 100,00 %
16.07.2016 16:18 19,1 C 55 % 1021,7 hPa 0,0 l/m 7,8 km/h (2 Bft) SW 232 0 min 0,000 mm 1,9 UV-I 343 W/m 9,8 C 18,5 C 17,7 km/h (3 Bft) 97,87 %
16.07.2016 16:20 19,1 C 54 % 1021,8 hPa 0,0 l/m 17,0 km/h (3 Bft) SW 227 0 min 0,000 mm 1,7 UV-I 311 W/m 9,6 C 15,7 C 25,7 km/h (4 Bft) 100,00 %
16.07.2016 16:22 19,1 C 55 % 1021,7 hPa 0,0 l/m 11,0 km/h (2 Bft) W-SW 256 0 min 0,000 mm 1,8 UV-I 327 W/m 9,8 C 17,3 C 16,1 km/h (3 Bft) 93,62 %
16.07.2016 16:24 19,1 C 54 % 1021,6 hPa 0,0 l/m 16,6 km/h (3 Bft) W-SW 248 0 min 0,000 mm 2,2 UV-I 360 W/m 9,6 C 15,8 C 29,0 km/h (5 Bft) 95,74 %
16.07.2016 16:26 19,1 C 54 % 1021,7 hPa 0,0 l/m 18,2 km/h (3 Bft) W-SW 242 2 min 0,000 mm 2,1 UV-I 404 W/m 9,6 C 15,4 C 32,2 km/h (5 Bft) 100,00 %
16.07.2016 16:28 19,1 C 53 % 1021,6 hPa 0,0 l/m 15,4 km/h (3 Bft) SW 231 2 min 0,000 mm 2,3 UV-I 410 W/m 9,3 C 16,1 C 24,1 km/h (4 Bft) 100,00 %
16.07.2016 16:30 19,1 C 56 % 1021,7 hPa 0,0 l/m 8,3 km/h (2 Bft) W-SW 241 2 min 0,000 mm 2,6 UV-I 433 W/m 10,1 C 18,3 C 14,5 km/h (3 Bft) 100,00 %
16.07.2016 16:32 19,3 C 55 % 1021,6 hPa 0,0 l/m 9,3 km/h (2 Bft) W-SW 258 2 min 0,000 mm 2,4 UV-I 386 W/m 10,0 C 18,1 C 14,5 km/h (3 Bft) 100,00 %
16.07.2016 16:34 19,3 C 55 % 1021,6 hPa 0,0 l/m 7,9 km/h (2 Bft) W-SW 256 0 min 0,000 mm 2,0 UV-I 315 W/m 10,0 C 18,7 C 14,5 km/h (3 Bft) 100,00 %
16.07.2016 16:36 19,2 C 55 % 1021,6 hPa 0,0 l/m 12,0 km/h (2 Bft) W 259 0 min 0,000 mm 1,9 UV-I 303 W/m 9,9 C 17,1 C 20,9 km/h (4 Bft) 100,00 %
16.07.2016 16:38 19,1 C 54 % 1021,6 hPa 0,0 l/m 16,6 km/h (3 Bft) SW 217 0 min 0,000 mm 1,6 UV-I 267 W/m 9,6 C 15,8 C 22,5 km/h (4 Bft) 100,00 %
16.07.2016 16:40 19,0 C 54 % 1021,5 hPa 0,0 l/m 19,7 km/h (3 Bft) W 261 0 min 0,000 mm 1,3 UV-I 236 W/m 9,5 C 15,0 C 27,4 km/h (4 Bft) 97,87 %
16.07.2016 16:42 18,9 C 54 % 1021,5 hPa 0,0 l/m 10,4 km/h (2 Bft) SW 222 0 min 0,000 mm 1,2 UV-I 230 W/m 9,4 C 17,3 C 14,5 km/h (3 Bft) 100,00 %
16.07.2016 16:44 18,9 C 56 % 1021,5 hPa 0,0 l/m 11,7 km/h (2 Bft) W-NW 299 0 min 0,000 mm 1,3 UV-I 263 W/m 9,9 C 16,9 C 19,3 km/h (3 Bft) 100,00 %
16.07.2016 16:46 18,9 C 55 % 1021,5 hPa 0,0 l/m 13,3 km/h (3 Bft) W 259 0 min 0,000 mm 1,4 UV-I 313 W/m 9,7 C 16,4 C 29,0 km/h (5 Bft) 97,87 %
16.07.2016 16:48 18,9 C 55 % 1021,6 hPa 0,0 l/m 14,0 km/h (3 Bft) W-SW 248 0 min 0,000 mm 1,4 UV-I 288 W/m 9,7 C 16,2 C 20,9 km/h (4 Bft) 97,87 %
16.07.2016 16:50 18,9 C 55 % 1021,6 hPa 0,0 l/m 13,8 km/h (3 Bft) W-SW 237 0 min 0,000 mm 1,2 UV-I 259 W/m 9,7 C 16,2 C 25,7 km/h (4 Bft) 97,87 %
16.07.2016 16:52 18,9 C 54 % 1021,6 hPa 0,0 l/m 13,8 km/h (3 Bft) SW 234 0 min 0,000 mm 1,2 UV-I 257 W/m 9,4 C 16,2 C 24,1 km/h (4 Bft) 100,00 %
16.07.2016 16:54 18,9 C 54 % 1021,6 hPa 0,0 l/m 12,8 km/h (3 Bft) W 269 0 min 0,000 mm 1,3 UV-I 268 W/m 9,4 C 16,5 C 20,9 km/h (4 Bft) 100,00 %
16.07.2016 16:56 18,9 C 53 % 1021,5 hPa 0,0 l/m 13,3 km/h (3 Bft) W 265 0 min 0,000 mm 1,4 UV-I 299 W/m 9,1 C 16,4 C 17,7 km/h (3 Bft) 93,62 %
16.07.2016 16:58 19,0 C 52 % 1021,5 hPa 0,0 l/m 13,5 km/h (3 Bft) W-SW 246 0 min 0,000 mm 1,7 UV-I 318 W/m 8,9 C 16,4 C 20,9 km/h (4 Bft) 98,00 %
16.07.2016 17:00 19,1 C 54 % 1021,5 hPa 0,0 l/m 11,4 km/h (2 Bft) W-SW 257 2 min 0,000 mm 1,8 UV-I 363 W/m 9,6 C 17,2 C 22,5 km/h (4 Bft) 97,87 %
16.07.2016 17:02 19,2 C 55 % 1021,5 hPa 0,0 l/m 15,5 km/h (3 Bft) W-SW 257 2 min 0,279 mm 2,1 UV-I 429 W/m 9,9 C 16,2 C 20,9 km/h (4 Bft) 97,87 %
16.07.2016 17:04 19,4 C 54 % 1021,4 hPa 0,0 l/m 13,2 km/h (3 Bft) W-SW 240 2 min 0,000 mm 2,2 UV-I 420 W/m 9,8 C 17,0 C 19,3 km/h (3 Bft) 93,62 %
16.07.2016 17:06 19,5 C 52 % 1021,4 hPa 0,0 l/m 17,6 km/h (3 Bft) W-SW 249 2 min 0,000 mm 2,0 UV-I 399 W/m 9,4 C 16,0 C 24,1 km/h (4 Bft) 96,00 %
16.07.2016 17:08 19,5 C 54 % 1021,5 hPa 0,0 l/m 11,1 km/h (2 Bft) W-SW 257 2 min 0,000 mm 1,9 UV-I 391 W/m 9,9 C 17,7 C 16,1 km/h (3 Bft) 97,87 %
16.07.2016 17:10 19,6 C 54 % 1021,5 hPa 0,0 l/m 12,0 km/h (2 Bft) W 273 2 min 0,000 mm 1,8 UV-I 411 W/m 10,0 C 17,6 C 19,3 km/h (3 Bft) 95,74 %
16.07.2016 17:12 19,6 C 55 % 1021,5 hPa 0,0 l/m 7,1 km/h (2 Bft) W 265 2 min 0,000 mm 1,7 UV-I 402 W/m 10,3 C 19,3 C 14,5 km/h (3 Bft) 97,87 %
16.07.2016 17:14 19,7 C 53 % 1021,5 hPa 0,0 l/m 10,1 km/h (2 Bft) W-NW 288 2 min 0,000 mm 1,7 UV-I 580 W/m 9,8 C 18,3 C 16,1 km/h (3 Bft) 97,37 %
16.07.2016 17:16 19,7 C 53 % 1021,4 hPa 0,0 l/m 8,7 km/h (2 Bft) W-SW 250 2 min 0,000 mm 1,3 UV-I 490 W/m 9,8 C 18,8 C 12,9 km/h (3 Bft) 97,96 %
16.07.2016 17:18 19,7 C 54 % 1021,4 hPa 0,0 l/m 7,8 km/h (2 Bft) S-SW 209 0 min 0,000 mm 1,2 UV-I 262 W/m 10,1 C 19,1 C 12,9 km/h (3 Bft) 97,87 %
16.07.2016 17:20 19,7 C 53 % 1021,4 hPa 0,0 l/m 7,6 km/h (2 Bft) W-NW 294 0 min 0,000 mm 1,3 UV-I 276 W/m 9,8 C 19,2 C 12,9 km/h (3 Bft) 97,87 %
16.07.2016 17:22 19,6 C 54 % 1021,3 hPa 0,0 l/m 7,3 km/h (2 Bft) W 270 2 min 0,000 mm 1,4 UV-I 312 W/m 10,0 C 19,2 C 14,5 km/h (3 Bft) 97,87 %
16.07.2016 17:24 19,7 C 53 % 1021,3 hPa 0,0 l/m 15,6 km/h (3 Bft) W-SW 241 2 min 0,000 mm 1,4 UV-I 327 W/m 9,8 C 16,7 C 25,7 km/h (4 Bft) 97,87 %
16.07.2016 17:26 19,6 C 54 % 1021,4 hPa 0,0 l/m 14,1 km/h (3 Bft) W-SW 257 2 min 0,000 mm 1,5 UV-I 375 W/m 10,0 C 17,0 C 22,5 km/h (4 Bft) 96,00 %
16.07.2016 17:28 19,7 C 53 % 1021,3 hPa 0,0 l/m 13,7 km/h (3 Bft) W-SW 254 2 min 0,000 mm 1,5 UV-I 388 W/m 9,8 C 17,2 C 22,5 km/h (4 Bft) 100,00 %
16.07.2016 17:30 19,8 C 54 % 1021,3 hPa 0,0 l/m 17,8 km/h (3 Bft) W-SW 252 2 min 0,000 mm 1,4 UV-I 334 W/m 10,2 C 16,4 C 29,0 km/h (5 Bft) 97,92 %
16.07.2016 17:32 19,7 C 53 % 1021,4 hPa 0,0 l/m 13,8 km/h (3 Bft) W-NW 290 2 min 0,000 mm 1,3 UV-I 344 W/m 9,8 C 17,2 C 22,5 km/h (4 Bft) 97,87 %
16.07.2016 17:34 19,7 C 53 % 1021,3 hPa 0,0 l/m 15,1 km/h (3 Bft) W-SW 237 2 min 0,000 mm 1,3 UV-I 370 W/m 9,8 C 16,9 C 22,5 km/h (4 Bft) 100,00 %
16.07.2016 17:36 19,7 C 52 % 1021,3 hPa 0,0 l/m 17,4 km/h (3 Bft) W-SW 251 2 min 0,000 mm 1,2 UV-I 344 W/m 9,6 C 16,3 C 25,7 km/h (4 Bft) 97,87 %
16.07.2016 17:38 19,6 C 52 % 1021,3 hPa 0,0 l/m 16,3 km/h (3 Bft) SW 234 0 min 0,000 mm 1,1 UV-I 273 W/m 9,5 C 16,5 C 25,7 km/h (4 Bft) 100,00 %
16.07.2016 17:40 19,5 C 53 % 1021,3 hPa 0,0 l/m 12,8 km/h (3 Bft) W 266 0 min 0,000 mm 1,0 UV-I 246 W/m 9,7 C 17,2 C 19,3 km/h (3 Bft) 97,87 %
16.07.2016 17:42 19,4 C 53 % 1021,2 hPa 0,0 l/m 14,7 km/h (3 Bft) N-NW 328 0 min 0,000 mm 0,9 UV-I 240 W/m 9,6 C 16,6 C 24,1 km/h (4 Bft) 98,00 %
16.07.2016 17:44 19,4 C 53 % 1021,2 hPa 0,0 l/m 19,1 km/h (3 Bft) W 262 0 min 0,000 mm 0,8 UV-I 210 W/m 9,6 C 15,6 C 33,8 km/h (5 Bft) 100,00 %
16.07.2016 17:46 19,3 C 54 % 1021,1 hPa 0,0 l/m 17,3 km/h (3 Bft) W-SW 244 0 min 0,000 mm 0,8 UV-I 189 W/m 9,8 C 15,9 C 27,4 km/h (4 Bft) 97,87 %
16.07.2016 17:48 19,3 C 52 % 1021,2 hPa 0,0 l/m 21,9 km/h (4 Bft) W-SW 257 0 min 0,000 mm 0,8 UV-I 179 W/m 9,2 C 14,9 C 38,6 km/h (5 Bft) 100,00 %
16.07.2016 17:50 19,3 C 54 % 1021,2 hPa 0,0 l/m 13,3 km/h (3 Bft) W-SW 251 0 min 0,000 mm 0,7 UV-I 171 W/m 9,8 C 16,8 C 20,9 km/h (4 Bft) 100,00 %
16.07.2016 17:52 19,2 C 54 % 1021,2 hPa 0,0 l/m 11,4 km/h (2 Bft) W-SW 243 0 min 0,000 mm 0,7 UV-I 168 W/m 9,7 C 17,3 C 20,9 km/h (4 Bft) 100,00 %
16.07.2016 17:54 19,2 C 54 % 1021,2 hPa 0,0 l/m 10,2 km/h (2 Bft) W-SW 244 0 min 0,000 mm 0,7 UV-I 179 W/m 9,7 C 17,7 C 14,5 km/h (3 Bft) 100,00 %
16.07.2016 17:56 19,2 C 54 % 1021,2 hPa 0,0 l/m 14,2 km/h (3 Bft) W 269 0 min 0,000 mm 0,8 UV-I 201 W/m 9,7 C 16,5 C 20,9 km/h (4 Bft) 100,00 %
16.07.2016 17:58 19,2 C 54 % 1021,2 hPa 0,0 l/m 12,9 km/h (3 Bft) W-SW 253 0 min 0,000 mm 0,8 UV-I 224 W/m 9,7 C 16,8 C 17,7 km/h (3 Bft) 100,00 %
16.07.2016 18:00 19,2 C 54 % 1021,1 hPa 0,0 l/m 15,7 km/h (3 Bft) W-SW 255 0 min 0,279 mm 0,9 UV-I 237 W/m 9,7 C 16,1 C 24,1 km/h (4 Bft) 100,00 %
16.07.2016 18:02 19,2 C 53 % 1021,1 hPa 0,0 l/m 13,9 km/h (3 Bft) W-SW 254 0 min 0,000 mm 0,9 UV-I 240 W/m 9,4 C 16,6 C 22,5 km/h (4 Bft) 100,00 %
16.07.2016 18:04 19,3 C 54 % 1021,1 hPa 0,0 l/m 15,2 km/h (3 Bft) W-SW 240 0 min 0,000 mm 0,9 UV-I 236 W/m 9,8 C 16,4 C 20,9 km/h (4 Bft) 100,00 %
16.07.2016 18:06 19,3 C 54 % 1021,1 hPa 0,0 l/m 14,5 km/h (3 Bft) W-SW 242 2 min 0,000 mm 0,9 UV-I 245 W/m 9,8 C 16,5 C 25,7 km/h (4 Bft) 98,00 %
16.07.2016 18:08 19,3 C 53 % 1021,1 hPa 0,0 l/m 16,7 km/h (3 Bft) W-NW 290 2 min 0,000 mm 0,9 UV-I 254 W/m 9,5 C 16,0 C 29,0 km/h (5 Bft) 100,00 %
16.07.2016 18:10 19,4 C 53 % 1021,1 hPa 0,0 l/m 15,8 km/h (3 Bft) W 272 2 min 0,000 mm 0,9 UV-I 256 W/m 9,6 C 16,3 C 24,1 km/h (4 Bft) 100,00 %
16.07.2016 18:12 19,4 C 54 % 1021,1 hPa 0,0 l/m 15,6 km/h (3 Bft) W 259 2 min 0,000 mm 0,8 UV-I 246 W/m 9,8 C 16,4 C 22,5 km/h (4 Bft) 100,00 %
16.07.2016 18:14 19,4 C 54 % 1021,1 hPa 0,0 l/m 11,4 km/h (2 Bft) W-SW 252 0 min 0,000 mm 0,8 UV-I 227 W/m 9,8 C 17,5 C 19,3 km/h (3 Bft) 100,00 %
16.07.2016 18:16 19,4 C 54 % 1021,1 hPa 0,0 l/m 10,7 km/h (2 Bft) W-SW 253 0 min 0,000 mm 0,8 UV-I 205 W/m 9,8 C 17,7 C 17,7 km/h (3 Bft) 100,00 %
16.07.2016 18:18 19,4 C 54 % 1021,1 hPa 0,0 l/m 9,8 km/h (2 Bft) W-SW 249 0 min 0,000 mm 0,7 UV-I 189 W/m 9,8 C 18,0 C 19,3 km/h (3 Bft) 100,00 %
16.07.2016 18:20 19,3 C 54 % 1021,1 hPa 0,0 l/m 11,7 km/h (2 Bft) SW 221 0 min 0,000 mm 0,6 UV-I 181 W/m 9,8 C 17,3 C 17,7 km/h (3 Bft) 100,00 %
16.07.2016 18:22 19,3 C 54 % 1021,1 hPa 0,0 l/m 16,1 km/h (3 Bft) W 267 0 min 0,000 mm 0,6 UV-I 175 W/m 9,8 C 16,1 C 24,1 km/h (4 Bft) 98,00 %
16.07.2016 18:24 19,3 C 54 % 1021,1 hPa 0,0 l/m 10,9 km/h (2 Bft) SW 225 0 min 0,000 mm 0,5 UV-I 161 W/m 9,8 C 17,6 C 22,5 km/h (4 Bft) 100,00 %
16.07.2016 18:26 19,2 C 55 % 1021,0 hPa 0,0 l/m 6,9 km/h (2 Bft) W 275 0 min 0,000 mm 0,5 UV-I 145 W/m 9,9 C 19,0 C 12,9 km/h (3 Bft) 100,00 %
16.07.2016 18:28 19,2 C 55 % 1021,0 hPa 0,0 l/m 11,5 km/h (2 Bft) W-SW 252 0 min 0,000 mm 0,1 UV-I 123 W/m 9,9 C 17,3 C 19,3 km/h (3 Bft) 96,23 %
16.07.2016 18:30 19,2 C 55 % 1021,0 hPa 0,0 l/m 13,0 km/h (3 Bft) W-SW 258 0 min 0,000 mm 0,0 UV-I 101 W/m 9,9 C 16,8 C 17,7 km/h (3 Bft) 97,96 %
16.07.2016 18:32 19,1 C 54 % 1021,0 hPa 0,0 l/m 15,3 km/h (3 Bft) W 262 0 min 0,000 mm 0,0 UV-I 84 W/m 9,6 C 16,1 C 20,9 km/h (4 Bft) 97,87 %
16.07.2016 18:34 19,1 C 54 % 1021,0 hPa 0,0 l/m 11,4 km/h (2 Bft) SW 231 0 min 0,000 mm 0,0 UV-I 75 W/m 9,6 C 17,2 C 19,3 km/h (3 Bft) 100,00 %
16.07.2016 18:36 19,1 C 55 % 1021,0 hPa 0,0 l/m 10,9 km/h (2 Bft) W-SW 246 0 min 0,000 mm 0,0 UV-I 76 W/m 9,8 C 17,3 C 16,1 km/h (3 Bft) 100,00 %
16.07.2016 18:38 18,9 C 56 % 1021,0 hPa 0,0 l/m 11,9 km/h (2 Bft) W-SW 240 0 min 0,000 mm 0,0 UV-I 87 W/m 9,9 C 16,8 C 17,7 km/h (3 Bft) 100,00 %
16.07.2016 18:40 18,9 C 55 % 1021,0 hPa 0,0 l/m 10,5 km/h (2 Bft) W-SW 257 0 min 0,000 mm 0,0 UV-I 93 W/m 9,7 C 17,3 C 19,3 km/h (3 Bft) 98,08 %
16.07.2016 18:42 18,9 C 55 % 1021,0 hPa 0,0 l/m 12,3 km/h (3 Bft) SW 236 0 min 0,000 mm 0,0 UV-I 84 W/m 9,7 C 16,7 C 17,7 km/h (3 Bft) 100,00 %
16.07.2016 18:44 18,9 C 56 % 1021,0 hPa 0,0 l/m 9,6 km/h (2 Bft) W-SW 237 0 min 0,000 mm 0,0 UV-I 74 W/m 9,9 C 17,6 C 16,1 km/h (3 Bft) 100,00 %
16.07.2016 18:46 18,9 C 55 % 1021,0 hPa 0,0 l/m 8,5 km/h (2 Bft) W-SW 250 0 min 0,000 mm 0,0 UV-I 73 W/m 9,7 C 18,0 C 14,5 km/h (3 Bft) 100,00 %
16.07.2016 18:48 18,8 C 56 % 1021,0 hPa 0,0 l/m 10,5 km/h (2 Bft) W-SW 251 0 min 0,000 mm 0,0 UV-I 71 W/m 9,8 C 17,1 C 17,7 km/h (3 Bft) 100,00 %
16.07.2016 18:50 18,8 C 56 % 1020,9 hPa 0,0 l/m 10,6 km/h (2 Bft) W-SW 237 0 min 0,000 mm 0,0 UV-I 59 W/m 9,8 C 17,1 C 17,7 km/h (3 Bft) 100,00 %
16.07.2016 18:52 18,8 C 57 % 1020,9 hPa 0,0 l/m 11,2 km/h (2 Bft) W-SW 244 0 min 0,000 mm 0,0 UV-I 45 W/m 10,1 C 16,9 C 16,1 km/h (3 Bft) 97,87 %
16.07.2016 18:54 18,8 C 56 % 1021,0 hPa 0,0 l/m 12,1 km/h (2 Bft) W-SW 248 0 min 0,000 mm 0,0 UV-I 42 W/m 9,8 C 16,6 C 17,7 km/h (3 Bft) 97,87 %
16.07.2016 18:56 18,8 C 57 % 1020,9 hPa 0,0 l/m 12,1 km/h (2 Bft) W-SW 246 0 min 0,000 mm 0,0 UV-I 45 W/m 10,1 C 16,6 C 19,3 km/h (3 Bft) 97,87 %
16.07.2016 18:58 18,7 C 56 % 1021,0 hPa 0,0 l/m 13,4 km/h (3 Bft) W 261 0 min 0,000 mm 0,0 UV-I 53 W/m 9,7 C 16,1 C 19,3 km/h (3 Bft) 95,74 %
16.07.2016 19:00 18,7 C 57 % 1021,0 hPa 0,0 l/m 11,6 km/h (2 Bft) W 259 0 min 0,000 mm 0,0 UV-I 65 W/m 10,0 C 16,7 C 16,1 km/h (3 Bft) 97,87 %
16.07.2016 19:02 18,7 C 57 % 1020,9 hPa 0,0 l/m 13,1 km/h (3 Bft) W-SW 258 0 min 0,153 mm 0,0 UV-I 74 W/m 10,0 C 16,2 C 19,3 km/h (3 Bft) 97,87 %
16.07.2016 19:04 18,7 C 57 % 1021,0 hPa 0,0 l/m 15,7 km/h (3 Bft) W 267 0 min 0,000 mm 0,0 UV-I 87 W/m 10,0 C 15,5 C 22,5 km/h (4 Bft) 97,87 %
16.07.2016 19:06 18,6 C 59 % 1021,0 hPa 0,0 l/m 11,9 km/h (2 Bft) SW 230 0 min 0,000 mm 0,0 UV-I 97 W/m 10,4 C 16,4 C 19,3 km/h (3 Bft) 95,74 %
16.07.2016 19:08 18,6 C 59 % 1021,1 hPa 0,0 l/m 12,6 km/h (3 Bft) S 191 0 min 0,000 mm 0,0 UV-I 105 W/m 10,4 C 16,2 C 17,7 km/h (3 Bft) 97,87 %
16.07.2016 19:10 18,6 C 59 % 1020,9 hPa 0,0 l/m 14,4 km/h (3 Bft) W 271 0 min 0,000 mm 0,0 UV-I 109 W/m 10,4 C 15,7 C 22,5 km/h (4 Bft) 97,37 %
16.07.2016 19:12 18,5 C 59 % 1021,0 hPa 0,0 l/m 12,5 km/h (3 Bft) S-SW 206 0 min 0,000 mm 0,0 UV-I 107 W/m 10,3 C 16,1 C 17,7 km/h (3 Bft) 97,87 %
16.07.2016 19:14 18,4 C 60 % 1020,9 hPa 0,0 l/m 12,1 km/h (2 Bft) SW 223 0 min 0,000 mm 0,0 UV-I 105 W/m 10,5 C 16,2 C 22,5 km/h (4 Bft) 98,00 %
16.07.2016 19:16 18,4 C 60 % 1021,0 hPa 0,0 l/m 13,1 km/h (3 Bft) SW 225 0 min 0,000 mm 0,0 UV-I 104 W/m 10,5 C 15,8 C 19,3 km/h (3 Bft) 98,00 %
16.07.2016 19:18 18,4 C 60 % 1020,9 hPa 0,0 l/m 14,8 km/h (3 Bft) W 266 0 min 0,000 mm 0,0 UV-I 102 W/m 10,5 C 15,4 C 22,5 km/h (4 Bft) 97,37 %
16.07.2016 19:20 18,4 C 61 % 1021,0 hPa 0,0 l/m 14,3 km/h (3 Bft) SW 222 0 min 0,000 mm 0,0 UV-I 101 W/m 10,7 C 15,5 C 24,1 km/h (4 Bft) 93,62 %
16.07.2016 19:22 18,4 C 61 % 1021,0 hPa 0,0 l/m 11,9 km/h (2 Bft) SW 220 0 min 0,000 mm 0,0 UV-I 92 W/m 10,7 C 16,2 C 19,3 km/h (3 Bft) 97,92 %
16.07.2016 19:24 18,4 C 61 % 1020,9 hPa 0,0 l/m 15,1 km/h (3 Bft) SW 221 0 min 0,000 mm 0,0 UV-I 76 W/m 10,7 C 15,3 C 20,9 km/h (4 Bft) 95,74 %
16.07.2016 19:26 18,3 C 61 % 1021,0 hPa 0,0 l/m 11,6 km/h (2 Bft) W-SW 251 0 min 0,000 mm 0,0 UV-I 64 W/m 10,6 C 16,2 C 19,3 km/h (3 Bft) 97,87 %
16.07.2016 19:28 18,3 C 61 % 1021,0 hPa 0,0 l/m 9,7 km/h (2 Bft) SW 232 0 min 0,000 mm 0,0 UV-I 63 W/m 10,6 C 16,9 C 16,1 km/h (3 Bft) 97,87 %
16.07.2016 19:30 18,3 C 62 % 1021,0 hPa 0,0 l/m 11,9 km/h (2 Bft) SW 229 0 min 0,000 mm 0,0 UV-I 72 W/m 10,9 C 16,1 C 17,7 km/h (3 Bft) 97,87 %
16.07.2016 19:32 18,3 C 62 % 1021,0 hPa 0,0 l/m 11,2 km/h (2 Bft) SW 223 0 min 0,000 mm 0,0 UV-I 80 W/m 10,9 C 16,3 C 17,7 km/h (3 Bft) 100,00 %
16.07.2016 19:34 18,2 C 62 % 1021,0 hPa 0,0 l/m 11,9 km/h (2 Bft) SW 236 0 min 0,000 mm 0,0 UV-I 78 W/m 10,8 C 16,0 C 20,9 km/h (4 Bft) 100,00 %
16.07.2016 19:36 18,2 C 62 % 1021,0 hPa 0,0 l/m 13,0 km/h (3 Bft) SW 217 0 min 0,000 mm 0,0 UV-I 72 W/m 10,8 C 15,6 C 17,7 km/h (3 Bft) 97,87 %
16.07.2016 19:38 18,2 C 62 % 1021,0 hPa 0,0 l/m 12,9 km/h (3 Bft) W 264 0 min 0,000 mm 0,0 UV-I 69 W/m 10,8 C 15,7 C 17,7 km/h (3 Bft) 97,87 %
16.07.2016 19:40 18,1 C 63 % 1021,0 hPa 0,0 l/m 11,9 km/h (2 Bft) W 266 0 min 0,000 mm 0,0 UV-I 64 W/m 10,9 C 15,9 C 16,1 km/h (3 Bft) 100,00 %
16.07.2016 19:42 18,1 C 63 % 1021,0 hPa 0,0 l/m 8,9 km/h (2 Bft) SW 236 0 min 0,000 mm 0,0 UV-I 56 W/m 10,9 C 17,0 C 14,5 km/h (3 Bft) 97,87 %
16.07.2016 19:44 18,1 C 63 % 1021,0 hPa 0,0 l/m 14,5 km/h (3 Bft) W 259 0 min 0,000 mm 0,0 UV-I 52 W/m 10,9 C 15,1 C 22,5 km/h (4 Bft) 100,00 %
16.07.2016 19:46 18,1 C 63 % 1021,0 hPa 0,0 l/m 13,4 km/h (3 Bft) W-SW 237 0 min 0,000 mm 0,0 UV-I 51 W/m 10,9 C 15,4 C 17,7 km/h (3 Bft) 100,00 %
16.07.2016 19:48 18,0 C 63 % 1021,0 hPa 0,0 l/m 11,0 km/h (2 Bft) W-SW 237 0 min 0,000 mm 0,0 UV-I 53 W/m 10,8 C 16,1 C 16,1 km/h (3 Bft) 100,00 %
16.07.2016 19:50 18,0 C 63 % 1020,9 hPa 0,0 l/m 15,0 km/h (3 Bft) SW 235 0 min 0,000 mm 0,0 UV-I 60 W/m 10,8 C 14,8 C 20,9 km/h (4 Bft) 100,00 %
16.07.2016 19:52 18,0 C 63 % 1021,0 hPa 0,0 l/m 16,3 km/h (3 Bft) SW 234 0 min 0,000 mm 0,0 UV-I 65 W/m 10,8 C 14,5 C 25,7 km/h (4 Bft) 100,00 %
16.07.2016 19:54 18,0 C 63 % 1020,9 hPa 0,0 l/m 12,7 km/h (3 Bft) S-SW 205 0 min 0,000 mm 0,0 UV-I 75 W/m 10,8 C 15,5 C 20,9 km/h (4 Bft) 100,00 %
16.07.2016 19:56 18,0 C 63 % 1020,9 hPa 0,0 l/m 12,9 km/h (3 Bft) S-SW 202 2 min 0,000 mm 0,0 UV-I 85 W/m 10,8 C 15,4 C 19,3 km/h (3 Bft) 97,87 %
16.07.2016 19:58 18,1 C 63 % 1021,0 hPa 0,0 l/m 15,1 km/h (3 Bft) SW 236 2 min 0,000 mm 0,0 UV-I 88 W/m 10,9 C 14,9 C 20,9 km/h (4 Bft) 100,00 %
16.07.2016 20:00 18,1 C 63 % 1021,0 hPa 0,0 l/m 14,1 km/h (3 Bft) W-SW 241 2 min 0,000 mm 0,0 UV-I 84 W/m 10,9 C 15,2 C 22,5 km/h (4 Bft) 95,74 %
16.07.2016 20:02 18,1 C 64 % 1021,0 hPa 0,0 l/m 13,3 km/h (3 Bft) W-SW 257 2 min 0,127 mm 0,0 UV-I 84 W/m 11,2 C 15,4 C 19,3 km/h (3 Bft) 100,00 %
16.07.2016 20:04 18,0 C 64 % 1021,0 hPa 0,0 l/m 12,2 km/h (2 Bft) S 172 2 min 0,000 mm 0,0 UV-I 85 W/m 11,1 C 15,7 C 19,3 km/h (3 Bft) 100,00 %
16.07.2016 20:06 18,0 C 63 % 1021,0 hPa 0,0 l/m 15,0 km/h (3 Bft) W-SW 248 2 min 0,000 mm 0,0 UV-I 85 W/m 10,8 C 14,8 C 27,4 km/h (4 Bft) 100,00 %
16.07.2016 20:08 18,0 C 64 % 1021,0 hPa 0,0 l/m 11,5 km/h (2 Bft) SW 225 2 min 0,000 mm 0,0 UV-I 78 W/m 11,1 C 15,9 C 19,3 km/h (3 Bft) 97,87 %
16.07.2016 20:10 18,0 C 64 % 1020,9 hPa 0,0 l/m 14,1 km/h (3 Bft) S 188 2 min 0,000 mm 0,0 UV-I 69 W/m 11,1 C 15,1 C 22,5 km/h (4 Bft) 97,87 %
16.07.2016 20:12 18,0 C 64 % 1021,0 hPa 0,0 l/m 14,7 km/h (3 Bft) W-SW 240 2 min 0,000 mm 0,0 UV-I 66 W/m 11,1 C 14,9 C 22,5 km/h (4 Bft) 100,00 %
16.07.2016 20:14 18,0 C 64 % 1021,0 hPa 0,0 l/m 11,5 km/h (2 Bft) SW 232 2 min 0,000 mm 0,0 UV-I 70 W/m 11,1 C 15,9 C 16,1 km/h (3 Bft) 100,00 %
16.07.2016 20:16 17,9 C 64 % 1021,0 hPa 0,0 l/m 11,9 km/h (2 Bft) SW 219 2 min 0,000 mm 0,0 UV-I 69 W/m 11,0 C 15,6 C 19,3 km/h (3 Bft) 100,00 %
16.07.2016 20:18 17,9 C 64 % 1021,0 hPa 0,0 l/m 13,6 km/h (3 Bft) SW 229 2 min 0,000 mm 0,0 UV-I 68 W/m 11,0 C 15,1 C 20,9 km/h (4 Bft) 100,00 %
16.07.2016 20:20 17,9 C 64 % 1021,0 hPa 0,0 l/m 13,9 km/h (3 Bft) SW 235 2 min 0,000 mm 0,0 UV-I 67 W/m 11,0 C 15,0 C 20,9 km/h (4 Bft) 97,87 %
16.07.2016 20:22 17,9 C 65 % 1021,0 hPa 0,0 l/m 12,0 km/h (2 Bft) W-SW 241 2 min 0,000 mm 0,0 UV-I 63 W/m 11,2 C 15,6 C 17,7 km/h (3 Bft) 98,00 %
16.07.2016 20:24 17,9 C 65 % 1021,0 hPa 0,0 l/m 11,0 km/h (2 Bft) W-SW 240 2 min 0,000 mm 0,0 UV-I 58 W/m 11,2 C 16,0 C 20,9 km/h (4 Bft) 97,87 %
16.07.2016 20:26 17,9 C 65 % 1020,9 hPa 0,0 l/m 13,3 km/h (3 Bft) SW 224 2 min 0,000 mm 0,0 UV-I 51 W/m 11,2 C 15,2 C 20,9 km/h (4 Bft) 100,00 %
16.07.2016 20:28 17,8 C 65 % 1021,0 hPa 0,0 l/m 13,0 km/h (3 Bft) W-SW 244 2 min 0,000 mm 0,0 UV-I 45 W/m 11,1 C 15,2 C 19,3 km/h (3 Bft) 100,00 %
16.07.2016 20:30 17,8 C 65 % 1021,0 hPa 0,0 l/m 12,2 km/h (2 Bft) S-SW 204 2 min 0,000 mm 0,0 UV-I 39 W/m 11,1 C 15,4 C 19,3 km/h (3 Bft) 97,87 %
16.07.2016 20:32 17,8 C 65 % 1021,0 hPa 0,0 l/m 13,7 km/h (3 Bft) SW 220 2 min 0,000 mm 0,0 UV-I 35 W/m 11,1 C 15,0 C 22,5 km/h (4 Bft) 97,87 %
16.07.2016 20:34 17,7 C 66 % 1021,0 hPa 0,0 l/m 12,0 km/h (2 Bft) W-SW 242 2 min 0,000 mm 0,0 UV-I 31 W/m 11,3 C 15,4 C 17,7 km/h (3 Bft) 100,00 %
16.07.2016 20:36 17,7 C 66 % 1020,9 hPa 0,0 l/m 11,2 km/h (2 Bft) SW 221 2 min 0,000 mm 0,0 UV-I 28 W/m 11,3 C 15,7 C 17,7 km/h (3 Bft) 97,87 %
16.07.2016 20:38 17,7 C 66 % 1021,0 hPa 0,0 l/m 11,5 km/h (2 Bft) W-SW 244 2 min 0,000 mm 0,0 UV-I 26 W/m 11,3 C 15,6 C 16,1 km/h (3 Bft) 100,00 %
16.07.2016 20:40 17,7 C 66 % 1020,9 hPa 0,0 l/m 14,9 km/h (3 Bft) W-SW 248 2 min 0,000 mm 0,0 UV-I 25 W/m 11,3 C 14,5 C 20,9 km/h (4 Bft) 100,00 %
16.07.2016 20:42 17,7 C 66 % 1020,9 hPa 0,0 l/m 15,2 km/h (3 Bft) W-SW 242 2 min 0,000 mm 0,0 UV-I 25 W/m 11,3 C 14,4 C 22,5 km/h (4 Bft) 100,00 %
16.07.2016 20:44 17,7 C 66 % 1020,9 hPa 0,0 l/m 14,8 km/h (3 Bft) W-SW 244 2 min 0,000 mm 0,0 UV-I 25 W/m 11,3 C 14,5 C 20,9 km/h (4 Bft) 100,00 %
16.07.2016 20:46 17,7 C 66 % 1020,9 hPa 0,0 l/m 16,6 km/h (3 Bft) SW 233 2 min 0,000 mm 0,0 UV-I 24 W/m 11,3 C 14,0 C 25,7 km/h (4 Bft) 100,00 %
16.07.2016 20:48 17,6 C 66 % 1020,9 hPa 0,0 l/m 15,4 km/h (3 Bft) W 259 0 min 0,000 mm 0,0 UV-I 22 W/m 11,2 C 14,2 C 19,3 km/h (3 Bft) 100,00 %
16.07.2016 20:50 17,6 C 66 % 1021,0 hPa 0,0 l/m 16,4 km/h (3 Bft) W 269 0 min 0,000 mm 0,0 UV-I 20 W/m 11,2 C 14,0 C 24,1 km/h (4 Bft) 97,14 %
16.07.2016 20:52 17,6 C 66 % 1020,9 hPa 0,0 l/m 13,3 km/h (3 Bft) W 259 0 min 0,000 mm 0,0 UV-I 16 W/m 11,2 C 14,8 C 19,3 km/h (3 Bft) 96,08 %
16.07.2016 20:54 17,6 C 66 % 1020,9 hPa 0,0 l/m 15,8 km/h (3 Bft) W-SW 246 0 min 0,000 mm 0,0 UV-I 13 W/m 11,2 C 14,1 C 25,7 km/h (4 Bft) 97,87 %
16.07.2016 20:56 17,6 C 66 % 1021,0 hPa 0,0 l/m 12,9 km/h (3 Bft) W 261 0 min 0,000 mm 0,0 UV-I 11 W/m 11,2 C 15,0 C 17,7 km/h (3 Bft) 97,87 %
16.07.2016 20:58 17,6 C 66 % 1020,9 hPa 0,0 l/m 14,4 km/h (3 Bft) SW 225 0 min 0,000 mm 0,0 UV-I 9 W/m 11,2 C 14,5 C 24,1 km/h (4 Bft) 98,00 %
16.07.2016 21:00 17,5 C 67 % 1021,0 hPa 0,0 l/m 14,2 km/h (3 Bft) SW 235 0 min 0,000 mm 0,0 UV-I 8 W/m 11,3 C 14,5 C 24,1 km/h (4 Bft) 97,87 %
16.07.2016 21:02 17,5 C 66 % 1020,9 hPa 0,0 l/m 17,4 km/h (3 Bft) S-SW 213 0 min 0,101 mm 0,0 UV-I 6 W/m 11,1 C 13,6 C 25,7 km/h (4 Bft) 97,56 %
16.07.2016 21:04 17,4 C 66 % 1021,0 hPa 0,0 l/m 15,0 km/h (3 Bft) SW 231 0 min 0,000 mm 0,0 UV-I 5 W/m 11,0 C 14,1 C 24,1 km/h (4 Bft) 95,74 %
16.07.2016 21:06 17,4 C 67 % 1021,0 hPa 0,0 l/m 16,1 km/h (3 Bft) W-SW 242 0 min 0,000 mm 0,0 UV-I 5 W/m 11,2 C 13,8 C 24,1 km/h (4 Bft) 96,00 %
16.07.2016 21:08 17,4 C 67 % 1021,0 hPa 0,0 l/m 12,0 km/h (2 Bft) SW 234 0 min 0,000 mm 0,0 UV-I 0 W/m 11,2 C 15,0 C 19,3 km/h (3 Bft) 97,87 %
16.07.2016 21:10 17,4 C 67 % 1021,1 hPa 0,0 l/m 16,7 km/h (3 Bft) S-SW 200 0 min 0,000 mm 0,0 UV-I 0 W/m 11,2 C 13,6 C 22,5 km/h (4 Bft) 93,62 %
16.07.2016 21:12 17,4 C 66 % 1021,1 hPa 0,0 l/m 16,0 km/h (3 Bft) SW 225 0 min 0,000 mm 0,0 UV-I 0 W/m 11,0 C 13,8 C 22,5 km/h (4 Bft) 95,74 %
16.07.2016 21:14 17,4 C 67 % 1021,1 hPa 0,0 l/m 16,9 km/h (3 Bft) SW 235 0 min 0,000 mm 0,0 UV-I 0 W/m 11,2 C 13,6 C 27,4 km/h (4 Bft) 95,74 %
16.07.2016 21:16 17,4 C 66 % 1021,1 hPa 0,0 l/m 15,0 km/h (3 Bft) W-SW 249 0 min 0,000 mm 0,0 UV-I 0 W/m 11,0 C 14,1 C 24,1 km/h (4 Bft) 95,74 %
16.07.2016 21:18 17,3 C 66 % 1021,1 hPa 0,0 l/m 16,9 km/h (3 Bft) SW 228 0 min 0,000 mm 0,0 UV-I 0 W/m 10,9 C 13,5 C 25,7 km/h (4 Bft) 95,74 %
16.07.2016 21:20 17,3 C 66 % 1021,1 hPa 0,0 l/m 13,8 km/h (3 Bft) SW 227 0 min 0,000 mm 0,0 UV-I 0 W/m 10,9 C 14,3 C 20,9 km/h (4 Bft) 97,87 %
16.07.2016 21:22 17,3 C 66 % 1021,1 hPa 0,0 l/m 11,6 km/h (2 Bft) W-SW 246 0 min 0,000 mm 0,0 UV-I 0 W/m 10,9 C 15,1 C 17,7 km/h (3 Bft) 98,00 %
16.07.2016 21:24 17,3 C 66 % 1021,2 hPa 0,0 l/m 15,5 km/h (3 Bft) W-SW 241 0 min 0,000 mm 0,0 UV-I 0 W/m 10,9 C 13,8 C 25,7 km/h (4 Bft) 95,74 %
16.07.2016 21:26 17,3 C 66 % 1021,2 hPa 0,0 l/m 15,8 km/h (3 Bft) SW 216 0 min 0,000 mm 0,0 UV-I 0 W/m 10,9 C 13,8 C 25,7 km/h (4 Bft) 97,92 %
16.07.2016 21:28 17,3 C 66 % 1021,2 hPa 0,0 l/m 14,5 km/h (3 Bft) W-SW 242 0 min 0,000 mm 0,0 UV-I 0 W/m 10,9 C 14,1 C 24,1 km/h (4 Bft) 100,00 %
16.07.2016 21:30 17,3 C 67 % 1021,2 hPa 0,0 l/m 13,5 km/h (3 Bft) SW 227 0 min 0,000 mm 0,0 UV-I 0 W/m 11,1 C 14,4 C 19,3 km/h (3 Bft) 97,87 %
16.07.2016 21:32 17,2 C 67 % 1021,1 hPa 0,0 l/m 14,0 km/h (3 Bft) SW 221 0 min 0,000 mm 0,0 UV-I 0 W/m 11,0 C 14,2 C 20,9 km/h (4 Bft) 97,87 %
16.07.2016 21:34 17,2 C 67 % 1021,2 hPa 0,0 l/m 12,0 km/h (2 Bft) W 271 0 min 0,000 mm 0,0 UV-I 0 W/m 11,0 C 14,8 C 20,9 km/h (4 Bft) 100,00 %
16.07.2016 21:36 17,2 C 67 % 1021,2 hPa 0,0 l/m 16,4 km/h (3 Bft) W-SW 240 0 min 0,000 mm 0,0 UV-I 0 W/m 11,0 C 13,5 C 22,5 km/h (4 Bft) 100,00 %
16.07.2016 21:38 17,1 C 67 % 1021,2 hPa 0,0 l/m 13,5 km/h (3 Bft) W-SW 242 0 min 0,000 mm 0,0 UV-I 0 W/m 10,9 C 14,2 C 22,5 km/h (4 Bft) 100,00 %
16.07.2016 21:40 17,1 C 67 % 1021,2 hPa 0,0 l/m 16,0 km/h (3 Bft) SW 221 0 min 0,000 mm 0,0 UV-I 0 W/m 10,9 C 13,5 C 22,5 km/h (4 Bft) 100,00 %
16.07.2016 21:42 17,1 C 67 % 1021,2 hPa 0,0 l/m 17,0 km/h (3 Bft) SW 216 0 min 0,000 mm 0,0 UV-I 0 W/m 10,9 C 13,2 C 25,7 km/h (4 Bft) 100,00 %
16.07.2016 21:44 17,0 C 68 % 1021,2 hPa 0,0 l/m 15,0 km/h (3 Bft) W-SW 257 0 min 0,000 mm 0,0 UV-I 0 W/m 11,0 C 13,6 C 22,5 km/h (4 Bft) 100,00 %
16.07.2016 21:46 17,0 C 68 % 1021,3 hPa 0,0 l/m 16,6 km/h (3 Bft) SW 229 0 min 0,000 mm 0,0 UV-I 0 W/m 11,0 C 13,2 C 25,7 km/h (4 Bft) 100,00 %
16.07.2016 21:48 16,9 C 68 % 1021,3 hPa 0,0 l/m 14,6 km/h (3 Bft) SW 236 0 min 0,000 mm 0,0 UV-I 0 W/m 11,0 C 13,6 C 19,3 km/h (3 Bft) 100,00 %
16.07.2016 21:50 16,9 C 68 % 1021,3 hPa 0,0 l/m 14,7 km/h (3 Bft) W-SW 242 0 min 0,000 mm 0,0 UV-I 0 W/m 11,0 C 13,6 C 24,1 km/h (4 Bft) 100,00 %
16.07.2016 21:52 16,9 C 68 % 1021,3 hPa 0,0 l/m 15,3 km/h (3 Bft) SW 221 0 min 0,000 mm 0,0 UV-I 0 W/m 11,0 C 13,4 C 20,9 km/h (4 Bft) 97,87 %
16.07.2016 21:54 16,9 C 68 % 1021,3 hPa 0,0 l/m 15,6 km/h (3 Bft) W 264 0 min 0,000 mm 0,0 UV-I 0 W/m 11,0 C 13,3 C 27,4 km/h (4 Bft) 100,00 %
16.07.2016 21:56 16,9 C 68 % 1021,3 hPa 0,0 l/m 16,3 km/h (3 Bft) S-SW 201 0 min 0,000 mm 0,0 UV-I 0 W/m 11,0 C 13,1 C 27,4 km/h (4 Bft) 97,22 %
16.07.2016 21:58 16,8 C 68 % 1021,3 hPa 0,0 l/m 16,0 km/h (3 Bft) W-SW 240 0 min 0,000 mm 0,0 UV-I 0 W/m 10,9 C 13,1 C 27,4 km/h (4 Bft) 100,00 %
16.07.2016 22:00 16,8 C 68 % 1021,3 hPa 0,0 l/m 15,1 km/h (3 Bft) SW 220 0 min 0,000 mm 0,0 UV-I 0 W/m 10,9 C 13,3 C 20,9 km/h (4 Bft) 100,00 %
16.07.2016 22:02 16,8 C 68 % 1021,3 hPa 0,0 l/m 16,2 km/h (3 Bft) W-SW 252 0 min 0,077 mm 0,0 UV-I 0 W/m 10,9 C 13,0 C 24,1 km/h (4 Bft) 100,00 %
16.07.2016 22:04 16,8 C 68 % 1021,3 hPa 0,0 l/m 12,1 km/h (2 Bft) W-SW 239 0 min 0,000 mm 0,0 UV-I 0 W/m 10,9 C 14,3 C 17,7 km/h (3 Bft) 100,00 %
16.07.2016 22:06 16,7 C 68 % 1021,3 hPa 0,0 l/m 14,3 km/h (3 Bft) SW 236 0 min 0,000 mm 0,0 UV-I 0 W/m 10,8 C 13,5 C 20,9 km/h (4 Bft) 100,00 %
16.07.2016 22:08 16,6 C 69 % 1021,2 hPa 0,0 l/m 15,0 km/h (3 Bft) W-SW 245 0 min 0,000 mm 0,0 UV-I 0 W/m 10,9 C 13,1 C 22,5 km/h (4 Bft) 100,00 %
16.07.2016 22:10 16,6 C 68 % 1021,2 hPa 0,0 l/m 14,3 km/h (3 Bft) W-SW 254 0 min 0,000 mm 0,0 UV-I 0 W/m 10,7 C 13,3 C 24,1 km/h (4 Bft) 100,00 %
16.07.2016 22:12 16,5 C 69 % 1021,2 hPa 0,0 l/m 13,3 km/h (3 Bft) SW 225 0 min 0,000 mm 0,0 UV-I 0 W/m 10,8 C 13,5 C 19,3 km/h (3 Bft) 97,87 %
16.07.2016 22:14 16,5 C 69 % 1021,2 hPa 0,0 l/m 12,8 km/h (3 Bft) S 187 0 min 0,000 mm 0,0 UV-I 0 W/m 10,8 C 13,7 C 19,3 km/h (3 Bft) 100,00 %
16.07.2016 22:16 16,4 C 69 % 1021,1 hPa 0,0 l/m 17,2 km/h (3 Bft) SW 217 0 min 0,000 mm 0,0 UV-I 0 W/m 10,7 C 12,3 C 25,7 km/h (4 Bft) 100,00 %
16.07.2016 22:18 16,3 C 69 % 1021,1 hPa 0,0 l/m 13,7 km/h (3 Bft) SW 234 0 min 0,000 mm 0,0 UV-I 0 W/m 10,6 C 13,2 C 22,5 km/h (4 Bft) 97,87 %
16.07.2016 22:20 16,3 C 69 % 1021,1 hPa 0,0 l/m 10,5 km/h (2 Bft) SW 229 0 min 0,000 mm 0,0 UV-I 0 W/m 10,6 C 14,3 C 14,5 km/h (3 Bft) 95,74 %
16.07.2016 22:22 16,2 C 69 % 1021,1 hPa 0,0 l/m 14,7 km/h (3 Bft) W-SW 244 0 min 0,000 mm 0,0 UV-I 0 W/m 10,5 C 12,7 C 17,7 km/h (3 Bft) 97,87 %
16.07.2016 22:24 16,2 C 70 % 1021,1 hPa 0,0 l/m 14,2 km/h (3 Bft) W-SW 248 0 min 0,000 mm 0,0 UV-I 0 W/m 10,7 C 12,9 C 20,9 km/h (4 Bft) 96,23 %
16.07.2016 22:26 16,2 C 70 % 1021,2 hPa 0,0 l/m 14,8 km/h (3 Bft) S-SW 194 0 min 0,000 mm 0,0 UV-I 0 W/m 10,7 C 12,7 C 20,9 km/h (4 Bft) 100,00 %
16.07.2016 22:28 16,1 C 70 % 1021,2 hPa 0,0 l/m 11,8 km/h (2 Bft) W-SW 239 0 min 0,000 mm 0,0 UV-I 0 W/m 10,6 C 13,6 C 17,7 km/h (3 Bft) 100,00 %
16.07.2016 22:30 16,1 C 70 % 1021,1 hPa 0,0 l/m 13,0 km/h (3 Bft) SW 231 0 min 0,000 mm 0,0 UV-I 0 W/m 10,6 C 13,2 C 19,3 km/h (3 Bft) 97,87 %
16.07.2016 22:32 16,0 C 71 % 1021,1 hPa 0,0 l/m 11,1 km/h (2 Bft) W 260 0 min 0,000 mm 0,0 UV-I 0 W/m 10,7 C 13,8 C 14,5 km/h (3 Bft) 97,87 %
16.07.2016 22:34 15,9 C 71 % 1021,1 hPa 0,0 l/m 14,3 km/h (3 Bft) W 265 0 min 0,000 mm 0,0 UV-I 0 W/m 10,6 C 12,5 C 20,9 km/h (4 Bft) 98,00 %
16.07.2016 22:36 15,9 C 70 % 1021,2 hPa 0,0 l/m 14,2 km/h (3 Bft) W-SW 253 0 min 0,000 mm 0,0 UV-I 0 W/m 10,4 C 12,5 C 20,9 km/h (4 Bft) 95,74 %
16.07.2016 22:38 15,9 C 71 % 1021,2 hPa 0,0 l/m 12,3 km/h (3 Bft) W-SW 258 0 min 0,000 mm 0,0 UV-I 0 W/m 10,6 C 13,2 C 17,7 km/h (3 Bft) 100,00 %
16.07.2016 22:40 15,8 C 71 % 1021,1 hPa 0,0 l/m 14,3 km/h (3 Bft) SW 222 0 min 0,000 mm 0,0 UV-I 0 W/m 10,6 C 12,4 C 19,3 km/h (3 Bft) 100,00 %
16.07.2016 22:42 15,8 C 71 % 1021,1 hPa 0,0 l/m 12,8 km/h (3 Bft) SW 232 0 min 0,000 mm 0,0 UV-I 0 W/m 10,6 C 12,9 C 20,9 km/h (4 Bft) 97,87 %
16.07.2016 22:44 15,7 C 71 % 1021,1 hPa 0,0 l/m 12,3 km/h (3 Bft) SW 219 0 min 0,000 mm 0,0 UV-I 0 W/m 10,5 C 13,0 C 17,7 km/h (3 Bft) 98,00 %
16.07.2016 22:46 15,7 C 71 % 1021,1 hPa 0,0 l/m 13,6 km/h (3 Bft) SW 236 0 min 0,000 mm 0,0 UV-I 0 W/m 10,5 C 12,5 C 19,3 km/h (3 Bft) 100,00 %
16.07.2016 22:48 15,7 C 71 % 1021,1 hPa 0,0 l/m 13,4 km/h (3 Bft) SW 228 0 min 0,000 mm 0,0 UV-I 0 W/m 10,5 C 12,6 C 19,3 km/h (3 Bft) 100,00 %
16.07.2016 22:50 15,6 C 72 % 1021,1 hPa 0,0 l/m 12,8 km/h (3 Bft) SW 217 0 min 0,000 mm 0,0 UV-I 0 W/m 10,6 C 12,7 C 19,3 km/h (3 Bft) 100,00 %
16.07.2016 22:52 15,6 C 72 % 1021,1 hPa 0,0 l/m 16,0 km/h (3 Bft) SW 219 0 min 0,000 mm 0,0 UV-I 0 W/m 10,6 C 11,6 C 22,5 km/h (4 Bft) 97,87 %
16.07.2016 22:54 15,6 C 72 % 1021,1 hPa 0,0 l/m 13,3 km/h (3 Bft) W-SW 237 0 min 0,000 mm 0,0 UV-I 0 W/m 10,6 C 12,5 C 17,7 km/h (3 Bft) 96,15 %
16.07.2016 22:56 15,5 C 72 % 1021,1 hPa 0,0 l/m 11,3 km/h (2 Bft) SW 224 0 min 0,000 mm 0,0 UV-I 0 W/m 10,5 C 13,1 C 17,7 km/h (3 Bft) 97,87 %
16.07.2016 22:58 15,4 C 72 % 1021,2 hPa 0,0 l/m 13,6 km/h (3 Bft) SW 231 0 min 0,000 mm 0,0 UV-I 0 W/m 10,4 C 12,1 C 19,3 km/h (3 Bft) 97,87 %
16.07.2016 23:00 15,4 C 72 % 1021,1 hPa 0,0 l/m 9,7 km/h (2 Bft) SW 217 0 min 0,000 mm 0,0 UV-I 0 W/m 10,4 C 13,7 C 14,5 km/h (3 Bft) 98,00 %
16.07.2016 23:02 15,4 C 72 % 1021,1 hPa 0,0 l/m 13,2 km/h (3 Bft) SW 226 0 min 0,050 mm 0,0 UV-I 0 W/m 10,4 C 12,3 C 19,3 km/h (3 Bft) 95,74 %
16.07.2016 23:04 15,4 C 72 % 1021,1 hPa 0,0 l/m 10,9 km/h (2 Bft) W-SW 241 0 min 0,000 mm 0,0 UV-I 0 W/m 10,4 C 13,2 C 17,7 km/h (3 Bft) 93,62 %
16.07.2016 23:06 15,4 C 73 % 1021,1 hPa 0,0 l/m 11,7 km/h (2 Bft) W-SW 243 0 min 0,000 mm 0,0 UV-I 0 W/m 10,6 C 12,8 C 17,7 km/h (3 Bft) 97,87 %
16.07.2016 23:08 15,3 C 73 % 1021,1 hPa 0,0 l/m 12,4 km/h (3 Bft) SW 230 0 min 0,000 mm 0,0 UV-I 0 W/m 10,5 C 12,5 C 17,7 km/h (3 Bft) 95,74 %
16.07.2016 23:10 15,3 C 73 % 1021,1 hPa 0,0 l/m 13,0 km/h (3 Bft) SW 229 0 min 0,000 mm 0,0 UV-I 0 W/m 10,5 C 12,2 C 17,7 km/h (3 Bft) 97,87 %
16.07.2016 23:12 15,3 C 73 % 1021,1 hPa 0,0 l/m 13,7 km/h (3 Bft) SW 221 0 min 0,000 mm 0,0 UV-I 0 W/m 10,5 C 12,0 C 20,9 km/h (4 Bft) 97,87 %
16.07.2016 23:14 15,3 C 73 % 1021,1 hPa 0,0 l/m 13,3 km/h (3 Bft) SW 232 0 min 0,000 mm 0,0 UV-I 0 W/m 10,5 C 12,1 C 17,7 km/h (3 Bft) 97,87 %
16.07.2016 23:16 15,2 C 73 % 1021,1 hPa 0,0 l/m 13,1 km/h (3 Bft) W-SW 250 0 min 0,000 mm 0,0 UV-I 0 W/m 10,4 C 12,1 C 19,3 km/h (3 Bft) 97,87 %
16.07.2016 23:18 15,2 C 73 % 1021,1 hPa 0,0 l/m 13,3 km/h (3 Bft) W-SW 240 0 min 0,000 mm 0,0 UV-I 0 W/m 10,4 C 12,0 C 20,9 km/h (4 Bft) 95,74 %
16.07.2016 23:20 15,2 C 73 % 1021,1 hPa 0,0 l/m 12,4 km/h (3 Bft) SW 225 0 min 0,000 mm 0,0 UV-I 0 W/m 10,4 C 12,3 C 16,1 km/h (3 Bft) 97,44 %
16.07.2016 23:22 15,2 C 73 % 1021,1 hPa 0,0 l/m 13,8 km/h (3 Bft) SW 227 0 min 0,000 mm 0,0 UV-I 0 W/m 10,4 C 11,8 C 20,9 km/h (4 Bft) 97,87 %
16.07.2016 23:24 15,2 C 73 % 1021,0 hPa 0,0 l/m 12,6 km/h (3 Bft) SW 230 0 min 0,000 mm 0,0 UV-I 0 W/m 10,4 C 12,3 C 17,7 km/h (3 Bft) 100,00 %
16.07.2016 23:26 15,1 C 73 % 1021,1 hPa 0,0 l/m 14,2 km/h (3 Bft) SW 234 0 min 0,000 mm 0,0 UV-I 0 W/m 10,3 C 11,6 C 20,9 km/h (4 Bft) 97,87 %
16.07.2016 23:28 15,1 C 73 % 1021,0 hPa 0,0 l/m 13,1 km/h (3 Bft) SW 214 0 min 0,000 mm 0,0 UV-I 0 W/m 10,3 C 12,0 C 19,3 km/h (3 Bft) 95,74 %
16.07.2016 23:30 15,1 C 73 % 1021,1 hPa 0,0 l/m 13,0 km/h (3 Bft) SW 228 0 min 0,000 mm 0,0 UV-I 0 W/m 10,3 C 12,0 C 17,7 km/h (3 Bft) 97,87 %
16.07.2016 23:32 15,1 C 73 % 1021,0 hPa 0,0 l/m 14,0 km/h (3 Bft) W-SW 244 0 min 0,000 mm 0,0 UV-I 0 W/m 10,3 C 11,6 C 20,9 km/h (4 Bft) 100,00 %
16.07.2016 23:34 15,1 C 73 % 1021,0 hPa 0,0 l/m 14,7 km/h (3 Bft) SW 223 0 min 0,000 mm 0,0 UV-I 0 W/m 10,3 C 11,4 C 22,5 km/h (4 Bft) 100,00 %
16.07.2016 23:36 15,1 C 73 % 1021,1 hPa 0,0 l/m 12,3 km/h (3 Bft) SW 223 0 min 0,000 mm 0,0 UV-I 0 W/m 10,3 C 12,3 C 19,3 km/h (3 Bft) 97,87 %
16.07.2016 23:38 15,1 C 73 % 1021,0 hPa 0,0 l/m 13,4 km/h (3 Bft) SW 225 0 min 0,000 mm 0,0 UV-I 0 W/m 10,3 C 11,9 C 20,9 km/h (4 Bft) 100,00 %
16.07.2016 23:40 15,1 C 73 % 1021,0 hPa 0,0 l/m 15,8 km/h (3 Bft) W-SW 242 0 min 0,000 mm 0,0 UV-I 0 W/m 10,3 C 11,1 C 20,9 km/h (4 Bft) 100,00 %
16.07.2016 23:42 15,1 C 73 % 1021,0 hPa 0,0 l/m 12,1 km/h (2 Bft) W-SW 246 0 min 0,000 mm 0,0 UV-I 0 W/m 10,3 C 12,3 C 17,7 km/h (3 Bft) 100,00 %
16.07.2016 23:44 15,1 C 73 % 1021,1 hPa 0,0 l/m 14,2 km/h (3 Bft) SW 236 0 min 0,000 mm 0,0 UV-I 0 W/m 10,3 C 11,6 C 20,9 km/h (4 Bft) 97,87 %
16.07.2016 23:46 15,1 C 73 % 1021,0 hPa 0,0 l/m 14,0 km/h (3 Bft) SW 227 0 min 0,000 mm 0,0 UV-I 0 W/m 10,3 C 11,6 C 20,9 km/h (4 Bft) 100,00 %
16.07.2016 23:48 15,1 C 73 % 1021,0 hPa 0,0 l/m 13,2 km/h (3 Bft) S-SW 200 0 min 0,000 mm 0,0 UV-I 0 W/m 10,3 C 11,9 C 17,7 km/h (3 Bft) 100,00 %
16.07.2016 23:50 15,1 C 73 % 1021,1 hPa 0,0 l/m 13,4 km/h (3 Bft) W-SW 240 0 min 0,000 mm 0,0 UV-I 0 W/m 10,3 C 11,9 C 20,9 km/h (4 Bft) 100,00 %
16.07.2016 23:52 15,1 C 73 % 1021,0 hPa 0,0 l/m 12,3 km/h (3 Bft) W-SW 252 0 min 0,000 mm 0,0 UV-I 0 W/m 10,3 C 12,3 C 16,1 km/h (3 Bft) 100,00 %
16.07.2016 23:54 15,1 C 73 % 1021,1 hPa 0,0 l/m 13,6 km/h (3 Bft) SW 225 0 min 0,000 mm 0,0 UV-I 0 W/m 10,3 C 11,8 C 20,9 km/h (4 Bft) 100,00 %
16.07.2016 23:56 15,1 C 73 % 1021,1 hPa 0,0 l/m 13,9 km/h (3 Bft) SW 217 0 min 0,000 mm 0,0 UV-I 0 W/m 10,3 C 11,7 C 17,7 km/h (3 Bft) 100,00 %
16.07.2016 23:58 15,1 C 73 % 1021,1 hPa 0,0 l/m 12,2 km/h (2 Bft) SW 225 0 min 0,000 mm 0,0 UV-I 0 W/m 10,3 C 12,3 C 19,3 km/h (3 Bft) 97,92 %
_ Min-Zeit 05:12 15:58 18:50 - 12:30 - - - - - - 16:58 06:38 02:30 00:02
Minimum _ 12,3 C 52 % 1020,9 hPa - 2,6 km/h (1 Bft) - - - - - - 8,9 C 9,8 C 4,8 km/h (1 Bft) 5,56 %
_ Max-Zeit 17:16 04:32 01:02 00:00 17:48 - - 11:14 16:00 13:36 13:42 13:36 17:12 17:48 00:00
Maximum _ 19,8 C 91 % 1024,7 hPa 0,0 l/m 21,9 km/h
W-SW (4 Bft)
- - 2 min 0,331 mm 6,2 UV-I 744 W/m 11,7 C 19,3 C 38,6 km/h
W-SW (5 Bft)
100,00 %
Durchschnitt _ 15,5 C 73 % 1022,8 hPa #0,0 l/m 9,9 km/h (2 Bft) W-SW - #2:50 h #2,819 mm 1,9 UV-I 219 W/m 10,5 C 14,0 C 15,9 km/h (3 Bft) 98,51 %